Time,TemperatureF,DewpointF,PressureIn,WindDirection,WindDirectionDegrees,WindSpeedMPH,WindSpeedGustMPH,Humidity,HourlyPrecipIn,Conditions,Clouds,dailyrainin,SoftwareType,DateUTC
2013-11-20 00:00:00,54.1,54.1,30.14,NE,40,3.0,7.0,100,0.00,,OVC010,0.00,VWS V14.01,2013-11-20 05:00:00,
2013-11-20 00:01:00,54.1,54.1,30.14,NE,35,4.0,4.0,100,0.00,,SCT200,0.00,VWS V14.01,2013-11-20 05:01:00,
2013-11-20 00:02:00,54.1,54.1,30.14,NNW,335,3.0,5.0,100,0.00,,OVC010,0.00,VWS V14.01,2013-11-20 05:02:00,
2013-11-20 00:03:00,54.1,54.1,30.14,ENE,58,4.0,7.0,100,0.00,,OVC010,0.00,VWS V14.01,2013-11-20 05:03:00,
2013-11-20 00:04:00,54.1,54.1,30.14,ENE,75,3.0,10.0,100,0.00,,OVC010,0.00,VWS V14.01,2013-11-20 05:04:00,
2013-11-20 00:05:00,54.1,54.1,30.14,NW,315,7.0,7.0,100,0.00,,OVC010,0.00,VWS V14.01,2013-11-20 05:05:00,
2013-11-20 00:06:00,54.1,54.1,30.14,NNW,345,4.0,11.0,100,0.00,,SCT200,0.00,VWS V14.01,2013-11-20 05:06:00,
2013-11-20 00:07:00,54.1,54.1,30.14,NNW,345,4.0,11.0,100,0.00,,OVC010,0.00,VWS V14.01,2013-11-20 05:07:00,
2013-11-20 00:08:00,54.2,54.2,30.14,NNW,342,1.0,4.0,100,0.00,,OVC010,0.00,VWS V14.01,2013-11-20 05:08:00,
2013-11-20 00:09:00,54.2,54.2,30.14,NNE,32,6.0,6.0,100,0.00,,OVC010,0.00,VWS V14.01,2013-11-20 05:09:00,
2013-11-20 00:10:00,54.1,54.1,30.14,ENE,74,6.0,6.0,100,0.00,,OVC010,0.00,VWS V14.01,2013-11-20 05:10:00,
2013-11-20 00:11:00,54.1,54.1,30.14,NE,53,11.0,11.0,100,0.00,,SCT200,0.00,VWS V14.01,2013-11-20 05:11:00,
2013-11-20 00:12:00,54.1,54.1,30.14,NE,53,10.0,11.0,100,0.00,,OVC010,0.00,VWS V14.01,2013-11-20 05:12:00,
2013-11-20 00:13:00,54.1,54.1,30.14,NNE,19,6.0,10.0,100,0.00,,OVC010,0.00,VWS V14.01,2013-11-20 05:13:00,
2013-11-20 00:14:00,54.2,54.2,30.14,NE,46,5.0,9.0,100,0.00,,OVC010,0.00,VWS V14.01,2013-11-20 05:14:00,
2013-11-20 00:15:00,54.2,54.2,30.14,NE,40,4.0,6.0,100,0.00,,OVC010,0.00,VWS V14.01,2013-11-20 05:15:00,
2013-11-20 00:16:00,54.2,54.2,30.14,NE,40,1.0,4.0,100,0.00,,SCT200,0.00,VWS V14.01,2013-11-20 05:16:00,
2013-11-20 00:17:00,54.2,54.2,30.14,NE,41,6.0,6.0,100,0.00,,OVC010,0.00,VWS V14.01,2013-11-20 05:17:00,
2013-11-20 00:18:00,54.2,54.2,30.14,NE,44,4.0,7.0,100,0.00,,OVC010,0.00,VWS V14.01,2013-11-20 05:18:00,
2013-11-20 00:19:00,54.2,54.2,30.14,NNE,25,2.0,6.0,100,0.00,,OVC010,0.00,VWS V14.01,2013-11-20 05:19:00,
2013-11-20 00:20:00,54.2,54.2,30.15,NE,50,3.0,11.0,100,0.00,,OVC010,0.00,VWS V14.01,2013-11-20 05:20:00,
2013-11-20 00:21:00,54.2,54.2,30.15,North,355,3.0,3.0,100,0.00,,SCT200,0.00,VWS V14.01,2013-11-20 05:21:00,
2013-11-20 00:22:00,54.2,54.2,30.15,North,355,3.0,3.0,100,0.00,,OVC010,0.00,VWS V14.01,2013-11-20 05:22:00,
2013-11-20 00:23:00,54.2,54.2,30.15,East,82,5.0,7.0,100,0.00,,OVC010,0.00,VWS V14.01,2013-11-20 05:23:00,
2013-11-20 00:24:00,54.1,54.1,30.14,North,355,6.0,9.0,100,0.00,,OVC010,0.00,VWS V14.01,2013-11-20 05:24:00,
2013-11-20 00:25:00,54.1,54.1,30.15,North,355,6.0,6.0,100,0.00,,OVC010,0.00,VWS V14.01,2013-11-20 05:25:00,
2013-11-20 00:26:00,54.1,54.1,30.14,NE,43,9.0,9.0,100,0.00,,SCT200,0.00,VWS V14.01,2013-11-20 05:26:00,
2013-11-20 00:27:00,54.1,54.1,30.14,NE,53,2.0,9.0,100,0.00,,OVC010,0.00,VWS V14.01,2013-11-20 05:27:00,
2013-11-20 00:28:00,54.1,54.1,30.14,NNE,26,3.0,13.0,100,0.00,,OVC010,0.00,VWS V14.01,2013-11-20 05:28:00,
2013-11-20 00:29:00,54.1,54.1,30.15,NNW,348,1.0,4.0,100,0.00,,OVC010,0.00,VWS V14.01,2013-11-20 05:29:00,
2013-11-20 00:30:00,54.1,54.1,30.15,NNE,23,6.0,6.0,100,0.00,,OVC010,0.00,VWS V14.01,2013-11-20 05:30:00,
2013-11-20 00:31:00,54.1,54.1,30.15,NE,34,11.0,11.0,100,0.00,,SCT200,0.00,VWS V14.01,2013-11-20 05:31:00,
2013-11-20 00:32:00,54.1,54.1,30.15,NE,39,2.0,11.0,100,0.00,,OVC010,0.00,VWS V14.01,2013-11-20 05:32:00,
2013-11-20 00:33:00,54.1,54.1,30.15,NNE,16,1.0,4.0,100,0.00,,OVC010,0.00,VWS V14.01,2013-11-20 05:33:00,
2013-11-20 00:34:00,54.1,54.1,30.15,ENE,60,3.0,4.0,100,0.00,,OVC010,0.00,VWS V14.01,2013-11-20 05:34:00,
2013-11-20 00:35:00,54.1,54.1,30.15,NE,53,3.0,5.0,100,0.00,,OVC010,0.00,VWS V14.01,2013-11-20 05:35:00,
2013-11-20 00:36:00,54.1,54.1,30.15,North,360,8.0,8.0,100,0.00,,CLR,0.00,VWS V14.01,2013-11-20 05:36:00,
2013-11-20 00:37:00,54.1,54.1,30.15,North,10,8.0,8.0,100,0.00,,OVC010,0.00,VWS V14.01,2013-11-20 05:37:00,
2013-11-20 00:38:00,54.1,54.1,30.15,NNE,24,5.0,8.0,100,0.00,,OVC010,0.00,VWS V14.01,2013-11-20 05:38:00,
2013-11-20 00:39:00,54.1,54.1,30.14,NNE,32,9.0,12.0,100,0.00,,OVC010,0.00,VWS V14.01,2013-11-20 05:39:00,
2013-11-20 00:40:00,54.1,54.1,30.14,North,355,2.0,9.0,100,0.00,,OVC010,0.00,VWS V14.01,2013-11-20 05:40:00,
2013-11-20 00:41:00,54.1,54.1,30.14,NE,36,5.0,9.0,100,0.00,,CLR,0.00,VWS V14.01,2013-11-20 05:41:00,
2013-11-20 00:42:00,54.1,54.1,30.14,ENE,67,5.0,9.0,100,0.00,,OVC010,0.00,VWS V14.01,2013-11-20 05:42:00,
2013-11-20 00:43:00,54.1,54.1,30.14,NE,51,4.0,6.0,100,0.00,,OVC010,0.00,VWS V14.01,2013-11-20 05:43:00,
2013-11-20 00:44:00,54.1,54.1,30.14,NE,53,5.0,8.0,100,0.00,,OVC010,0.00,VWS V14.01,2013-11-20 05:44:00,
2013-11-20 00:45:00,54.1,54.1,30.14,NE,46,1.0,7.0,100,0.00,,OVC010,0.00,VWS V14.01,2013-11-20 05:45:00,
2013-11-20 00:46:00,54.1,54.1,30.14,NE,42,3.0,3.0,100,0.00,,CLR,0.00,VWS V14.01,2013-11-20 05:46:00,
2013-11-20 00:47:00,54.1,54.1,30.14,NE,49,11.0,11.0,100,0.00,,OVC010,0.00,VWS V14.01,2013-11-20 05:47:00,
2013-11-20 00:48:00,54.1,54.1,30.14,ENE,71,4.0,11.0,100,0.00,,OVC010,0.00,VWS V14.01,2013-11-20 05:48:00,
2013-11-20 00:49:00,54.1,54.1,30.14,NE,53,11.0,11.0,100,0.00,,OVC010,0.00,VWS V14.01,2013-11-20 05:49:00,
2013-11-20 00:50:00,54.1,54.1,30.14,North,11,4.0,13.0,100,0.00,,OVC010,0.00,VWS V14.01,2013-11-20 05:50:00,
2013-11-20 00:51:00,54.1,54.1,30.14,NE,37,6.0,9.0,100,0.00,,CLR,0.00,VWS V14.01,2013-11-20 05:51:00,
2013-11-20 00:52:00,54.1,54.1,30.14,North,10,1.0,9.0,100,0.00,,OVC010,0.00,VWS V14.01,2013-11-20 05:52:00,
2013-11-20 00:53:00,54.1,54.1,30.13,NNW,347,5.0,12.0,100,0.00,,OVC010,0.00,VWS V14.01,2013-11-20 05:53:00,
2013-11-20 00:54:00,54.1,54.1,30.13,NE,47,4.0,12.0,100,0.00,,OVC010,0.00,VWS V14.01,2013-11-20 05:54:00,
2013-11-20 00:55:00,54.1,54.1,30.13,NE,43,15.0,15.0,100,0.00,,OVC010,0.00,VWS V14.01,2013-11-20 05:55:00,
2013-11-20 00:56:00,54.1,54.1,30.13,ENE,74,3.0,13.0,100,0.00,,CLR,0.00,VWS V14.01,2013-11-20 05:56:00,
2013-11-20 00:57:00,54.1,54.1,30.13,NE,48,14.0,14.0,100,0.00,,OVC010,0.00,VWS V14.01,2013-11-20 05:57:00,
2013-11-20 00:58:00,54.1,54.1,30.13,NE,34,2.0,14.0,100,0.00,,OVC010,0.00,VWS V14.01,2013-11-20 05:58:00,
2013-11-20 00:59:00,54.1,54.1,30.13,NE,53,6.0,6.0,100,0.00,,OVC010,0.00,VWS V14.01,2013-11-20 05:59:00,
2013-11-20 01:00:00,54.1,54.1,30.13,North,355,6.0,9.0,100,0.00,,OVC010,0.00,VWS V14.01,2013-11-20 06:00:00,
2013-11-20 01:01:00,54.2,54.2,30.13,NE,42,5.0,12.0,100,0.00,,CLR,0.00,VWS V14.01,2013-11-20 06:01:00,
2013-11-20 01:02:00,54.2,54.2,30.13,North,360,3.0,12.0,100,0.00,,OVC010,0.00,VWS V14.01,2013-11-20 06:02:00,
2013-11-20 01:03:00,54.2,54.2,30.14,NNE,19,10.0,10.0,100,0.00,,OVC010,0.00,VWS V14.01,2013-11-20 06:03:00,
2013-11-20 01:04:00,54.2,54.2,30.14,NE,40,3.0,10.0,100,0.00,,OVC010,0.00,VWS V14.01,2013-11-20 06:04:00,
2013-11-20 01:05:00,54.2,54.2,30.14,NE,46,10.0,10.0,100,0.00,,OVC010,0.00,VWS V14.01,2013-11-20 06:05:00,
2013-11-20 01:06:00,54.2,54.2,30.14,ENE,63,4.0,12.0,100,0.00,,CLR,0.00,VWS V14.01,2013-11-20 06:06:00,
2013-11-20 01:07:00,54.2,54.2,30.14,NW,304,5.0,12.0,100,0.00,,OVC010,0.00,VWS V14.01,2013-11-20 06:07:00,
2013-11-20 01:08:00,54.2,54.2,30.14,NNE,19,4.0,11.0,100,0.00,,OVC010,0.00,VWS V14.01,2013-11-20 06:08:00,
2013-11-20 01:09:00,54.1,54.1,30.14,NNE,30,9.0,9.0,100,0.00,,OVC010,0.00,VWS V14.01,2013-11-20 06:09:00,
2013-11-20 01:10:00,54.1,54.1,30.14,North,5,9.0,10.0,100,0.00,,OVC010,0.00,VWS V14.01,2013-11-20 06:10:00,
2013-11-20 01:11:00,54.2,54.2,30.14,NE,37,6.0,9.0,100,0.00,,CLR,0.00,VWS V14.01,2013-11-20 06:11:00,
2013-11-20 01:12:00,54.2,54.2,30.14,ENE,69,5.0,9.0,100,0.00,,OVC010,0.00,VWS V14.01,2013-11-20 06:12:00,
2013-11-20 01:13:00,54.2,54.2,30.14,North,360,3.0,10.0,100,0.00,,OVC010,0.00,VWS V14.01,2013-11-20 06:13:00,
2013-11-20 01:14:00,54.1,54.1,30.14,NNW,338,5.0,5.0,100,0.00,,OVC010,0.00,VWS V14.01,2013-11-20 06:14:00,
2013-11-20 01:15:00,54.1,54.1,30.14,NNW,348,2.0,12.0,100,0.00,,OVC010,0.00,VWS V14.01,2013-11-20 06:15:00,
2013-11-20 01:16:00,54.1,54.1,30.14,ENE,64,6.0,6.0,100,0.00,,CLR,0.00,VWS V14.01,2013-11-20 06:16:00,
2013-11-20 01:17:00,54.1,54.1,30.13,NNW,348,4.0,6.0,100,0.00,,OVC010,0.00,VWS V14.01,2013-11-20 06:17:00,
2013-11-20 01:18:00,54.1,54.1,30.13,NE,42,10.0,10.0,100,0.00,,OVC010,0.00,VWS V14.01,2013-11-20 06:18:00,
2013-11-20 01:19:00,54.1,54.1,30.13,North,355,4.0,10.0,100,0.00,,OVC010,0.00,VWS V14.01,2013-11-20 06:19:00,
2013-11-20 01:20:00,54.1,54.1,30.13,NW,311,4.0,8.0,100,0.00,,OVC010,0.00,VWS V14.01,2013-11-20 06:20:00,
2013-11-20 01:21:00,54.1,54.1,30.13,NE,51,7.0,10.0,100,0.00,,CLR,0.00,VWS V14.01,2013-11-20 06:21:00,
2013-11-20 01:22:00,54.1,54.1,30.13,North,355,4.0,10.0,100,0.00,,OVC010,0.00,VWS V14.01,2013-11-20 06:22:00,
2013-11-20 01:23:00,54.1,54.1,30.13,NE,51,11.0,13.0,100,0.00,,OVC010,0.00,VWS V14.01,2013-11-20 06:23:00,
2013-11-20 01:24:00,54.1,54.1,30.13,ENE,65,3.0,11.0,100,0.00,,OVC010,0.00,VWS V14.01,2013-11-20 06:24:00,
2013-11-20 01:25:00,54.1,54.1,30.13,NE,38,2.0,4.0,100,0.00,,OVC010,0.00,VWS V14.01,2013-11-20 06:25:00,
2013-11-20 01:26:00,54.1,54.1,30.13,ENE,78,5.0,5.0,100,0.00,,CLR,0.00,VWS V14.01,2013-11-20 06:26:00,
2013-11-20 01:27:00,54.1,54.1,30.13,NNW,331,6.0,6.0,100,0.00,,OVC010,0.00,VWS V14.01,2013-11-20 06:27:00,
2013-11-20 01:28:00,54.1,54.1,30.13,NE,47,6.0,8.0,100,0.00,,OVC010,0.00,VWS V14.01,2013-11-20 06:28:00,
2013-11-20 01:29:00,54.1,54.1,30.13,NNE,33,9.0,11.0,100,0.00,,OVC010,0.00,VWS V14.01,2013-11-20 06:29:00,
2013-11-20 01:30:00,54.1,54.1,30.13,NNE,23,7.0,9.0,100,0.00,,OVC010,0.00,VWS V14.01,2013-11-20 06:30:00,
2013-11-20 01:31:00,54.1,54.1,30.13,NE,49,7.0,9.0,100,0.00,,CLR,0.00,VWS V14.01,2013-11-20 06:31:00,
2013-11-20 01:32:00,54.1,54.1,30.13,NE,36,11.0,11.0,100,0.00,,OVC010,0.00,VWS V14.01,2013-11-20 06:32:00,
2013-11-20 01:33:00,54.1,54.1,30.13,NE,55,3.0,11.0,100,0.00,,OVC010,0.00,VWS V14.01,2013-11-20 06:33:00,
2013-11-20 01:34:00,54.1,54.1,30.13,ENE,57,5.0,6.0,100,0.00,,OVC010,0.00,VWS V14.01,2013-11-20 06:34:00,
2013-11-20 01:35:00,54.1,54.1,30.13,NE,46,14.0,14.0,100,0.00,,OVC010,0.00,VWS V14.01,2013-11-20 06:35:00,
2013-11-20 01:36:00,54.1,54.1,30.13,North,355,5.0,9.0,100,0.00,,CLR,0.00,VWS V14.01,2013-11-20 06:36:00,
2013-11-20 01:37:00,54.1,54.1,30.13,ENE,58,7.0,9.0,100,0.00,,OVC010,0.00,VWS V14.01,2013-11-20 06:37:00,
2013-11-20 01:38:00,54.1,54.1,30.13,ENE,57,10.0,13.0,100,0.00,,OVC010,0.00,VWS V14.01,2013-11-20 06:38:00,
2013-11-20 01:39:00,54.1,54.1,30.13,ENE,67,6.0,20.0,100,0.00,,OVC010,0.00,VWS V14.01,2013-11-20 06:39:00,
2013-11-20 01:40:00,54.1,54.1,30.13,NE,34,4.0,10.0,100,0.00,,OVC010,0.00,VWS V14.01,2013-11-20 06:40:00,
2013-11-20 01:41:00,54.1,54.1,30.13,ENE,78,4.0,6.0,100,0.00,,CLR,0.00,VWS V14.01,2013-11-20 06:41:00,
2013-11-20 01:42:00,54.1,54.1,30.13,NE,44,14.0,14.0,100,0.00,,OVC010,0.00,VWS V14.01,2013-11-20 06:42:00,
2013-11-20 01:43:00,54.1,54.1,30.13,ENE,61,7.0,14.0,100,0.00,,OVC010,0.00,VWS V14.01,2013-11-20 06:43:00,
2013-11-20 01:44:00,54.1,54.1,30.13,NNE,24,5.0,14.0,100,0.00,,OVC010,0.00,VWS V14.01,2013-11-20 06:44:00,
2013-11-20 01:45:00,54.1,54.1,30.13,NE,36,6.0,10.0,100,0.00,,OVC010,0.00,VWS V14.01,2013-11-20 06:45:00,
2013-11-20 01:46:00,54.1,54.1,30.13,NNE,18,5.0,5.0,100,0.00,,CLR,0.00,VWS V14.01,2013-11-20 06:46:00,
2013-11-20 01:47:00,54.1,54.1,30.13,NE,49,4.0,5.0,100,0.00,,OVC010,0.00,VWS V14.01,2013-11-20 06:47:00,
2013-11-20 01:48:00,54.1,54.1,30.13,NE,44,5.0,13.0,100,0.00,,OVC010,0.00,VWS V14.01,2013-11-20 06:48:00,
2013-11-20 01:49:00,54.1,54.1,30.13,NE,47,3.0,11.0,100,0.00,,OVC010,0.00,VWS V14.01,2013-11-20 06:49:00,
2013-11-20 01:50:00,54.1,54.1,30.13,NE,34,5.0,10.0,100,0.00,,OVC010,0.00,VWS V14.01,2013-11-20 06:50:00,
2013-11-20 01:51:00,54.1,54.1,30.13,NNE,13,5.0,5.0,100,0.00,,CLR,0.00,VWS V14.01,2013-11-20 06:51:00,
2013-11-20 01:52:00,53.9,53.9,30.13,ENE,57,3.0,5.0,100,0.00,,OVC010,0.00,VWS V14.01,2013-11-20 06:52:00,
2013-11-20 01:53:00,53.9,53.9,30.13,NNW,336,5.0,5.0,100,0.00,,OVC010,0.00,VWS V14.01,2013-11-20 06:53:00,
2013-11-20 01:54:00,53.9,53.9,30.13,NE,34,2.0,11.0,100,0.00,,OVC010,0.00,VWS V14.01,2013-11-20 06:54:00,
2013-11-20 01:55:00,53.9,53.9,30.13,NE,48,9.0,11.0,100,0.00,,OVC010,0.00,VWS V14.01,2013-11-20 06:55:00,
2013-11-20 01:56:00,54.1,54.1,30.13,NE,46,16.0,16.0,100,0.00,,CLR,0.00,VWS V14.01,2013-11-20 06:56:00,
2013-11-20 01:57:00,54.1,54.1,30.13,NE,47,14.0,16.0,100,0.00,,OVC010,0.00,VWS V14.01,2013-11-20 06:57:00,
2013-11-20 01:58:00,54.1,54.1,30.13,ENE,67,2.0,17.0,100,0.00,,OVC010,0.00,VWS V14.01,2013-11-20 06:58:00,
2013-11-20 01:59:00,54.1,54.1,30.14,North,350,8.0,11.0,100,0.00,,OVC010,0.00,VWS V14.01,2013-11-20 06:59:00,
2013-11-20 02:00:00,54.1,54.1,30.14,ENE,62,5.0,8.0,100,0.00,,OVC010,0.00,VWS V14.01,2013-11-20 07:00:00,
2013-11-20 02:01:00,54.1,54.1,30.13,North,360,5.0,10.0,100,0.00,,CLR,0.00,VWS V14.01,2013-11-20 07:01:00,
2013-11-20 02:02:00,54.1,54.1,30.14,NNE,28,8.0,10.0,100,0.00,,OVC010,0.00,VWS V14.01,2013-11-20 07:02:00,
2013-11-20 02:03:00,54.1,54.1,30.14,NE,44,11.0,13.0,100,0.00,,OVC010,0.00,VWS V14.01,2013-11-20 07:03:00,
2013-11-20 02:04:00,54.1,54.1,30.14,NNE,31,7.0,13.0,100,0.00,,OVC010,0.00,VWS V14.01,2013-11-20 07:04:00,
2013-11-20 02:05:00,54.1,54.1,30.14,NE,49,14.0,16.0,100,0.00,,OVC010,0.00,VWS V14.01,2013-11-20 07:05:00,
2013-11-20 02:06:00,54.1,54.1,30.14,NE,35,9.0,11.0,100,0.00,,CLR,0.00,VWS V14.01,2013-11-20 07:06:00,
2013-11-20 02:07:00,54.1,54.1,30.14,NE,56,5.0,11.0,100,0.00,,OVC010,0.00,VWS V14.01,2013-11-20 07:07:00,
2013-11-20 02:08:00,54.1,54.1,30.13,ENE,68,9.0,14.0,100,0.00,,OVC010,0.00,VWS V14.01,2013-11-20 07:08:00,
2013-11-20 02:09:00,54.1,54.1,30.14,NE,38,7.0,11.0,100,0.00,,OVC010,0.00,VWS V14.01,2013-11-20 07:09:00,
2013-11-20 02:10:00,54.2,54.2,30.14,NE,46,9.0,11.0,100,0.00,,OVC010,0.00,VWS V14.01,2013-11-20 07:10:00,
2013-11-20 02:11:00,54.2,54.2,30.14,North,11,6.0,8.0,100,0.00,,CLR,0.00,VWS V14.01,2013-11-20 07:11:00,
2013-11-20 02:12:00,54.2,54.2,30.14,NE,34,8.0,8.0,100,0.00,,OVC010,0.00,VWS V14.01,2013-11-20 07:12:00,
2013-11-20 02:13:00,54.2,54.2,30.14,ENE,57,3.0,8.0,100,0.00,,OVC010,0.00,VWS V14.01,2013-11-20 07:13:00,
2013-11-20 02:14:00,54.2,54.2,30.14,NE,41,5.0,9.0,100,0.00,,OVC010,0.00,VWS V14.01,2013-11-20 07:14:00,
2013-11-20 02:15:00,54.2,54.2,30.14,NE,52,5.0,11.0,100,0.00,,OVC010,0.00,VWS V14.01,2013-11-20 07:15:00,
2013-11-20 02:16:00,54.2,54.2,30.14,NE,51,11.0,11.0,100,0.00,,CLR,0.00,VWS V14.01,2013-11-20 07:16:00,
2013-11-20 02:17:00,54.2,54.2,30.14,ENE,65,4.0,11.0,100,0.00,,OVC010,0.00,VWS V14.01,2013-11-20 07:17:00,
2013-11-20 02:18:00,54.2,54.2,30.14,ENE,61,7.0,16.0,100,0.00,,OVC010,0.00,VWS V14.01,2013-11-20 07:18:00,
2013-11-20 02:19:00,54.2,54.2,30.14,North,350,10.0,10.0,100,0.00,,OVC010,0.00,VWS V14.01,2013-11-20 07:19:00,
2013-11-20 02:20:00,54.2,54.2,30.14,NE,42,8.0,10.0,100,0.00,,OVC010,0.00,VWS V14.01,2013-11-20 07:20:00,
2013-11-20 02:21:00,54.2,54.2,30.14,NNE,29,7.0,7.0,100,0.00,,CLR,0.00,VWS V14.01,2013-11-20 07:21:00,
2013-11-20 02:22:00,54.2,54.2,30.14,NE,45,11.0,11.0,100,0.00,,OVC010,0.00,VWS V14.01,2013-11-20 07:22:00,
2013-11-20 02:23:00,54.2,54.2,30.14,NE,50,11.0,11.0,100,0.00,,OVC010,0.00,VWS V14.01,2013-11-20 07:23:00,
2013-11-20 02:24:00,54.2,54.2,30.14,NE,52,12.0,14.0,100,0.00,,OVC010,0.00,VWS V14.01,2013-11-20 07:24:00,
2013-11-20 02:25:00,54.2,54.2,30.14,NE,44,17.0,17.0,100,0.00,,OVC010,0.00,VWS V14.01,2013-11-20 07:25:00,
2013-11-20 02:26:00,54.2,54.2,30.14,NE,51,10.0,12.0,100,0.00,,CLR,0.00,VWS V14.01,2013-11-20 07:26:00,
2013-11-20 02:27:00,54.2,54.2,30.14,North,5,11.0,12.0,100,0.00,,OVC010,0.00,VWS V14.01,2013-11-20 07:27:00,
2013-11-20 02:28:00,54.2,54.2,30.14,NNW,331,4.0,11.0,100,0.00,,OVC010,0.00,VWS V14.01,2013-11-20 07:28:00,
2013-11-20 02:29:00,54.2,54.2,30.14,NE,40,11.0,11.0,100,0.00,,OVC010,0.00,VWS V14.01,2013-11-20 07:29:00,
2013-11-20 02:30:00,54.2,54.2,30.14,NNE,31,10.0,14.0,100,0.00,,OVC010,0.00,VWS V14.01,2013-11-20 07:30:00,
2013-11-20 02:31:00,54.2,54.2,30.14,ENE,60,4.0,8.0,100,0.00,,CLR,0.00,VWS V14.01,2013-11-20 07:31:00,
2013-11-20 02:32:00,54.2,54.2,30.14,NNE,30,6.0,14.0,100,0.00,,OVC010,0.00,VWS V14.01,2013-11-20 07:32:00,
2013-11-20 02:33:00,54.2,54.2,30.14,NE,47,14.0,14.0,100,0.00,,OVC010,0.00,VWS V14.01,2013-11-20 07:33:00,
2013-11-20 02:34:00,54.2,54.2,30.14,NNE,14,10.0,14.0,100,0.00,,OVC010,0.00,VWS V14.01,2013-11-20 07:34:00,
2013-11-20 02:35:00,54.2,54.2,30.14,NE,49,6.0,10.0,100,0.00,,OVC010,0.00,VWS V14.01,2013-11-20 07:35:00,
2013-11-20 02:36:00,54.2,54.2,30.14,NNE,12,9.0,9.0,100,0.00,,CLR,0.00,VWS V14.01,2013-11-20 07:36:00,
2013-11-20 02:37:00,54.1,54.1,30.14,NNE,20,5.0,10.0,100,0.00,,OVC010,0.00,VWS V14.01,2013-11-20 07:37:00,
2013-11-20 02:38:00,54.1,54.1,30.14,NE,48,10.0,14.0,100,0.00,,OVC010,0.00,VWS V14.01,2013-11-20 07:38:00,
2013-11-20 02:39:00,54.1,54.1,30.14,NNE,15,5.0,10.0,100,0.00,,OVC010,0.00,VWS V14.01,2013-11-20 07:39:00,
2013-11-20 02:40:00,54.1,54.1,30.14,NE,44,4.0,6.0,100,0.00,,OVC010,0.00,VWS V14.01,2013-11-20 07:40:00,
2013-11-20 02:41:00,54.1,54.1,30.14,North,5,5.0,14.0,100,0.00,,CLR,0.00,VWS V14.01,2013-11-20 07:41:00,
2013-11-20 02:42:00,54.1,54.1,30.14,North,11,2.0,14.0,100,0.00,,OVC010,0.00,VWS V14.01,2013-11-20 07:42:00,
2013-11-20 02:43:00,54.1,54.1,30.14,NE,51,4.0,7.0,100,0.00,,OVC010,0.00,VWS V14.01,2013-11-20 07:43:00,
2013-11-20 02:44:00,54.1,54.1,30.14,North,355,6.0,11.0,100,0.00,,OVC010,0.00,VWS V14.01,2013-11-20 07:44:00,
2013-11-20 02:45:00,54.1,54.1,30.14,NE,48,11.0,12.0,100,0.00,,OVC010,0.00,VWS V14.01,2013-11-20 07:45:00,
2013-11-20 02:46:00,54.1,54.1,30.14,East,80,4.0,13.0,100,0.00,,CLR,0.00,VWS V14.01,2013-11-20 07:46:00,
2013-11-20 02:47:00,54.1,54.1,30.14,NE,53,6.0,13.0,100,0.00,,OVC010,0.00,VWS V14.01,2013-11-20 07:47:00,
2013-11-20 02:48:00,54.1,54.1,30.14,North,355,3.0,6.0,100,0.00,,OVC010,0.00,VWS V14.01,2013-11-20 07:48:00,
2013-11-20 02:49:00,54.1,54.1,30.14,NE,34,6.0,9.0,100,0.00,,OVC010,0.00,VWS V14.01,2013-11-20 07:49:00,
2013-11-20 02:50:00,54.1,54.1,30.14,ENE,58,8.0,8.0,100,0.00,,OVC010,0.00,VWS V14.01,2013-11-20 07:50:00,
2013-11-20 02:51:00,54.1,54.1,30.14,NE,46,9.0,9.0,100,0.00,,CLR,0.00,VWS V14.01,2013-11-20 07:51:00,
2013-11-20 02:52:00,54.1,54.1,30.14,NE,35,6.0,9.0,100,0.00,,OVC010,0.00,VWS V14.01,2013-11-20 07:52:00,
2013-11-20 02:53:00,54.1,54.1,30.14,NNE,23,6.0,8.0,100,0.00,,OVC010,0.00,VWS V14.01,2013-11-20 07:53:00,
2013-11-20 02:54:00,54.1,54.1,30.14,ENE,76,3.0,13.0,100,0.00,,OVC010,0.00,VWS V14.01,2013-11-20 07:54:00,
2013-11-20 02:55:00,53.9,53.9,30.14,NNE,17,5.0,9.0,100,0.00,,OVC010,0.00,VWS V14.01,2013-11-20 07:55:00,
2013-11-20 02:56:00,53.9,53.9,30.14,NNE,28,7.0,11.0,100,0.00,,CLR,0.00,VWS V14.01,2013-11-20 07:56:00,
2013-11-20 02:57:00,53.9,53.9,30.14,NE,52,3.0,11.0,100,0.00,,OVC010,0.00,VWS V14.01,2013-11-20 07:57:00,
2013-11-20 02:58:00,53.9,53.9,30.14,North,5,10.0,10.0,100,0.00,,OVC010,0.00,VWS V14.01,2013-11-20 07:58:00,
2013-11-20 02:59:00,53.9,53.9,30.14,ENE,62,11.0,11.0,100,0.00,,OVC010,0.00,VWS V14.01,2013-11-20 07:59:00,
2013-11-20 03:00:00,53.9,53.9,30.14,NE,51,13.0,16.0,100,0.00,,OVC010,0.00,VWS V14.01,2013-11-20 08:00:00,
2013-11-20 03:01:00,53.8,53.8,30.14,NE,48,5.0,18.0,100,0.00,,CLR,0.00,VWS V14.01,2013-11-20 08:01:00,
2013-11-20 03:02:00,53.8,53.8,30.14,East,80,5.0,18.0,100,0.00,,OVC010,0.00,VWS V14.01,2013-11-20 08:02:00,
2013-11-20 03:03:00,53.8,53.8,30.14,NW,325,10.0,12.0,100,0.00,,OVC010,0.00,VWS V14.01,2013-11-20 08:03:00,
2013-11-20 03:04:00,53.8,53.8,30.14,NE,50,11.0,14.0,100,0.00,,OVC010,0.00,VWS V14.01,2013-11-20 08:04:00,
2013-11-20 03:05:00,53.8,53.8,30.14,NNE,15,7.0,16.0,100,0.00,,OVC010,0.00,VWS V14.01,2013-11-20 08:05:00,
2013-11-20 03:06:00,53.8,53.8,30.14,NNE,19,6.0,10.0,100,0.00,,CLR,0.00,VWS V14.01,2013-11-20 08:06:00,
2013-11-20 03:07:00,53.8,53.8,30.14,NNW,327,10.0,11.0,100,0.00,,OVC010,0.00,VWS V14.01,2013-11-20 08:07:00,
2013-11-20 03:08:00,53.8,53.8,30.14,NE,35,11.0,11.0,100,0.00,,OVC010,0.00,VWS V14.01,2013-11-20 08:08:00,
2013-11-20 03:09:00,53.8,53.8,30.14,NE,39,15.0,15.0,100,0.00,,OVC010,0.00,VWS V14.01,2013-11-20 08:09:00,
2013-11-20 03:10:00,53.8,53.8,30.14,NE,55,11.0,15.0,100,0.00,,OVC010,0.00,VWS V14.01,2013-11-20 08:10:00,
2013-11-20 03:11:00,53.8,53.8,30.14,NE,34,5.0,10.0,100,0.00,,CLR,0.00,VWS V14.01,2013-11-20 08:11:00,
2013-11-20 03:12:00,53.8,53.8,30.14,North,5,9.0,11.0,100,0.00,,OVC010,0.00,VWS V14.01,2013-11-20 08:12:00,
2013-11-20 03:13:00,53.8,53.8,30.14,NE,54,13.0,18.0,100,0.00,,OVC010,0.00,VWS V14.01,2013-11-20 08:13:00,
2013-11-20 03:14:00,53.8,53.8,30.14,East,81,10.0,13.0,100,0.00,,OVC010,0.00,VWS V14.01,2013-11-20 08:14:00,
2013-11-20 03:15:00,53.8,53.8,30.14,ENE,67,8.0,12.0,100,0.00,,OVC010,0.00,VWS V14.01,2013-11-20 08:15:00,
2013-11-20 03:16:00,53.8,53.8,30.14,NE,37,16.0,16.0,100,0.00,,CLR,0.00,VWS V14.01,2013-11-20 08:16:00,
2013-11-20 03:17:00,53.8,53.8,30.14,North,9,13.0,16.0,100,0.00,,OVC010,0.00,VWS V14.01,2013-11-20 08:17:00,
2013-11-20 03:18:00,53.8,53.8,30.14,ENE,58,13.0,15.0,100,0.00,,OVC010,0.00,VWS V14.01,2013-11-20 08:18:00,
2013-11-20 03:19:00,53.8,53.8,30.14,NE,50,4.0,14.0,100,0.00,,OVC010,0.00,VWS V14.01,2013-11-20 08:19:00,
2013-11-20 03:20:00,53.8,53.8,30.14,NNE,28,4.0,6.0,100,0.00,,OVC010,0.00,VWS V14.01,2013-11-20 08:20:00,
2013-11-20 03:21:00,53.8,53.8,30.15,NNE,27,16.0,16.0,100,0.00,,CLR,0.00,VWS V14.01,2013-11-20 08:21:00,
2013-11-20 03:22:00,53.8,53.8,30.15,NE,41,8.0,16.0,100,0.00,,OVC010,0.00,VWS V14.01,2013-11-20 08:22:00,
2013-11-20 03:23:00,53.8,53.8,30.14,NE,52,5.0,17.0,100,0.00,,OVC010,0.00,VWS V14.01,2013-11-20 08:23:00,
2013-11-20 03:24:00,53.8,53.8,30.14,North,360,6.0,10.0,100,0.00,,OVC010,0.00,VWS V14.01,2013-11-20 08:24:00,
2013-11-20 03:25:00,53.8,53.8,30.14,NE,51,17.0,17.0,100,0.00,,OVC010,0.00,VWS V14.01,2013-11-20 08:25:00,
2013-11-20 03:26:00,53.8,53.8,30.14,NNE,32,19.0,19.0,100,0.00,,CLR,0.00,VWS V14.01,2013-11-20 08:26:00,
2013-11-20 03:27:00,53.8,53.8,30.14,NE,54,5.0,19.0,100,0.00,,OVC010,0.00,VWS V14.01,2013-11-20 08:27:00,
2013-11-20 03:28:00,53.8,53.8,30.14,NE,51,11.0,12.0,100,0.00,,OVC010,0.00,VWS V14.01,2013-11-20 08:28:00,
2013-11-20 03:29:00,53.8,53.8,30.14,NNE,24,6.0,12.0,100,0.00,,OVC010,0.00,VWS V14.01,2013-11-20 08:29:00,
2013-11-20 03:30:00,53.8,53.8,30.14,ENE,63,3.0,6.0,100,0.00,,OVC010,0.00,VWS V14.01,2013-11-20 08:30:00,
2013-11-20 03:31:00,53.8,53.8,30.15,NE,51,4.0,15.0,100,0.00,,CLR,0.00,VWS V14.01,2013-11-20 08:31:00,
2013-11-20 03:32:00,53.8,53.8,30.15,NE,40,7.0,15.0,100,0.00,,OVC010,0.00,VWS V14.01,2013-11-20 08:32:00,
2013-11-20 03:33:00,53.8,53.8,30.15,North,5,1.0,10.0,100,0.00,,OVC013,0.00,VWS V14.01,2013-11-20 08:33:00,
2013-11-20 03:34:00,53.8,53.8,30.15,NNE,32,14.0,14.0,100,0.00,,OVC010,0.00,VWS V14.01,2013-11-20 08:34:00,
2013-11-20 03:35:00,53.8,53.8,30.15,NNE,23,6.0,16.0,100,0.00,,OVC010,0.00,VWS V14.01,2013-11-20 08:35:00,
2013-11-20 03:36:00,53.8,53.8,30.15,NE,42,9.0,9.0,100,0.00,,CLR,0.00,VWS V14.01,2013-11-20 08:36:00,
2013-11-20 03:37:00,53.8,53.8,30.15,NE,49,14.0,14.0,100,0.00,,OVC010,0.00,VWS V14.01,2013-11-20 08:37:00,
2013-11-20 03:38:00,53.9,53.9,30.15,NNE,25,3.0,14.0,100,0.00,,OVC010,0.00,VWS V14.01,2013-11-20 08:38:00,
2013-11-20 03:39:00,53.9,53.9,30.15,NNE,17,8.0,17.0,100,0.00,,OVC010,0.00,VWS V14.01,2013-11-20 08:39:00,
2013-11-20 03:40:00,53.9,53.9,30.15,NE,38,6.0,8.0,100,0.00,,OVC010,0.00,VWS V14.01,2013-11-20 08:40:00,
2013-11-20 03:41:00,53.9,53.9,30.15,North,355,7.0,7.0,100,0.00,,CLR,0.00,VWS V14.01,2013-11-20 08:41:00,
2013-11-20 03:42:00,53.9,53.9,30.15,NNE,32,7.0,7.0,100,0.00,,OVC010,0.00,VWS V14.01,2013-11-20 08:42:00,
2013-11-20 03:43:00,53.9,53.9,30.15,NE,51,6.0,16.0,100,0.00,,OVC010,0.00,VWS V14.01,2013-11-20 08:43:00,
2013-11-20 03:44:00,53.9,53.9,30.15,ENE,69,9.0,22.0,100,0.00,,OVC010,0.00,VWS V14.01,2013-11-20 08:44:00,
2013-11-20 03:45:00,53.9,53.9,30.14,NNW,327,9.0,11.0,100,0.00,,OVC010,0.00,VWS V14.01,2013-11-20 08:45:00,
2013-11-20 03:46:00,53.9,53.9,30.14,NE,43,12.0,12.0,100,0.00,,CLR,0.00,VWS V14.01,2013-11-20 08:46:00,
2013-11-20 03:47:00,53.9,53.9,30.14,NNE,13,15.0,15.0,100,0.00,,OVC010,0.00,VWS V14.01,2013-11-20 08:47:00,
2013-11-20 03:48:00,53.9,53.9,30.15,East,80,3.0,15.0,100,0.00,,OVC010,0.00,VWS V14.01,2013-11-20 08:48:00,
2013-11-20 03:49:00,53.9,53.9,30.15,ENE,63,9.0,13.0,100,0.00,,OVC010,0.00,VWS V14.01,2013-11-20 08:49:00,
2013-11-20 03:50:00,53.9,53.9,30.15,NE,35,8.0,13.0,100,0.00,,OVC010,0.00,VWS V14.01,2013-11-20 08:50:00,
2013-11-20 03:51:00,53.9,53.9,30.15,NW,321,8.0,15.0,100,0.00,,CLR,0.00,VWS V14.01,2013-11-20 08:51:00,
2013-11-20 03:52:00,53.9,53.9,30.15,NNE,12,15.0,15.0,100,0.00,,OVC013,0.00,VWS V14.01,2013-11-20 08:52:00,
2013-11-20 03:53:00,53.9,53.9,30.15,NNE,30,7.0,15.0,100,0.00,,OVC010,0.00,VWS V14.01,2013-11-20 08:53:00,
2013-11-20 03:54:00,53.9,53.9,30.15,NNW,340,9.0,11.0,100,0.00,,OVC010,0.00,VWS V14.01,2013-11-20 08:54:00,
2013-11-20 03:55:00,53.9,53.9,30.15,NE,50,7.0,15.0,100,0.00,,OVC013,0.00,VWS V14.01,2013-11-20 08:55:00,
2013-11-20 03:56:00,53.9,53.9,30.14,ENE,74,11.0,12.0,100,0.00,,CLR,0.00,VWS V14.01,2013-11-20 08:56:00,
2013-11-20 03:57:00,53.9,53.9,30.14,NNE,23,6.0,12.0,100,0.00,,OVC010,0.00,VWS V14.01,2013-11-20 08:57:00,
2013-11-20 03:58:00,53.9,53.9,30.15,NNW,345,13.0,13.0,100,0.00,,OVC010,0.00,VWS V14.01,2013-11-20 08:58:00,
2013-11-20 03:59:00,53.9,53.9,30.15,North,5,5.0,15.0,100,0.00,,OVC010,0.00,VWS V14.01,2013-11-20 08:59:00,
2013-11-20 04:00:00,53.9,53.9,30.15,NE,53,6.0,10.0,100,0.00,,OVC010,0.00,VWS V14.01,2013-11-20 09:00:00,
2013-11-20 04:01:00,53.9,53.9,30.15,NE,49,6.0,6.0,100,0.00,,CLR,0.00,VWS V14.01,2013-11-20 09:01:00,
2013-11-20 04:02:00,53.9,53.9,30.15,ENE,61,5.0,12.0,100,0.00,,OVC010,0.00,VWS V14.01,2013-11-20 09:02:00,
2013-11-20 04:03:00,53.9,53.9,30.15,NE,46,5.0,6.0,100,0.00,,OVC010,0.00,VWS V14.01,2013-11-20 09:03:00,
2013-11-20 04:04:00,53.8,53.8,30.15,NE,47,5.0,13.0,100,0.00,,OVC010,0.00,VWS V14.01,2013-11-20 09:04:00,
2013-11-20 04:05:00,53.8,53.8,30.15,NE,34,8.0,14.0,100,0.00,,OVC010,0.00,VWS V14.01,2013-11-20 09:05:00,
2013-11-20 04:06:00,53.8,53.8,30.15,North,5,5.0,11.0,100,0.00,,CLR,0.00,VWS V14.01,2013-11-20 09:06:00,
2013-11-20 04:07:00,53.8,53.8,30.15,NE,40,13.0,17.0,100,0.00,,OVC010,0.00,VWS V14.01,2013-11-20 09:07:00,
2013-11-20 04:08:00,53.8,53.8,30.15,NE,50,7.0,13.0,100,0.00,,OVC013,0.00,VWS V14.01,2013-11-20 09:08:00,
2013-11-20 04:09:00,53.8,53.8,30.15,ENE,63,12.0,16.0,100,0.00,,OVC010,0.00,VWS V14.01,2013-11-20 09:09:00,
2013-11-20 04:10:00,53.8,53.8,30.15,NNE,23,5.0,16.0,100,0.00,,OVC010,0.00,VWS V14.01,2013-11-20 09:10:00,
2013-11-20 04:11:00,53.8,53.8,30.14,NE,51,17.0,17.0,100,0.00,,CLR,0.00,VWS V14.01,2013-11-20 09:11:00,
2013-11-20 04:12:00,53.8,53.8,30.14,ENE,57,17.0,17.0,100,0.00,,OVC010,0.00,VWS V14.01,2013-11-20 09:12:00,
2013-11-20 04:13:00,53.8,53.8,30.14,NNE,15,10.0,17.0,100,0.00,,OVC010,0.00,VWS V14.01,2013-11-20 09:13:00,
2013-11-20 04:14:00,53.8,53.8,30.14,ENE,72,6.0,12.0,100,0.00,,OVC010,0.00,VWS V14.01,2013-11-20 09:14:00,
2013-11-20 04:15:00,53.8,53.8,30.15,ENE,61,6.0,12.0,100,0.00,,OVC010,0.00,VWS V14.01,2013-11-20 09:15:00,
2013-11-20 04:16:00,53.8,53.8,30.15,NE,44,11.0,14.0,100,0.00,,CLR,0.00,VWS V14.01,2013-11-20 09:16:00,
2013-11-20 04:17:00,53.8,53.8,30.15,NE,49,7.0,14.0,100,0.00,,OVC010,0.00,VWS V14.01,2013-11-20 09:17:00,
2013-11-20 04:18:00,53.8,53.8,30.14,NE,39,6.0,18.0,100,0.00,,OVC010,0.00,VWS V14.01,2013-11-20 09:18:00,
2013-11-20 04:19:00,53.8,53.8,30.14,ENE,65,7.0,13.0,100,0.00,,OVC010,0.00,VWS V14.01,2013-11-20 09:19:00,
2013-11-20 04:20:00,53.6,53.6,30.15,NE,51,12.0,12.0,100,0.00,,OVC010,0.00,VWS V14.01,2013-11-20 09:20:00,
2013-11-20 04:21:00,53.6,53.6,30.14,NE,38,7.0,18.0,100,0.00,,CLR,0.00,VWS V14.01,2013-11-20 09:21:00,
2013-11-20 04:22:00,53.6,53.6,30.14,North,360,6.0,18.0,100,0.00,,OVC010,0.00,VWS V14.01,2013-11-20 09:22:00,
2013-11-20 04:23:00,53.6,53.6,30.15,NNE,24,14.0,14.0,100,0.00,,OVC010,0.00,VWS V14.01,2013-11-20 09:23:00,
2013-11-20 04:24:00,53.6,53.6,30.15,ENE,67,5.0,14.0,100,0.00,,OVC010,0.00,VWS V14.01,2013-11-20 09:24:00,
2013-11-20 04:25:00,53.6,53.6,30.15,ENE,57,9.0,11.0,100,0.00,,OVC010,0.00,VWS V14.01,2013-11-20 09:25:00,
2013-11-20 04:26:00,53.6,53.6,30.15,NE,49,15.0,15.0,100,0.00,,CLR,0.00,VWS V14.01,2013-11-20 09:26:00,
2013-11-20 04:27:00,53.6,53.6,30.15,ENE,69,8.0,15.0,100,0.00,,OVC010,0.00,VWS V14.01,2013-11-20 09:27:00,
2013-11-20 04:28:00,53.6,53.6,30.15,NE,55,13.0,13.0,100,0.00,,OVC010,0.00,VWS V14.01,2013-11-20 09:28:00,
2013-11-20 04:29:00,53.6,53.6,30.15,NE,36,12.0,13.0,100,0.00,,OVC010,0.00,VWS V14.01,2013-11-20 09:29:00,
2013-11-20 04:30:00,53.5,53.5,30.15,North,350,11.0,12.0,100,0.00,,OVC010,0.00,VWS V14.01,2013-11-20 09:30:00,
2013-11-20 04:31:00,53.5,53.5,30.15,NE,52,5.0,10.0,100,0.00,,CLR,0.00,VWS V14.01,2013-11-20 09:31:00,
2013-11-20 04:32:00,53.5,53.5,30.15,ENE,57,6.0,16.0,100,0.00,,OVC010,0.00,VWS V14.01,2013-11-20 09:32:00,
2013-11-20 04:33:00,53.5,53.5,30.15,NE,52,11.0,11.0,100,0.00,,OVC010,0.00,VWS V14.01,2013-11-20 09:33:00,
2013-11-20 04:34:00,53.5,53.5,30.15,NE,45,9.0,16.0,100,0.00,,OVC010,0.00,VWS V14.01,2013-11-20 09:34:00,
2013-11-20 04:35:00,53.5,53.5,30.15,NE,51,6.0,9.0,100,0.00,,OVC010,0.00,VWS V14.01,2013-11-20 09:35:00,
2013-11-20 04:36:00,53.5,53.5,30.15,ENE,74,4.0,5.0,100,0.00,,SCT055,0.00,VWS V14.01,2013-11-20 09:36:00,
2013-11-20 04:37:00,53.5,53.5,30.15,NE,46,10.0,10.0,100,0.00,,OVC010,0.00,VWS V14.01,2013-11-20 09:37:00,
2013-11-20 04:38:00,53.5,53.5,30.15,NE,48,5.0,20.0,100,0.00,,OVC010,0.00,VWS V14.01,2013-11-20 09:38:00,
2013-11-20 04:39:00,53.5,53.5,30.15,NNW,328,7.0,13.0,100,0.00,,OVC010,0.00,VWS V14.01,2013-11-20 09:39:00,
2013-11-20 04:40:00,53.3,53.3,30.15,NE,42,13.0,13.0,100,0.00,,OVC010,0.00,VWS V14.01,2013-11-20 09:40:00,
2013-11-20 04:41:00,53.3,53.3,30.15,ENE,59,11.0,11.0,100,0.00,,SCT055,0.00,VWS V14.01,2013-11-20 09:41:00,
2013-11-20 04:42:00,53.3,53.3,30.15,NNE,31,17.0,17.0,100,0.00,,OVC010,0.00,VWS V14.01,2013-11-20 09:42:00,
2013-11-20 04:43:00,53.3,53.3,30.15,NE,35,6.0,17.0,100,0.00,,OVC010,0.00,VWS V14.01,2013-11-20 09:43:00,
2013-11-20 04:44:00,53.3,53.3,30.15,NE,41,5.0,11.0,100,0.00,,OVC010,0.00,VWS V14.01,2013-11-20 09:44:00,
2013-11-20 04:45:00,53.3,53.3,30.16,NE,36,4.0,8.0,100,0.00,,OVC010,0.00,VWS V14.01,2013-11-20 09:45:00,
2013-11-20 04:46:00,53.3,53.3,30.16,ENE,62,11.0,12.0,100,0.00,,SCT055,0.00,VWS V14.01,2013-11-20 09:46:00,
2013-11-20 04:47:00,53.3,53.3,30.16,North,5,10.0,12.0,100,0.00,,OVC010,0.00,VWS V14.01,2013-11-20 09:47:00,
2013-11-20 04:48:00,53.2,53.2,30.16,ENE,57,10.0,12.0,100,0.00,,OVC010,0.00,VWS V14.01,2013-11-20 09:48:00,
2013-11-20 04:49:00,53.2,53.2,30.16,NE,38,6.0,10.0,100,0.00,,OVC010,0.00,VWS V14.01,2013-11-20 09:49:00,
2013-11-20 04:50:00,53.2,53.2,30.16,NE,53,6.0,12.0,100,0.00,,OVC010,0.00,VWS V14.01,2013-11-20 09:50:00,
2013-11-20 04:51:00,53.2,53.2,30.16,ENE,74,5.0,6.0,100,0.00,,SCT055,0.00,VWS V14.01,2013-11-20 09:51:00,
2013-11-20 04:52:00,53.2,53.2,30.16,NNW,348,6.0,14.0,100,0.00,,OVC010,0.00,VWS V14.01,2013-11-20 09:52:00,
2013-11-20 04:53:00,53.2,53.2,30.16,NE,49,10.0,10.0,100,0.00,,OVC010,0.00,VWS V14.01,2013-11-20 09:53:00,
2013-11-20 04:54:00,53.1,53.1,30.16,NE,44,8.0,15.0,100,0.00,,OVC010,0.00,VWS V14.01,2013-11-20 09:54:00,
2013-11-20 04:55:00,53.1,53.1,30.16,NE,44,14.0,14.0,100,0.00,,OVC010,0.00,VWS V14.01,2013-11-20 09:55:00,
2013-11-20 04:56:00,53.1,53.1,30.16,ENE,60,9.0,11.0,100,0.00,,SCT055,0.00,VWS V14.01,2013-11-20 09:56:00,
2013-11-20 04:57:00,53.1,53.1,30.16,ENE,76,6.0,15.0,100,0.00,,OVC010,0.00,VWS V14.01,2013-11-20 09:57:00,
2013-11-20 04:58:00,53.1,53.1,30.16,NNE,21,7.0,8.0,100,0.00,,OVC010,0.00,VWS V14.01,2013-11-20 09:58:00,
2013-11-20 04:59:00,53.1,53.1,30.16,North,360,7.0,7.0,100,0.00,,OVC010,0.00,VWS V14.01,2013-11-20 09:59:00,
2013-11-20 05:00:00,53.1,53.1,30.16,ENE,62,7.0,7.0,100,0.00,,OVC010,0.00,VWS V14.01,2013-11-20 10:00:00,
2013-11-20 05:01:00,53.1,53.1,30.16,NE,54,6.0,6.0,100,0.00,,SCT055,0.00,VWS V14.01,2013-11-20 10:01:00,
2013-11-20 05:02:00,53.1,53.1,30.16,NE,46,3.0,6.0,100,0.00,,OVC010,0.00,VWS V14.01,2013-11-20 10:02:00,
2013-11-20 05:03:00,52.9,52.9,30.16,ENE,67,6.0,13.0,100,0.00,,OVC010,0.00,VWS V14.01,2013-11-20 10:03:00,
2013-11-20 05:04:00,52.9,52.9,30.16,NNW,346,7.0,9.0,100,0.00,,OVC010,0.00,VWS V14.01,2013-11-20 10:04:00,
2013-11-20 05:05:00,52.9,52.9,30.17,NNE,28,6.0,13.0,100,0.00,,OVC010,0.00,VWS V14.01,2013-11-20 10:05:00,
2013-11-20 05:06:00,52.9,52.9,30.17,NE,39,11.0,11.0,100,0.00,,SCT055,0.00,VWS V14.01,2013-11-20 10:06:00,
2013-11-20 05:07:00,52.9,52.9,30.17,NNE,17,7.0,11.0,100,0.00,,OVC010,0.00,VWS V14.01,2013-11-20 10:07:00,
2013-11-20 05:08:00,52.9,52.9,30.16,NE,43,11.0,14.0,100,0.00,,OVC010,0.00,VWS V14.01,2013-11-20 10:08:00,
2013-11-20 05:09:00,52.9,52.9,30.16,ENE,63,10.0,11.0,100,0.00,,OVC010,0.00,VWS V14.01,2013-11-20 10:09:00,
2013-11-20 05:10:00,52.9,52.9,30.16,NNE,30,6.0,10.0,100,0.00,,OVC010,0.00,VWS V14.01,2013-11-20 10:10:00,
2013-11-20 05:11:00,52.9,52.9,30.16,North,355,7.0,10.0,100,0.00,,SCT055,0.00,VWS V14.01,2013-11-20 10:11:00,
2013-11-20 05:12:00,52.9,52.9,30.16,ENE,74,11.0,11.0,100,0.00,,OVC010,0.00,VWS V14.01,2013-11-20 10:12:00,
2013-11-20 05:13:00,52.9,52.9,30.17,NE,54,6.0,13.0,100,0.00,,OVC010,0.00,VWS V14.01,2013-11-20 10:13:00,
2013-11-20 05:14:00,52.8,52.8,30.17,NE,38,3.0,11.0,100,0.00,,OVC010,0.00,VWS V14.01,2013-11-20 10:14:00,
2013-11-20 05:15:00,52.8,52.8,30.17,NNE,30,7.0,11.0,100,0.00,,OVC010,0.00,VWS V14.01,2013-11-20 10:15:00,
2013-11-20 05:16:00,52.8,52.8,30.17,North,11,2.0,12.0,100,0.00,,SCT055,0.00,VWS V14.01,2013-11-20 10:16:00,
2013-11-20 05:17:00,52.8,52.8,30.17,East,84,6.0,12.0,100,0.00,,OVC010,0.00,VWS V14.01,2013-11-20 10:17:00,
2013-11-20 05:18:00,52.8,52.8,30.17,NE,55,4.0,12.0,100,0.00,,OVC010,0.00,VWS V14.01,2013-11-20 10:18:00,
2013-11-20 05:19:00,52.8,52.8,30.17,NE,44,10.0,10.0,100,0.00,,OVC010,0.00,VWS V14.01,2013-11-20 10:19:00,
2013-11-20 05:20:00,52.8,52.8,30.16,North,11,7.0,10.0,100,0.00,,OVC010,0.00,VWS V14.01,2013-11-20 10:20:00,
2013-11-20 05:21:00,52.6,52.6,30.17,ENE,61,3.0,9.0,100,0.00,,SCT055,0.00,VWS V14.01,2013-11-20 10:21:00,
2013-11-20 05:22:00,52.6,52.6,30.17,NE,38,11.0,16.0,100,0.00,,OVC010,0.00,VWS V14.01,2013-11-20 10:22:00,
2013-11-20 05:23:00,52.6,52.6,30.17,NNW,338,9.0,11.0,100,0.00,,OVC010,0.00,VWS V14.01,2013-11-20 10:23:00,
2013-11-20 05:24:00,52.6,52.6,30.17,NE,53,11.0,19.0,100,0.00,,OVC010,0.00,VWS V14.01,2013-11-20 10:24:00,
2013-11-20 05:25:00,52.6,52.6,30.17,ENE,57,9.0,17.0,100,0.00,,OVC010,0.00,VWS V14.01,2013-11-20 10:25:00,
2013-11-20 05:26:00,52.6,52.6,30.17,NE,38,4.0,4.0,100,0.00,,SCT055,0.00,VWS V14.01,2013-11-20 10:26:00,
2013-11-20 05:27:00,52.6,52.6,30.17,NE,44,8.0,11.0,100,0.00,,OVC010,0.00,VWS V14.01,2013-11-20 10:27:00,
2013-11-20 05:28:00,52.6,52.6,30.16,NE,43,10.0,11.0,100,0.00,,OVC010,0.00,VWS V14.01,2013-11-20 10:28:00,
2013-11-20 05:29:00,52.6,52.6,30.16,NE,44,5.0,15.0,100,0.00,,OVC010,0.00,VWS V14.01,2013-11-20 10:29:00,
2013-11-20 05:30:00,52.5,52.5,30.17,NNE,17,11.0,11.0,100,0.00,,OVC010,0.00,VWS V14.01,2013-11-20 10:30:00,
2013-11-20 05:31:00,52.5,52.5,30.17,North,5,9.0,13.0,100,0.00,,SCT055,0.00,VWS V14.01,2013-11-20 10:31:00,
2013-11-20 05:32:00,52.5,52.5,30.17,NE,40,4.0,13.0,100,0.00,,OVC010,0.00,VWS V14.01,2013-11-20 10:32:00,
2013-11-20 05:33:00,52.5,52.5,30.17,NE,49,2.0,11.0,100,0.00,,OVC010,0.00,VWS V14.01,2013-11-20 10:33:00,
2013-11-20 05:34:00,52.5,52.5,30.17,NE,34,5.0,6.0,100,0.00,,OVC010,0.00,VWS V14.01,2013-11-20 10:34:00,
2013-11-20 05:35:00,52.5,52.5,30.17,ENE,57,10.0,12.0,100,0.00,,OVC010,0.00,VWS V14.01,2013-11-20 10:35:00,
2013-11-20 05:36:00,52.5,52.5,30.17,North,360,4.0,11.0,100,0.00,,CLR,0.00,VWS V14.01,2013-11-20 10:36:00,
2013-11-20 05:37:00,52.5,52.5,30.17,ENE,62,16.0,16.0,100,0.00,,OVC010,0.00,VWS V14.01,2013-11-20 10:37:00,
2013-11-20 05:38:00,52.5,52.5,30.17,NE,50,8.0,16.0,100,0.00,,OVC010,0.00,VWS V14.01,2013-11-20 10:38:00,
2013-11-20 05:39:00,52.5,52.5,30.17,NE,37,14.0,14.0,100,0.00,,OVC010,0.00,VWS V14.01,2013-11-20 10:39:00,
2013-11-20 05:40:00,52.5,52.5,30.17,NE,46,13.0,14.0,100,0.00,,OVC010,0.00,VWS V14.01,2013-11-20 10:40:00,
2013-11-20 05:41:00,52.3,52.3,30.17,ENE,72,6.0,6.0,100,0.00,,CLR,0.00,VWS V14.01,2013-11-20 10:41:00,
2013-11-20 05:42:00,52.3,52.3,30.17,NE,51,4.0,7.0,100,0.00,,OVC010,0.00,VWS V14.01,2013-11-20 10:42:00,
2013-11-20 05:43:00,52.3,52.3,30.17,NE,42,4.0,4.0,100,0.00,,OVC010,0.00,VWS V14.01,2013-11-20 10:43:00,
2013-11-20 05:44:00,52.3,52.3,30.17,NNW,346,6.0,7.0,100,0.00,,OVC010,0.00,VWS V14.01,2013-11-20 10:44:00,
2013-11-20 05:45:00,52.3,52.3,30.17,NNE,19,7.0,7.0,100,0.00,,OVC010,0.00,VWS V14.01,2013-11-20 10:45:00,
2013-11-20 05:46:00,52.3,52.3,30.17,NNE,15,13.0,13.0,100,0.00,,CLR,0.00,VWS V14.01,2013-11-20 10:46:00,
2013-11-20 05:47:00,52.3,52.3,30.17,NE,53,9.0,13.0,100,0.00,,OVC010,0.00,VWS V14.01,2013-11-20 10:47:00,
2013-11-20 05:48:00,52.3,52.3,30.17,NNE,28,4.0,9.0,100,0.00,,OVC010,0.00,VWS V14.01,2013-11-20 10:48:00,
2013-11-20 05:49:00,52.2,52.2,30.17,ENE,64,3.0,10.0,100,0.00,,OVC010,0.00,VWS V14.01,2013-11-20 10:49:00,
2013-11-20 05:50:00,52.2,52.2,30.17,NE,45,5.0,6.0,100,0.00,,OVC010,0.00,VWS V14.01,2013-11-20 10:50:00,
2013-11-20 05:51:00,52.2,52.2,30.17,NNE,28,7.0,9.0,100,0.00,,CLR,0.00,VWS V14.01,2013-11-20 10:51:00,
2013-11-20 05:52:00,52.2,52.2,30.17,NE,41,1.0,9.0,100,0.00,,OVC010,0.00,VWS V14.01,2013-11-20 10:52:00,
2013-11-20 05:53:00,52.2,52.2,30.17,NNW,331,6.0,12.0,100,0.00,,OVC010,0.00,VWS V14.01,2013-11-20 10:53:00,
2013-11-20 05:54:00,52.2,52.2,30.17,NNE,24,6.0,13.0,100,0.00,,OVC010,0.00,VWS V14.01,2013-11-20 10:54:00,
2013-11-20 05:55:00,52.2,52.2,30.17,ENE,69,16.0,16.0,100,0.00,,OVC010,0.00,VWS V14.01,2013-11-20 10:55:00,
2013-11-20 05:56:00,52.2,52.2,30.18,ENE,69,5.0,7.0,100,0.00,,CLR,0.00,VWS V14.01,2013-11-20 10:56:00,
2013-11-20 05:57:00,52.2,52.2,30.18,NE,36,11.0,11.0,100,0.00,,OVC010,0.00,VWS V14.01,2013-11-20 10:57:00,
2013-11-20 05:58:00,52.2,52.2,30.18,ENE,61,5.0,12.0,100,0.00,,OVC010,0.00,VWS V14.01,2013-11-20 10:58:00,
2013-11-20 05:59:00,52.2,52.2,30.18,NE,42,13.0,13.0,100,0.00,,OVC010,0.00,VWS V14.01,2013-11-20 10:59:00,
2013-11-20 06:00:00,52.2,52.2,30.18,NNE,13,12.0,13.0,100,0.00,,OVC010,0.00,VWS V14.01,2013-11-20 11:00:00,
2013-11-20 06:01:00,52.2,52.2,30.18,NE,51,9.0,9.0,100,0.00,,CLR,0.00,VWS V14.01,2013-11-20 11:01:00,
2013-11-20 06:02:00,52.2,52.2,30.18,NE,45,6.0,14.0,100,0.00,,OVC010,0.00,VWS V14.01,2013-11-20 11:02:00,
2013-11-20 06:03:00,52.2,52.2,30.18,NW,310,6.0,6.0,100,0.00,,OVC010,0.00,VWS V14.01,2013-11-20 11:03:00,
2013-11-20 06:04:00,52.2,52.2,30.18,NE,53,4.0,9.0,100,0.00,,OVC010,0.00,VWS V14.01,2013-11-20 11:04:00,
2013-11-20 06:05:00,52.0,52.0,30.18,ENE,58,4.0,14.0,100,0.00,,OVC010,0.00,VWS V14.01,2013-11-20 11:05:00,
2013-11-20 06:06:00,52.0,52.0,30.18,NE,46,12.0,15.0,100,0.00,,CLR,0.00,VWS V14.01,2013-11-20 11:06:00,
2013-11-20 06:07:00,52.0,52.0,30.18,NNE,28,5.0,15.0,100,0.00,,OVC010,0.00,VWS V14.01,2013-11-20 11:07:00,
2013-11-20 06:08:00,52.0,52.0,30.18,NNE,26,5.0,9.0,100,0.00,,OVC010,0.00,VWS V14.01,2013-11-20 11:08:00,
2013-11-20 06:09:00,52.0,52.0,30.17,NE,52,4.0,10.0,100,0.00,,OVC010,0.00,VWS V14.01,2013-11-20 11:09:00,
2013-11-20 06:10:00,52.0,52.0,30.18,NNW,329,10.0,11.0,100,0.00,,OVC010,0.00,VWS V14.01,2013-11-20 11:10:00,
2013-11-20 06:11:00,52.0,52.0,30.17,NNE,17,4.0,11.0,100,0.00,,CLR,0.00,VWS V14.01,2013-11-20 11:11:00,
2013-11-20 06:12:00,52.0,52.0,30.17,NE,53,11.0,11.0,100,0.00,,OVC010,0.00,VWS V14.01,2013-11-20 11:12:00,
2013-11-20 06:13:00,51.9,51.9,30.18,NNE,24,9.0,16.0,100,0.00,,OVC010,0.00,VWS V14.01,2013-11-20 11:13:00,
2013-11-20 06:14:00,51.9,51.9,30.18,NNE,31,5.0,12.0,100,0.00,,OVC010,0.00,VWS V14.01,2013-11-20 11:14:00,
2013-11-20 06:15:00,51.9,51.9,30.18,NNE,17,9.0,11.0,100,0.00,,OVC010,0.00,VWS V14.01,2013-11-20 11:15:00,
2013-11-20 06:16:00,51.9,51.9,30.18,NNE,13,12.0,12.0,100,0.00,,CLR,0.00,VWS V14.01,2013-11-20 11:16:00,
2013-11-20 06:17:00,51.9,51.9,30.18,NE,56,6.0,13.0,100,0.00,,OVC010,0.00,VWS V14.01,2013-11-20 11:17:00,
2013-11-20 06:18:00,51.9,51.9,30.18,NE,47,7.0,7.0,100,0.00,,OVC010,0.00,VWS V14.01,2013-11-20 11:18:00,
2013-11-20 06:19:00,51.7,51.7,30.18,NE,49,8.0,9.0,100,0.00,,OVC010,0.00,VWS V14.01,2013-11-20 11:19:00,
2013-11-20 06:20:00,51.7,51.7,30.18,NE,36,5.0,8.0,100,0.00,,OVC010,0.00,VWS V14.01,2013-11-20 11:20:00,
2013-11-20 06:21:00,51.7,51.7,30.18,NE,41,9.0,9.0,100,0.00,,CLR,0.00,VWS V14.01,2013-11-20 11:21:00,
2013-11-20 06:22:00,51.7,51.7,30.18,NE,47,14.0,16.0,100,0.00,,OVC010,0.00,VWS V14.01,2013-11-20 11:22:00,
2013-11-20 06:23:00,51.7,51.7,30.18,NNE,23,6.0,14.0,100,0.00,,OVC010,0.00,VWS V14.01,2013-11-20 11:23:00,
2013-11-20 06:24:00,51.7,51.7,30.18,NE,43,5.0,13.0,100,0.00,,OVC010,0.00,VWS V14.01,2013-11-20 11:24:00,
2013-11-20 06:25:00,51.6,51.6,30.18,NW,317,6.0,15.0,100,0.00,,OVC010,0.00,VWS V14.01,2013-11-20 11:25:00,
2013-11-20 06:26:00,51.6,51.6,30.18,ENE,63,11.0,11.0,100,0.00,,CLR,0.00,VWS V14.01,2013-11-20 11:26:00,
2013-11-20 06:27:00,51.6,51.6,30.18,NNE,19,3.0,11.0,100,0.00,,OVC010,0.00,VWS V14.01,2013-11-20 11:27:00,
2013-11-20 06:28:00,51.6,51.6,30.18,NNE,32,5.0,9.0,100,0.00,,OVC010,0.00,VWS V14.01,2013-11-20 11:28:00,
2013-11-20 06:29:00,51.6,51.6,30.18,ENE,75,4.0,7.0,100,0.00,,OVC010,0.00,VWS V14.01,2013-11-20 11:29:00,
2013-11-20 06:30:00,51.6,51.6,30.18,ENE,63,7.0,13.0,100,0.00,,OVC010,0.00,VWS V14.01,2013-11-20 11:30:00,
2013-11-20 06:31:00,51.6,51.6,30.18,NE,46,6.0,11.0,100,0.00,,CLR,0.00,VWS V14.01,2013-11-20 11:31:00,
2013-11-20 06:32:00,51.4,51.4,30.18,NNE,13,7.0,11.0,100,0.00,,OVC010,0.00,VWS V14.01,2013-11-20 11:32:00,
2013-11-20 06:33:00,51.4,51.4,30.18,NE,42,15.0,15.0,100,0.00,,OVC010,0.00,VWS V14.01,2013-11-20 11:33:00,
2013-11-20 06:34:00,51.4,51.4,30.18,NE,34,11.0,15.0,100,0.00,,OVC013,0.00,VWS V14.01,2013-11-20 11:34:00,
2013-11-20 06:35:00,51.4,51.4,30.18,NE,50,11.0,15.0,100,0.00,,OVC010,0.00,VWS V14.01,2013-11-20 11:35:00,
2013-11-20 06:36:00,51.4,51.4,30.18,NE,53,5.0,9.0,100,0.00,,SCT065,0.00,VWS V14.01,2013-11-20 11:36:00,
2013-11-20 06:37:00,51.4,51.4,30.18,NNE,24,7.0,9.0,100,0.00,,OVC010,0.00,VWS V14.01,2013-11-20 11:37:00,
2013-11-20 06:38:00,51.4,51.4,30.18,NNE,28,6.0,13.0,100,0.00,,OVC010,0.00,VWS V14.01,2013-11-20 11:38:00,
2013-11-20 06:39:00,51.4,51.4,30.18,ENE,59,6.0,9.0,100,0.00,,OVC010,0.00,VWS V14.01,2013-11-20 11:39:00,
2013-11-20 06:40:00,51.3,51.3,30.18,NE,41,5.0,10.0,100,0.00,,OVC010,0.00,VWS V14.01,2013-11-20 11:40:00,
2013-11-20 06:41:00,51.3,51.3,30.18,NNE,29,11.0,11.0,100,0.00,,SCT065,0.00,VWS V14.01,2013-11-20 11:41:00,
2013-11-20 06:42:00,51.3,51.3,30.18,NNE,23,6.0,11.0,100,0.00,,OVC010,0.00,VWS V14.01,2013-11-20 11:42:00,
2013-11-20 06:43:00,51.3,51.3,30.18,NNW,346,12.0,12.0,100,0.00,,OVC010,0.00,VWS V14.01,2013-11-20 11:43:00,
2013-11-20 06:44:00,51.3,51.3,30.18,NE,53,6.0,12.0,100,0.00,,OVC010,0.00,VWS V14.01,2013-11-20 11:44:00,
2013-11-20 06:45:00,51.3,51.3,30.18,NE,55,18.0,18.0,100,0.00,,OVC010,0.00,VWS V14.01,2013-11-20 11:45:00,
2013-11-20 06:46:00,51.3,51.3,30.18,NE,47,3.0,9.0,100,0.00,,SCT065,0.00,VWS V14.01,2013-11-20 11:46:00,
2013-11-20 06:47:00,51.3,51.3,30.18,North,360,5.0,9.0,100,0.00,,OVC010,0.00,VWS V14.01,2013-11-20 11:47:00,
2013-11-20 06:48:00,51.3,51.3,30.18,NE,36,10.0,10.0,100,0.00,,OVC010,0.00,VWS V14.01,2013-11-20 11:48:00,
2013-11-20 06:49:00,51.3,51.3,30.18,North,355,11.0,13.0,100,0.00,,OVC010,0.00,VWS V14.01,2013-11-20 11:49:00,
2013-11-20 06:50:00,51.3,51.3,30.18,NNE,29,7.0,11.0,100,0.00,,OVC010,0.00,VWS V14.01,2013-11-20 11:50:00,
2013-11-20 06:51:00,51.3,51.3,30.18,NNE,17,12.0,12.0,100,0.00,,SCT065,0.00,VWS V14.01,2013-11-20 11:51:00,
2013-11-20 06:52:00,51.3,51.3,30.18,North,5,5.0,12.0,100,0.00,,OVC010,0.00,VWS V14.01,2013-11-20 11:52:00,
2013-11-20 06:53:00,51.1,51.1,30.18,NNE,17,7.0,16.0,100,0.00,,OVC010,0.00,VWS V14.01,2013-11-20 11:53:00,
2013-11-20 06:54:00,51.1,51.1,30.19,NE,55,3.0,8.0,100,0.00,,OVC010,0.00,VWS V14.01,2013-11-20 11:54:00,
2013-11-20 06:55:00,51.1,51.1,30.19,ENE,66,11.0,17.0,100,0.00,,OVC010,0.00,VWS V14.01,2013-11-20 11:55:00,
2013-11-20 06:56:00,51.1,51.1,30.19,NE,48,15.0,15.0,100,0.00,,SCT065,0.00,VWS V14.01,2013-11-20 11:56:00,
2013-11-20 06:57:00,51.1,51.1,30.19,NNW,344,13.0,15.0,100,0.00,,OVC010,0.00,VWS V14.01,2013-11-20 11:57:00,
2013-11-20 06:58:00,51.1,51.1,30.18,NNE,28,10.0,13.0,100,0.00,,OVC010,0.00,VWS V14.01,2013-11-20 11:58:00,
2013-11-20 06:59:00,51.1,51.1,30.19,NNE,21,12.0,12.0,100,0.00,,OVC010,0.00,VWS V14.01,2013-11-20 11:59:00,
2013-11-20 07:00:00,51.1,51.1,30.19,NNE,24,2.0,13.0,100,0.00,,OVC010,0.00,VWS V14.01,2013-11-20 12:00:00,
2013-11-20 07:01:00,51.0,51.0,30.19,NE,38,15.0,15.0,100,0.00,,SCT065,0.00,VWS V14.01,2013-11-20 12:01:00,
2013-11-20 07:02:00,51.0,51.0,30.19,NNW,344,8.0,18.0,100,0.00,,OVC010,0.00,VWS V14.01,2013-11-20 12:02:00,
2013-11-20 07:03:00,51.0,51.0,30.19,NE,53,11.0,17.0,100,0.00,,OVC010,0.00,VWS V14.01,2013-11-20 12:03:00,
2013-11-20 07:04:00,51.1,51.1,30.19,NNW,342,9.0,11.0,100,0.00,,OVC010,0.00,VWS V14.01,2013-11-20 12:04:00,
2013-11-20 07:05:00,51.1,51.1,30.19,ENE,61,5.0,13.0,100,0.00,,OVC010,0.00,VWS V14.01,2013-11-20 12:05:00,
2013-11-20 07:06:00,51.1,51.1,30.19,NE,42,10.0,12.0,100,0.00,,SCT065,0.00,VWS V14.01,2013-11-20 12:06:00,
2013-11-20 07:07:00,51.1,51.1,30.19,North,351,12.0,12.0,100,0.00,,OVC010,0.00,VWS V14.01,2013-11-20 12:07:00,
2013-11-20 07:08:00,51.1,51.1,30.19,NE,55,12.0,20.0,100,0.00,,OVC010,0.00,VWS V14.01,2013-11-20 12:08:00,
2013-11-20 07:09:00,51.1,51.1,30.19,NNE,28,12.0,12.0,100,0.00,,OVC010,0.00,VWS V14.01,2013-11-20 12:09:00,
2013-11-20 07:10:00,51.1,51.1,30.19,ENE,60,4.0,12.0,100,0.00,,OVC010,0.00,VWS V14.01,2013-11-20 12:10:00,
2013-11-20 07:11:00,51.1,51.1,30.19,NE,37,14.0,14.0,100,0.00,,SCT065,0.00,VWS V14.01,2013-11-20 12:11:00,
2013-11-20 07:12:00,51.1,51.1,30.19,NE,37,14.0,14.0,100,0.00,,OVC010,0.00,VWS V14.01,2013-11-20 12:12:00,
2013-11-20 07:13:00,51.1,51.1,30.19,NE,37,14.0,14.0,100,0.00,,OVC010,0.00,VWS V14.01,2013-11-20 12:13:00,
2013-11-20 07:14:00,51.1,51.1,30.19,NE,37,14.0,14.0,100,0.00,,OVC010,0.00,VWS V14.01,2013-11-20 12:14:00,
2013-11-20 07:15:00,51.1,51.1,30.19,NE,37,14.0,14.0,100,0.00,,OVC010,0.00,VWS V14.01,2013-11-20 12:15:00,
2013-11-20 07:16:00,51.1,51.1,30.19,NE,37,14.0,14.0,100,0.00,,SCT065,0.00,VWS V14.01,2013-11-20 12:16:00,
2013-11-20 07:17:00,51.1,51.1,30.19,NE,37,14.0,14.0,100,0.00,,OVC010,0.00,VWS V14.01,2013-11-20 12:17:00,
2013-11-20 07:18:00,51.0,51.0,30.19,NE,49,7.0,14.0,100,0.00,,OVC010,0.00,VWS V14.01,2013-11-20 12:18:00,
2013-11-20 07:19:00,51.0,51.0,30.19,NE,49,7.0,7.0,100,0.00,,OVC010,0.00,VWS V14.01,2013-11-20 12:19:00,
2013-11-20 07:20:00,51.0,51.0,30.19,NE,49,7.0,7.0,100,0.00,,OVC010,0.00,VWS V14.01,2013-11-20 12:20:00,
2013-11-20 07:21:00,51.0,51.0,30.20,NE,49,7.0,7.0,100,0.00,,SCT065,0.00,VWS V14.01,2013-11-20 12:21:00,
2013-11-20 07:22:00,51.0,51.0,30.20,NE,49,7.0,7.0,100,0.00,,OVC010,0.00,VWS V14.01,2013-11-20 12:22:00,
2013-11-20 07:23:00,51.0,51.0,30.20,NE,49,7.0,7.0,100,0.00,,OVC010,0.00,VWS V14.01,2013-11-20 12:23:00,
2013-11-20 07:24:00,51.0,51.0,30.20,NE,49,7.0,7.0,100,0.00,,OVC010,0.00,VWS V14.01,2013-11-20 12:24:00,
2013-11-20 07:25:00,50.7,50.7,30.20,ENE,63,3.0,13.0,100,0.00,,OVC010,0.00,VWS V14.01,2013-11-20 12:25:00,
2013-11-20 07:26:00,50.7,50.7,30.20,NNE,32,5.0,11.0,100,0.00,,SCT065,0.00,VWS V14.01,2013-11-20 12:26:00,
2013-11-20 07:27:00,50.7,50.7,30.20,NNE,19,5.0,11.0,100,0.00,,OVC010,0.00,VWS V14.01,2013-11-20 12:27:00,
2013-11-20 07:28:00,50.5,50.5,30.20,NE,53,10.0,15.0,100,0.00,,OVC010,0.00,VWS V14.01,2013-11-20 12:28:00,
2013-11-20 07:29:00,50.5,50.5,30.20,NE,51,9.0,10.0,100,0.00,,OVC010,0.00,VWS V14.01,2013-11-20 12:29:00,
2013-11-20 07:30:00,50.5,50.5,30.20,NNW,346,4.0,17.0,100,0.00,,OVC010,0.00,VWS V14.01,2013-11-20 12:30:00,
2013-11-20 07:31:00,50.4,50.4,30.20,North,355,8.0,9.0,100,0.00,,SCT065,0.00,VWS V14.01,2013-11-20 12:31:00,
2013-11-20 07:32:00,50.4,50.4,30.20,North,5,5.0,9.0,100,0.00,,OVC010,0.00,VWS V14.01,2013-11-20 12:32:00,
2013-11-20 07:33:00,50.4,50.4,30.20,ENE,57,9.0,10.0,100,0.00,,OVC010,0.00,VWS V14.01,2013-11-20 12:33:00,
2013-11-20 07:34:00,50.4,50.4,30.20,NNE,22,4.0,9.0,100,0.00,,OVC010,0.00,VWS V14.01,2013-11-20 12:34:00,
2013-11-20 07:35:00,50.4,50.4,30.20,ENE,76,4.0,9.0,100,0.00,,OVC010,0.00,VWS V14.01,2013-11-20 12:35:00,
2013-11-20 07:36:00,50.4,50.4,30.20,NW,311,9.0,13.0,100,0.00,,BKN060,0.00,VWS V14.01,2013-11-20 12:36:00,
2013-11-20 07:37:00,50.4,50.4,30.20,NNW,342,5.0,13.0,100,0.00,,OVC010,0.00,VWS V14.01,2013-11-20 12:37:00,
2013-11-20 07:38:00,50.4,50.4,30.20,NNE,18,9.0,20.0,100,0.00,,OVC010,0.00,VWS V14.01,2013-11-20 12:38:00,
2013-11-20 07:39:00,50.4,50.4,30.20,NNE,17,9.0,11.0,100,0.00,,OVC010,0.00,VWS V14.01,2013-11-20 12:39:00,
2013-11-20 07:40:00,50.4,50.4,30.20,NE,44,7.0,9.0,100,0.00,,OVC010,0.00,VWS V14.01,2013-11-20 12:40:00,
2013-11-20 07:41:00,50.4,50.4,30.21,ENE,60,11.0,11.0,100,0.00,,BKN060,0.00,VWS V14.01,2013-11-20 12:41:00,
2013-11-20 07:42:00,50.4,50.4,30.21,NE,54,5.0,11.0,100,0.00,,OVC010,0.00,VWS V14.01,2013-11-20 12:42:00,
2013-11-20 07:43:00,50.4,50.4,30.21,NE,54,1.0,5.0,100,0.00,,OVC010,0.00,VWS V14.01,2013-11-20 12:43:00,
2013-11-20 07:44:00,50.4,50.4,30.21,North,9,6.0,7.0,100,0.00,,OVC010,0.00,VWS V14.01,2013-11-20 12:44:00,
2013-11-20 07:45:00,50.4,50.4,30.21,NE,55,7.0,11.0,100,0.00,,OVC010,0.00,VWS V14.01,2013-11-20 12:45:00,
2013-11-20 07:46:00,50.4,50.4,30.21,North,5,10.0,10.0,100,0.00,,BKN060,0.00,VWS V14.01,2013-11-20 12:46:00,
2013-11-20 07:47:00,50.4,50.4,30.21,NNE,19,7.0,10.0,100,0.00,,OVC010,0.00,VWS V14.01,2013-11-20 12:47:00,
2013-11-20 07:48:00,50.4,50.4,30.21,NNE,29,2.0,9.0,100,0.00,,OVC010,0.00,VWS V14.01,2013-11-20 12:48:00,
2013-11-20 07:49:00,50.4,50.4,30.21,NNE,25,4.0,13.0,100,0.00,,OVC010,0.00,VWS V14.01,2013-11-20 12:49:00,
2013-11-20 07:50:00,50.4,50.4,30.21,NE,50,6.0,7.0,100,0.00,,OVC010,0.00,VWS V14.01,2013-11-20 12:50:00,
2013-11-20 07:51:00,50.4,50.4,30.21,ENE,61,3.0,9.0,100,0.00,,BKN060,0.00,VWS V14.01,2013-11-20 12:51:00,
2013-11-20 07:52:00,50.4,50.4,30.21,NE,50,5.0,9.0,100,0.00,,OVC010,0.00,VWS V14.01,2013-11-20 12:52:00,
2013-11-20 07:53:00,50.4,50.4,30.21,ENE,59,5.0,13.0,100,0.00,,OVC010,0.00,VWS V14.01,2013-11-20 12:53:00,
2013-11-20 07:54:00,50.4,50.4,30.21,NNW,333,7.0,11.0,100,0.00,,OVC010,0.00,VWS V14.01,2013-11-20 12:54:00,
2013-11-20 07:55:00,50.4,50.4,30.21,East,80,3.0,12.0,100,0.00,,OVC010,0.00,VWS V14.01,2013-11-20 12:55:00,
2013-11-20 07:56:00,50.5,50.5,30.21,NW,321,6.0,6.0,100,0.00,,BKN060,0.00,VWS V14.01,2013-11-20 12:56:00,
2013-11-20 07:57:00,50.5,50.5,30.21,NE,47,6.0,6.0,100,0.00,,OVC010,0.00,VWS V14.01,2013-11-20 12:57:00,
2013-11-20 07:58:00,50.5,50.5,30.21,ENE,67,5.0,6.0,100,0.00,,OVC010,0.00,VWS V14.01,2013-11-20 12:58:00,
2013-11-20 07:59:00,50.5,50.5,30.21,NE,34,7.0,12.0,100,0.00,,OVC010,0.00,VWS V14.01,2013-11-20 12:59:00,
2013-11-20 08:00:00,50.5,50.5,30.21,NE,53,4.0,12.0,100,0.00,,OVC010,0.00,VWS V14.01,2013-11-20 13:00:00,
2013-11-20 08:01:00,50.5,50.5,30.21,NNE,30,12.0,13.0,100,0.00,,BKN060,0.00,VWS V14.01,2013-11-20 13:01:00,
2013-11-20 08:02:00,50.5,50.5,30.21,NE,42,12.0,13.0,100,0.00,,OVC010,0.00,VWS V14.01,2013-11-20 13:02:00,
2013-11-20 08:03:00,50.5,50.5,30.21,NE,42,12.0,16.0,100,0.00,,OVC010,0.00,VWS V14.01,2013-11-20 13:03:00,
2013-11-20 08:04:00,50.5,50.5,30.21,NE,46,7.0,15.0,100,0.00,,OVC010,0.00,VWS V14.01,2013-11-20 13:04:00,
2013-11-20 08:05:00,50.5,50.5,30.21,NNE,24,11.0,11.0,100,0.00,,OVC010,0.00,VWS V14.01,2013-11-20 13:05:00,
2013-11-20 08:06:00,50.7,50.7,30.21,North,5,7.0,7.0,100,0.00,,BKN060,0.00,VWS V14.01,2013-11-20 13:06:00,
2013-11-20 08:07:00,50.7,50.7,30.21,ENE,61,12.0,14.0,100,0.00,,OVC010,0.00,VWS V14.01,2013-11-20 13:07:00,
2013-11-20 08:08:00,50.7,50.7,30.21,East,80,3.0,12.0,100,0.00,,OVC010,0.00,VWS V14.01,2013-11-20 13:08:00,
2013-11-20 08:09:00,50.7,50.7,30.22,NNW,348,7.0,9.0,100,0.00,,OVC010,0.00,VWS V14.01,2013-11-20 13:09:00,
2013-11-20 08:10:00,50.7,50.7,30.21,ENE,59,11.0,15.0,100,0.00,,OVC010,0.00,VWS V14.01,2013-11-20 13:10:00,
2013-11-20 08:11:00,50.7,50.7,30.22,NE,51,7.0,7.0,100,0.00,,BKN060,0.00,VWS V14.01,2013-11-20 13:11:00,
2013-11-20 08:12:00,50.7,50.7,30.22,NNE,27,7.0,7.0,100,0.00,,OVC010,0.00,VWS V14.01,2013-11-20 13:12:00,
2013-11-20 08:13:00,50.7,50.7,30.21,NW,321,10.0,10.0,100,0.00,,OVC010,0.00,VWS V14.01,2013-11-20 13:13:00,
2013-11-20 08:14:00,50.7,50.7,30.21,NNE,17,7.0,10.0,100,0.00,,OVC010,0.00,VWS V14.01,2013-11-20 13:14:00,
2013-11-20 08:15:00,50.7,50.7,30.21,North,11,5.0,11.0,100,0.00,,OVC010,0.00,VWS V14.01,2013-11-20 13:15:00,
2013-11-20 08:16:00,50.7,50.7,30.22,NE,39,6.0,6.0,100,0.00,,BKN060,0.00,VWS V14.01,2013-11-20 13:16:00,
2013-11-20 08:17:00,50.7,50.7,30.22,ENE,65,6.0,16.0,100,0.00,,OVC010,0.00,VWS V14.01,2013-11-20 13:17:00,
2013-11-20 08:18:00,50.8,50.8,30.22,NNE,27,7.0,10.0,100,0.00,,OVC010,0.00,VWS V14.01,2013-11-20 13:18:00,
2013-11-20 08:19:00,50.8,50.8,30.22,NE,47,6.0,9.0,100,0.00,,OVC010,0.00,VWS V14.01,2013-11-20 13:19:00,
2013-11-20 08:20:00,50.8,50.8,30.22,North,360,6.0,11.0,100,0.00,,OVC010,0.00,VWS V14.01,2013-11-20 13:20:00,
2013-11-20 08:21:00,50.8,50.8,30.22,NNE,30,5.0,5.0,100,0.00,,BKN060,0.00,VWS V14.01,2013-11-20 13:21:00,
2013-11-20 08:22:00,50.8,50.8,30.22,NNE,22,9.0,13.0,100,0.00,,OVC010,0.00,VWS V14.01,2013-11-20 13:22:00,
2013-11-20 08:23:00,50.8,50.8,30.22,NNE,26,9.0,9.0,100,0.00,,OVC010,0.00,VWS V14.01,2013-11-20 13:23:00,
2013-11-20 08:24:00,50.8,50.8,30.22,NE,47,3.0,12.0,100,0.00,,OVC010,0.00,VWS V14.01,2013-11-20 13:24:00,
2013-11-20 08:25:00,50.8,50.8,30.22,NE,45,10.0,16.0,100,0.00,,OVC010,0.00,VWS V14.01,2013-11-20 13:25:00,
2013-11-20 08:26:00,50.8,50.8,30.22,ENE,62,4.0,5.0,100,0.00,,BKN060,0.00,VWS V14.01,2013-11-20 13:26:00,
2013-11-20 08:27:00,50.8,50.8,30.22,NNE,18,9.0,10.0,100,0.00,,OVC010,0.00,VWS V14.01,2013-11-20 13:27:00,
2013-11-20 08:28:00,50.8,50.8,30.22,NE,52,11.0,13.0,100,0.00,,OVC010,0.00,VWS V14.01,2013-11-20 13:28:00,
2013-11-20 08:29:00,50.8,50.8,30.22,NNW,345,13.0,13.0,100,0.00,,OVC010,0.00,VWS V14.01,2013-11-20 13:29:00,
2013-11-20 08:30:00,50.8,50.8,30.22,NE,38,16.0,16.0,100,0.00,,OVC010,0.00,VWS V14.01,2013-11-20 13:30:00,
2013-11-20 08:31:00,50.8,50.8,30.22,NE,39,11.0,11.0,100,0.00,,BKN060,0.00,VWS V14.01,2013-11-20 13:31:00,
2013-11-20 08:32:00,50.8,50.8,30.22,ENE,59,4.0,11.0,100,0.00,,OVC010,0.00,VWS V14.01,2013-11-20 13:32:00,
2013-11-20 08:33:00,50.8,50.8,30.22,ENE,74,4.0,7.0,100,0.00,,OVC010,0.00,VWS V14.01,2013-11-20 13:33:00,
2013-11-20 08:34:00,51.0,51.0,30.22,ENE,65,4.0,11.0,100,0.00,,OVC010,0.00,VWS V14.01,2013-11-20 13:34:00,
2013-11-20 08:35:00,51.0,51.0,30.22,NE,51,14.0,15.0,100,0.00,,OVC010,0.00,VWS V14.01,2013-11-20 13:35:00,
2013-11-20 08:36:00,50.8,50.8,30.22,North,5,12.0,12.0,100,0.00,,BKN060,0.00,VWS V14.01,2013-11-20 13:36:00,
2013-11-20 08:37:00,50.8,50.8,30.22,North,5,12.0,17.0,100,0.00,,OVC010,0.00,VWS V14.01,2013-11-20 13:37:00,
2013-11-20 08:38:00,50.8,50.8,30.22,ENE,78,6.0,15.0,100,0.00,,OVC010,0.00,VWS V14.01,2013-11-20 13:38:00,
2013-11-20 08:39:00,50.8,50.8,30.22,NE,34,2.0,9.0,100,0.00,,OVC010,0.00,VWS V14.01,2013-11-20 13:39:00,
2013-11-20 08:40:00,50.8,50.8,30.22,NNE,27,5.0,11.0,100,0.00,,OVC010,0.00,VWS V14.01,2013-11-20 13:40:00,
2013-11-20 08:41:00,51.0,51.0,30.22,East,81,3.0,8.0,100,0.00,,BKN060,0.00,VWS V14.01,2013-11-20 13:41:00,
2013-11-20 08:42:00,51.0,51.0,30.22,ENE,61,11.0,11.0,100,0.00,,OVC010,0.00,VWS V14.01,2013-11-20 13:42:00,
2013-11-20 08:43:00,51.0,51.0,30.22,ENE,58,14.0,14.0,100,0.00,,OVC010,0.00,VWS V14.01,2013-11-20 13:43:00,
2013-11-20 08:44:00,51.1,51.1,30.22,East,85,10.0,14.0,100,0.00,,OVC010,0.00,VWS V14.01,2013-11-20 13:44:00,
2013-11-20 08:45:00,51.1,51.1,30.22,North,355,6.0,10.0,100,0.00,,OVC010,0.00,VWS V14.01,2013-11-20 13:45:00,
2013-11-20 08:46:00,51.1,51.1,30.22,NE,43,13.0,22.0,100,0.00,,BKN060,0.00,VWS V14.01,2013-11-20 13:46:00,
2013-11-20 08:47:00,51.1,51.1,30.22,East,85,6.0,22.0,100,0.00,,OVC010,0.00,VWS V14.01,2013-11-20 13:47:00,
2013-11-20 08:48:00,51.1,51.1,30.22,NNW,329,8.0,11.0,100,0.00,,OVC010,0.00,VWS V14.01,2013-11-20 13:48:00,
2013-11-20 08:49:00,51.1,51.1,30.22,NE,35,11.0,11.0,100,0.00,,OVC010,0.00,VWS V14.01,2013-11-20 13:49:00,
2013-11-20 08:50:00,51.1,51.1,30.22,ENE,58,9.0,11.0,100,0.00,,OVC010,0.00,VWS V14.01,2013-11-20 13:50:00,
2013-11-20 08:51:00,51.3,51.3,30.22,NNE,27,4.0,5.0,100,0.00,,BKN060,0.00,VWS V14.01,2013-11-20 13:51:00,
2013-11-20 08:52:00,51.3,51.3,30.22,NE,40,3.0,10.0,100,0.00,,OVC010,0.00,VWS V14.01,2013-11-20 13:52:00,
2013-11-20 08:53:00,51.3,51.3,30.22,NNE,29,7.0,9.0,100,0.00,,OVC010,0.00,VWS V14.01,2013-11-20 13:53:00,
2013-11-20 08:54:00,51.3,51.3,30.22,NE,48,11.0,16.0,100,0.00,,OVC010,0.00,VWS V14.01,2013-11-20 13:54:00,
2013-11-20 08:55:00,51.3,51.3,30.22,NNW,330,14.0,14.0,100,0.00,,OVC010,0.00,VWS V14.01,2013-11-20 13:55:00,
2013-11-20 08:56:00,51.3,51.3,30.22,North,355,6.0,14.0,100,0.00,,BKN060,0.00,VWS V14.01,2013-11-20 13:56:00,
2013-11-20 08:57:00,51.3,51.3,30.22,NE,46,16.0,16.0,100,0.00,,OVC010,0.00,VWS V14.01,2013-11-20 13:57:00,
2013-11-20 08:58:00,51.3,51.3,30.22,NNE,31,3.0,16.0,100,0.00,,OVC010,0.00,VWS V14.01,2013-11-20 13:58:00,
2013-11-20 08:59:00,51.3,51.3,30.22,North,11,5.0,12.0,100,0.00,,OVC010,0.00,VWS V14.01,2013-11-20 13:59:00,
2013-11-20 09:00:00,51.4,51.4,30.22,NE,35,10.0,10.0,100,0.00,,OVC010,0.00,VWS V14.01,2013-11-20 14:00:00,
2013-11-20 09:01:00,51.4,51.4,30.22,NE,49,3.0,4.0,100,0.00,,BKN060,0.00,VWS V14.01,2013-11-20 14:01:00,
2013-11-20 09:02:00,51.4,51.4,30.22,NE,38,7.0,13.0,100,0.00,,OVC010,0.00,VWS V14.01,2013-11-20 14:02:00,
2013-11-20 09:03:00,51.4,51.4,30.22,NE,35,4.0,12.0,100,0.00,,OVC010,0.00,VWS V14.01,2013-11-20 14:03:00,
2013-11-20 09:04:00,51.4,51.4,30.23,NE,35,14.0,14.0,100,0.00,,OVC010,0.00,VWS V14.01,2013-11-20 14:04:00,
2013-11-20 09:05:00,51.4,51.4,30.23,NE,49,5.0,14.0,100,0.00,,OVC010,0.00,VWS V14.01,2013-11-20 14:05:00,
2013-11-20 09:06:00,51.4,51.4,30.23,North,360,4.0,8.0,100,0.00,,BKN060,0.00,VWS V14.01,2013-11-20 14:06:00,
2013-11-20 09:07:00,51.4,51.4,30.23,ENE,62,4.0,11.0,100,0.00,,OVC010,0.00,VWS V14.01,2013-11-20 14:07:00,
2013-11-20 09:08:00,51.4,51.4,30.22,NNE,30,5.0,7.0,100,0.00,,OVC010,0.00,VWS V14.01,2013-11-20 14:08:00,
2013-11-20 09:09:00,51.6,51.6,30.22,North,5,12.0,12.0,100,0.00,,OVC010,0.00,VWS V14.01,2013-11-20 14:09:00,
2013-11-20 09:10:00,51.6,51.6,30.22,NE,34,7.0,12.0,100,0.00,,OVC010,0.00,VWS V14.01,2013-11-20 14:10:00,
2013-11-20 09:11:00,51.6,51.6,30.22,NNE,30,12.0,12.0,100,0.00,,BKN060,0.00,VWS V14.01,2013-11-20 14:11:00,
2013-11-20 09:12:00,51.6,51.6,30.22,NE,41,7.0,12.0,100,0.00,,OVC010,0.00,VWS V14.01,2013-11-20 14:12:00,
2013-11-20 09:13:00,51.7,51.7,30.22,NE,46,3.0,11.0,100,0.00,,OVC010,0.00,VWS V14.01,2013-11-20 14:13:00,
2013-11-20 09:14:00,51.7,51.7,30.23,NNE,30,6.0,11.0,100,0.00,,OVC010,0.00,VWS V14.01,2013-11-20 14:14:00,
2013-11-20 09:15:00,51.9,51.9,30.23,NE,47,4.0,15.0,100,0.00,,OVC010,0.00,VWS V14.01,2013-11-20 14:15:00,
2013-11-20 09:16:00,52.0,52.0,30.23,NE,46,6.0,6.0,100,0.00,,BKN060,0.00,VWS V14.01,2013-11-20 14:16:00,
2013-11-20 09:17:00,52.0,52.0,30.23,ENE,59,7.0,15.0,100,0.00,,OVC010,0.00,VWS V14.01,2013-11-20 14:17:00,
2013-11-20 09:18:00,52.2,52.2,30.23,NNE,32,14.0,14.0,100,0.00,,OVC010,0.00,VWS V14.01,2013-11-20 14:18:00,
2013-11-20 09:19:00,52.2,52.2,30.23,ENE,67,14.0,14.0,100,0.00,,OVC010,0.00,VWS V14.01,2013-11-20 14:19:00,
2013-11-20 09:20:00,52.2,52.2,30.23,NE,40,9.0,14.0,100,0.00,,OVC010,0.00,VWS V14.01,2013-11-20 14:20:00,
2013-11-20 09:21:00,52.2,52.2,30.23,NE,43,4.0,11.0,100,0.00,,BKN060,0.00,VWS V14.01,2013-11-20 14:21:00,
2013-11-20 09:22:00,52.2,52.2,30.23,NNE,28,7.0,7.0,100,0.00,,OVC010,0.00,VWS V14.01,2013-11-20 14:22:00,
2013-11-20 09:23:00,52.2,52.2,30.23,NNE,12,5.0,13.0,100,0.00,,OVC010,0.00,VWS V14.01,2013-11-20 14:23:00,
2013-11-20 09:24:00,52.2,52.2,30.23,NE,47,8.0,14.0,100,0.00,,OVC010,0.00,VWS V14.01,2013-11-20 14:24:00,
2013-11-20 09:25:00,52.2,52.2,30.23,ENE,78,5.0,8.0,100,0.00,,OVC010,0.00,VWS V14.01,2013-11-20 14:25:00,
2013-11-20 09:26:00,52.2,52.2,30.23,ENE,78,5.0,6.0,100,0.00,,BKN060,0.00,VWS V14.01,2013-11-20 14:26:00,
2013-11-20 09:27:00,52.2,52.2,30.23,ENE,78,4.0,9.0,100,0.00,,OVC010,0.00,VWS V14.01,2013-11-20 14:27:00,
2013-11-20 09:28:00,52.2,52.2,30.23,ENE,68,12.0,12.0,100,0.00,,OVC010,0.00,VWS V14.01,2013-11-20 14:28:00,
2013-11-20 09:29:00,52.2,52.2,30.23,NE,46,4.0,12.0,100,0.00,,OVC010,0.00,VWS V14.01,2013-11-20 14:29:00,
2013-11-20 09:30:00,52.0,52.0,30.23,ENE,73,6.0,10.0,100,0.00,,OVC010,0.00,VWS V14.01,2013-11-20 14:30:00,
2013-11-20 09:31:00,52.0,52.0,30.23,ENE,61,8.0,8.0,100,0.00,,BKN060,0.00,VWS V14.01,2013-11-20 14:31:00,
2013-11-20 09:32:00,51.9,51.9,30.23,ENE,63,5.0,9.0,100,0.00,,OVC010,0.00,VWS V14.01,2013-11-20 14:32:00,
2013-11-20 09:33:00,51.9,51.9,30.23,NE,34,5.0,16.0,100,0.00,,OVC010,0.00,VWS V14.01,2013-11-20 14:33:00,
2013-11-20 09:34:00,51.9,51.9,30.23,NW,326,7.0,7.0,100,0.00,,OVC010,0.00,VWS V14.01,2013-11-20 14:34:00,
2013-11-20 09:35:00,51.9,51.9,30.23,NNW,348,6.0,12.0,100,0.00,,OVC010,0.00,VWS V14.01,2013-11-20 14:35:00,
2013-11-20 09:36:00,52.0,52.0,30.24,NNE,17,7.0,7.0,100,0.00,,BKN070,0.00,VWS V14.01,2013-11-20 14:36:00,
2013-11-20 09:37:00,52.0,52.0,30.24,ENE,63,5.0,7.0,100,0.00,,OVC010,0.00,VWS V14.01,2013-11-20 14:37:00,
2013-11-20 09:38:00,52.2,52.2,30.24,NE,46,7.0,7.0,100,0.00,,OVC010,0.00,VWS V14.01,2013-11-20 14:38:00,
2013-11-20 09:39:00,52.2,52.2,30.24,North,355,11.0,13.0,100,0.00,,OVC010,0.00,VWS V14.01,2013-11-20 14:39:00,
2013-11-20 09:40:00,52.3,52.3,30.23,ENE,63,9.0,11.0,100,0.00,,OVC010,0.00,VWS V14.01,2013-11-20 14:40:00,
2013-11-20 09:41:00,52.3,52.3,30.24,NNE,26,5.0,6.0,100,0.00,,BKN070,0.00,VWS V14.01,2013-11-20 14:41:00,
2013-11-20 09:42:00,52.5,52.5,30.24,North,355,4.0,6.0,100,0.00,,OVC010,0.00,VWS V14.01,2013-11-20 14:42:00,
2013-11-20 09:43:00,52.5,52.5,30.24,North,350,9.0,9.0,100,0.00,,OVC010,0.00,VWS V14.01,2013-11-20 14:43:00,
2013-11-20 09:44:00,52.5,52.5,30.24,NE,34,5.0,15.0,100,0.00,,OVC010,0.00,VWS V14.01,2013-11-20 14:44:00,
2013-11-20 09:45:00,52.5,52.5,30.24,NNW,343,6.0,9.0,100,0.00,,OVC010,0.00,VWS V14.01,2013-11-20 14:45:00,
2013-11-20 09:46:00,52.5,52.5,30.24,ENE,61,3.0,7.0,100,0.00,,BKN070,0.00,VWS V14.01,2013-11-20 14:46:00,
2013-11-20 09:47:00,52.5,52.5,30.24,NNE,32,10.0,12.0,100,0.00,,OVC010,0.00,VWS V14.01,2013-11-20 14:47:00,
2013-11-20 09:48:00,52.5,52.5,30.24,North,360,8.0,11.0,100,0.00,,OVC010,0.00,VWS V14.01,2013-11-20 14:48:00,
2013-11-20 09:49:00,52.5,52.5,30.24,NNE,30,2.0,8.0,100,0.00,,OVC010,0.00,VWS V14.01,2013-11-20 14:49:00,
2013-11-20 09:50:00,52.5,52.5,30.24,NNW,344,3.0,11.0,100,0.00,,OVC010,0.00,VWS V14.01,2013-11-20 14:50:00,
2013-11-20 09:51:00,52.6,52.6,30.24,NE,49,4.0,5.0,100,0.00,,BKN070,0.00,VWS V14.01,2013-11-20 14:51:00,
2013-11-20 09:52:00,52.6,52.6,30.24,NE,46,6.0,12.0,100,0.00,,OVC010,0.00,VWS V14.01,2013-11-20 14:52:00,
2013-11-20 09:53:00,52.8,52.8,30.24,NNW,329,3.0,14.0,100,0.00,,OVC010,0.00,VWS V14.01,2013-11-20 14:53:00,
2013-11-20 09:54:00,52.8,52.8,30.24,North,5,4.0,9.0,100,0.00,,OVC010,0.00,VWS V14.01,2013-11-20 14:54:00,
2013-11-20 09:55:00,52.9,52.9,30.24,North,5,4.0,6.0,100,0.00,,OVC010,0.00,VWS V14.01,2013-11-20 14:55:00,
2013-11-20 09:56:00,53.1,53.1,30.24,NE,54,9.0,9.0,100,0.00,,BKN070,0.00,VWS V14.01,2013-11-20 14:56:00,
2013-11-20 09:57:00,53.1,53.1,30.24,North,355,11.0,11.0,100,0.00,,OVC010,0.00,VWS V14.01,2013-11-20 14:57:00,
2013-11-20 09:58:00,53.1,53.1,30.24,NNW,330,4.0,11.0,100,0.00,,OVC010,0.00,VWS V14.01,2013-11-20 14:58:00,
2013-11-20 09:59:00,53.1,53.1,30.24,ENE,67,2.0,6.0,100,0.00,,OVC010,0.00,VWS V14.01,2013-11-20 14:59:00,
2013-11-20 10:00:00,53.1,53.1,30.24,NE,53,12.0,12.0,100,0.00,,OVC010,0.00,VWS V14.01,2013-11-20 15:00:00,
2013-11-20 10:01:00,53.1,53.1,30.24,North,350,3.0,5.0,100,0.00,,BKN070,0.00,VWS V14.01,2013-11-20 15:01:00,
2013-11-20 10:02:00,53.1,53.1,30.24,ENE,74,3.0,7.0,100,0.00,,OVC010,0.00,VWS V14.01,2013-11-20 15:02:00,
2013-11-20 10:03:00,53.1,53.1,30.25,NE,53,3.0,7.0,100,0.00,,OVC010,0.00,VWS V14.01,2013-11-20 15:03:00,
2013-11-20 10:04:00,52.9,52.9,30.25,NE,43,10.0,14.0,100,0.00,,OVC010,0.00,VWS V14.01,2013-11-20 15:04:00,
2013-11-20 10:05:00,52.9,52.9,30.25,NE,37,10.0,10.0,100,0.00,,OVC010,0.00,VWS V14.01,2013-11-20 15:05:00,
2013-11-20 10:06:00,52.9,52.9,30.25,North,5,4.0,7.0,100,0.00,,BKN070,0.00,VWS V14.01,2013-11-20 15:06:00,
2013-11-20 10:07:00,52.9,52.9,30.25,NNE,27,11.0,11.0,100,0.00,,OVC010,0.00,VWS V14.01,2013-11-20 15:07:00,
2013-11-20 10:08:00,52.9,52.9,30.25,ENE,62,3.0,12.0,100,0.00,,OVC010,0.00,VWS V14.01,2013-11-20 15:08:00,
2013-11-20 10:09:00,52.9,52.9,30.25,NE,36,3.0,10.0,100,0.00,,OVC010,0.00,VWS V14.01,2013-11-20 15:09:00,
2013-11-20 10:10:00,52.9,52.9,30.25,NE,48,7.0,10.0,100,0.00,,OVC010,0.00,VWS V14.01,2013-11-20 15:10:00,
2013-11-20 10:11:00,52.9,52.9,30.25,NNE,31,6.0,6.0,100,0.00,,BKN070,0.00,VWS V14.01,2013-11-20 15:11:00,
2013-11-20 10:12:00,52.9,52.9,30.25,ENE,69,7.0,7.0,100,0.00,,OVC010,0.00,VWS V14.01,2013-11-20 15:12:00,
2013-11-20 10:13:00,52.9,52.9,30.25,NE,50,4.0,7.0,100,0.00,,OVC010,0.00,VWS V14.01,2013-11-20 15:13:00,
2013-11-20 10:14:00,53.1,53.1,30.25,ENE,71,13.0,13.0,100,0.00,,OVC010,0.00,VWS V14.01,2013-11-20 15:14:00,
2013-11-20 10:15:00,53.1,53.1,30.25,NNE,16,7.0,13.0,100,0.00,,OVC010,0.00,VWS V14.01,2013-11-20 15:15:00,
2013-11-20 10:16:00,53.1,53.1,30.25,North,355,5.0,7.0,100,0.00,,BKN070,0.00,VWS V14.01,2013-11-20 15:16:00,
2013-11-20 10:17:00,53.1,53.1,30.25,North,11,10.0,10.0,100,0.00,,OVC010,0.00,VWS V14.01,2013-11-20 15:17:00,
2013-11-20 10:18:00,53.1,53.1,30.25,NE,36,3.0,10.0,100,0.00,,OVC010,0.00,VWS V14.01,2013-11-20 15:18:00,
2013-11-20 10:19:00,53.2,53.2,30.25,NE,55,3.0,6.0,100,0.00,,OVC010,0.00,VWS V14.01,2013-11-20 15:19:00,
2013-11-20 10:20:00,53.2,53.2,30.25,North,11,2.0,10.0,100,0.00,,OVC010,0.00,VWS V14.01,2013-11-20 15:20:00,
2013-11-20 10:21:00,53.2,53.2,30.25,NNE,28,5.0,5.0,100,0.00,,BKN070,0.00,VWS V14.01,2013-11-20 15:21:00,
2013-11-20 10:22:00,53.2,53.2,30.25,ENE,61,6.0,12.0,100,0.00,,OVC010,0.00,VWS V14.01,2013-11-20 15:22:00,
2013-11-20 10:23:00,53.2,53.2,30.25,ENE,62,11.0,11.0,100,0.00,,OVC010,0.00,VWS V14.01,2013-11-20 15:23:00,
2013-11-20 10:24:00,53.3,53.3,30.25,North,10,2.0,11.0,100,0.00,,OVC010,0.00,VWS V14.01,2013-11-20 15:24:00,
2013-11-20 10:25:00,53.3,53.3,30.25,NNW,347,3.0,6.0,100,0.00,,OVC010,0.00,VWS V14.01,2013-11-20 15:25:00,
2013-11-20 10:26:00,53.3,53.3,30.25,ENE,71,7.0,7.0,100,0.00,,BKN070,0.00,VWS V14.01,2013-11-20 15:26:00,
2013-11-20 10:27:00,53.5,53.5,30.25,NE,38,4.0,7.0,100,0.00,,OVC010,0.00,VWS V14.01,2013-11-20 15:27:00,
2013-11-20 10:28:00,53.5,53.5,30.25,NNW,336,5.0,14.0,100,0.00,,OVC010,0.00,VWS V14.01,2013-11-20 15:28:00,
2013-11-20 10:29:00,53.5,53.5,30.25,NE,54,5.0,9.0,100,0.00,,OVC010,0.00,VWS V14.01,2013-11-20 15:29:00,
2013-11-20 10:30:00,53.5,53.5,30.25,NE,46,4.0,6.0,100,0.00,,OVC010,0.00,VWS V14.01,2013-11-20 15:30:00,
2013-11-20 10:31:00,53.5,53.5,30.25,ENE,58,2.0,3.0,100,0.00,,BKN070,0.00,VWS V14.01,2013-11-20 15:31:00,
2013-11-20 10:32:00,53.6,53.6,30.25,NNE,31,7.0,7.0,100,0.00,,OVC010,0.00,VWS V14.01,2013-11-20 15:32:00,
2013-11-20 10:33:00,53.6,53.6,30.25,NE,38,4.0,10.0,100,0.00,,OVC010,0.00,VWS V14.01,2013-11-20 15:33:00,
2013-11-20 10:34:00,53.6,53.6,30.25,ENE,71,3.0,11.0,100,0.00,,OVC010,0.00,VWS V14.01,2013-11-20 15:34:00,
2013-11-20 10:35:00,53.6,53.6,30.25,NE,36,5.0,9.0,100,0.00,,BKN070,0.00,VWS V14.01,2013-11-20 15:35:00,
2013-11-20 10:36:00,53.6,53.6,30.25,NNW,336,9.0,9.0,100,0.00,,OVC010,0.00,VWS V14.01,2013-11-20 15:36:00,
2013-11-20 10:37:00,53.6,53.6,30.25,NNW,333,1.0,9.0,100,0.00,,OVC010,0.00,VWS V14.01,2013-11-20 15:37:00,
2013-11-20 10:38:00,53.6,53.6,30.25,ENE,57,3.0,4.0,100,0.00,,OVC010,0.00,VWS V14.01,2013-11-20 15:38:00,
2013-11-20 10:39:00,53.6,53.6,30.25,NE,36,14.0,14.0,100,0.00,,OVC010,0.00,VWS V14.01,2013-11-20 15:39:00,
2013-11-20 10:40:00,53.6,53.6,30.25,NNW,331,9.0,9.0,100,0.00,,BKN070,0.00,VWS V14.01,2013-11-20 15:40:00,
2013-11-20 10:41:00,53.6,53.6,30.25,NNW,339,6.0,9.0,100,0.00,,OVC010,0.00,VWS V14.01,2013-11-20 15:41:00,
2013-11-20 10:42:00,53.6,53.6,30.25,NNW,340,9.0,9.0,100,0.00,,OVC010,0.00,VWS V14.01,2013-11-20 15:42:00,
2013-11-20 10:43:00,53.6,53.6,30.26,NE,55,5.0,9.0,100,0.00,,OVC010,0.00,VWS V14.01,2013-11-20 15:43:00,
2013-11-20 10:44:00,53.5,53.5,30.25,North,349,8.0,15.0,100,0.00,,OVC010,0.00,VWS V14.01,2013-11-20 15:44:00,
2013-11-20 10:45:00,53.3,53.3,30.26,NE,40,5.0,11.0,100,0.00,,BKN070,0.00,VWS V14.01,2013-11-20 15:45:00,
2013-11-20 10:46:00,53.3,53.3,30.26,NE,40,5.0,11.0,100,0.00,,OVC010,0.00,VWS V14.01,2013-11-20 15:46:00,
2013-11-20 10:47:00,53.3,53.3,30.25,ENE,57,5.0,11.0,100,0.00,,OVC010,0.00,VWS V14.01,2013-11-20 15:47:00,
2013-11-20 10:48:00,53.2,53.2,30.26,North,5,4.0,9.0,100,0.00,,OVC010,0.00,VWS V14.01,2013-11-20 15:48:00,
2013-11-20 10:49:00,53.2,53.2,30.26,North,5,8.0,9.0,100,0.00,,OVC010,0.00,VWS V14.01,2013-11-20 15:49:00,
2013-11-20 10:50:00,53.1,53.1,30.26,NNE,12,4.0,10.0,100,0.00,,BKN070,0.00,VWS V14.01,2013-11-20 15:50:00,
2013-11-20 10:51:00,53.1,53.1,30.26,NNE,12,4.0,10.0,100,0.00,,OVC010,0.00,VWS V14.01,2013-11-20 15:51:00,
2013-11-20 10:52:00,53.1,53.1,30.26,North,355,7.0,7.0,100,0.00,,OVC010,0.00,VWS V14.01,2013-11-20 15:52:00,
2013-11-20 10:53:00,53.1,53.1,30.26,NW,321,7.0,9.0,100,0.00,,OVC010,0.00,VWS V14.01,2013-11-20 15:53:00,
2013-11-20 10:54:00,52.9,52.9,30.26,NNW,348,4.0,15.0,100,0.00,,OVC010,0.00,VWS V14.01,2013-11-20 15:54:00,
2013-11-20 10:55:00,52.9,52.9,30.26,NNE,16,4.0,10.0,100,0.00,,BKN070,0.00,VWS V14.01,2013-11-20 15:55:00,
2013-11-20 10:56:00,52.9,52.9,30.26,NNE,16,4.0,10.0,100,0.00,,OVC010,0.00,VWS V14.01,2013-11-20 15:56:00,
2013-11-20 10:57:00,53.1,53.1,30.26,NNE,28,8.0,11.0,100,0.00,,OVC010,0.00,VWS V14.01,2013-11-20 15:57:00,
2013-11-20 10:58:00,53.1,53.1,30.25,North,5,10.0,13.0,100,0.00,,OVC010,0.00,VWS V14.01,2013-11-20 15:58:00,
2013-11-20 10:59:00,53.1,53.1,30.25,NE,53,6.0,10.0,100,0.00,,OVC010,0.00,VWS V14.01,2013-11-20 15:59:00,
2013-11-20 11:00:00,53.2,53.2,30.25,NE,51,4.0,10.0,100,0.00,,BKN070,0.00,VWS V14.01,2013-11-20 16:00:00,
2013-11-20 11:01:00,53.1,53.1,30.25,North,5,10.0,10.0,100,0.00,,OVC010,0.00,VWS V14.01,2013-11-20 16:01:00,
2013-11-20 11:02:00,53.2,53.2,30.25,North,5,6.0,10.0,100,0.00,,OVC010,0.00,VWS V14.01,2013-11-20 16:02:00,
2013-11-20 11:03:00,53.2,53.2,30.25,NW,325,7.0,10.0,100,0.00,,OVC010,0.00,VWS V14.01,2013-11-20 16:03:00,
2013-11-20 11:04:00,53.3,53.3,30.25,NE,35,3.0,9.0,100,0.00,,OVC010,0.00,VWS V14.01,2013-11-20 16:04:00,
2013-11-20 11:05:00,53.3,53.3,30.25,North,355,7.0,14.0,100,0.00,,BKN070,0.00,VWS V14.01,2013-11-20 16:05:00,
2013-11-20 11:06:00,53.3,53.3,30.25,NNE,26,14.0,14.0,100,0.00,,OVC010,0.00,VWS V14.01,2013-11-20 16:06:00,
2013-11-20 11:07:00,53.3,53.3,30.25,North,360,7.0,15.0,100,0.00,,OVC010,0.00,VWS V14.01,2013-11-20 16:07:00,
2013-11-20 11:08:00,53.3,53.3,30.25,NNE,13,4.0,10.0,100,0.00,,OVC010,0.00,VWS V14.01,2013-11-20 16:08:00,
2013-11-20 11:09:00,53.3,53.3,30.25,NE,36,8.0,10.0,100,0.00,,OVC010,0.00,VWS V14.01,2013-11-20 16:09:00,
2013-11-20 11:10:00,53.3,53.3,30.25,NE,35,3.0,5.0,100,0.00,,BKN070,0.00,VWS V14.01,2013-11-20 16:10:00,
2013-11-20 11:11:00,53.3,53.3,30.25,North,5,5.0,8.0,100,0.00,,OVC010,0.00,VWS V14.01,2013-11-20 16:11:00,
2013-11-20 11:12:00,53.3,53.3,30.25,NNW,348,9.0,9.0,100,0.00,,OVC010,0.00,VWS V14.01,2013-11-20 16:12:00,
2013-11-20 11:13:00,53.3,53.3,30.25,NNE,32,9.0,9.0,100,0.00,,OVC010,0.00,VWS V14.01,2013-11-20 16:13:00,
2013-11-20 11:14:00,53.3,53.3,30.25,NNE,24,4.0,9.0,100,0.00,,OVC010,0.00,VWS V14.01,2013-11-20 16:14:00,
2013-11-20 11:15:00,53.5,53.5,30.24,ENE,57,7.0,11.0,100,0.00,,BKN070,0.00,VWS V14.01,2013-11-20 16:15:00,
2013-11-20 11:16:00,53.5,53.5,30.24,ENE,57,7.0,11.0,100,0.00,,OVC010,0.00,VWS V14.01,2013-11-20 16:16:00,
2013-11-20 11:17:00,53.5,53.5,30.24,ENE,67,4.0,7.0,100,0.00,,OVC010,0.00,VWS V14.01,2013-11-20 16:17:00,
2013-11-20 11:18:00,53.6,53.6,30.24,North,5,6.0,12.0,100,0.00,,OVC010,0.00,VWS V14.01,2013-11-20 16:18:00,
2013-11-20 11:19:00,53.6,53.6,30.24,NNW,344,10.0,12.0,100,0.00,,OVC010,0.00,VWS V14.01,2013-11-20 16:19:00,
2013-11-20 11:20:00,53.8,53.8,30.24,ENE,59,5.0,8.0,100,0.00,,BKN070,0.00,VWS V14.01,2013-11-20 16:20:00,
2013-11-20 11:21:00,53.8,53.8,30.24,ENE,59,5.0,8.0,100,0.00,,OVC010,0.00,VWS V14.01,2013-11-20 16:21:00,
2013-11-20 11:22:00,53.8,53.8,30.24,NNW,338,6.0,7.0,100,0.00,,OVC010,0.00,VWS V14.01,2013-11-20 16:22:00,
2013-11-20 11:23:00,53.9,53.9,30.24,NE,45,3.0,11.0,100,0.00,,OVC010,0.00,VWS V14.01,2013-11-20 16:23:00,
2013-11-20 11:24:00,53.9,53.9,30.24,NNE,16,5.0,7.0,100,0.00,,OVC010,0.00,VWS V14.01,2013-11-20 16:24:00,
2013-11-20 11:25:00,54.1,54.1,30.24,NE,46,4.0,12.0,100,0.00,,BKN070,0.00,VWS V14.01,2013-11-20 16:25:00,
2013-11-20 11:26:00,54.1,54.1,30.24,NE,46,4.0,12.0,100,0.00,,OVC010,0.00,VWS V14.01,2013-11-20 16:26:00,
2013-11-20 11:27:00,54.1,54.1,30.24,NNW,330,5.0,5.0,100,0.00,,OVC010,0.00,VWS V14.01,2013-11-20 16:27:00,
2013-11-20 11:28:00,54.2,54.2,30.24,NNW,348,6.0,6.0,100,0.00,,OVC010,0.00,VWS V14.01,2013-11-20 16:28:00,
2013-11-20 11:29:00,54.2,54.2,30.24,NNW,344,6.0,11.0,100,0.00,,OVC010,0.00,VWS V14.01,2013-11-20 16:29:00,
2013-11-20 11:30:00,54.4,54.4,30.24,NE,53,5.0,9.0,100,0.00,,BKN070,0.00,VWS V14.01,2013-11-20 16:30:00,
2013-11-20 11:31:00,54.4,54.4,30.24,NE,53,5.0,9.0,100,0.00,,OVC010,0.00,VWS V14.01,2013-11-20 16:31:00,
2013-11-20 11:32:00,54.4,54.4,30.24,West,277,5.0,10.0,100,0.00,,OVC010,0.00,VWS V14.01,2013-11-20 16:32:00,
2013-11-20 11:33:00,54.5,54.5,30.24,NE,41,6.0,7.0,100,0.00,,OVC010,0.00,VWS V14.01,2013-11-20 16:33:00,
2013-11-20 11:34:00,54.5,54.5,30.24,ENE,58,6.0,7.0,100,0.00,,OVC010,0.00,VWS V14.01,2013-11-20 16:34:00,
2013-11-20 11:35:00,54.4,54.4,30.24,North,355,4.0,5.0,100,0.00,,BKN070,0.00,VWS V14.01,2013-11-20 16:35:00,
2013-11-20 11:36:00,54.4,54.4,30.24,NNW,327,5.0,11.0,100,0.00,,OVC010,0.00,VWS V14.01,2013-11-20 16:36:00,
2013-11-20 11:37:00,54.4,54.4,30.24,NNE,32,2.0,10.0,100,0.00,,OVC010,0.00,VWS V14.01,2013-11-20 16:37:00,
2013-11-20 11:38:00,54.5,54.5,30.24,NNE,18,6.0,10.0,100,0.00,,OVC010,0.00,VWS V14.01,2013-11-20 16:38:00,
2013-11-20 11:39:00,54.5,54.5,30.24,NNE,20,8.0,8.0,100,0.00,,OVC010,0.00,VWS V14.01,2013-11-20 16:39:00,
2013-11-20 11:40:00,54.5,54.5,30.24,North,5,3.0,6.0,100,0.00,,BKN070,0.00,VWS V14.01,2013-11-20 16:40:00,
2013-11-20 11:41:00,54.5,54.5,30.24,NNW,327,6.0,11.0,100,0.00,,OVC010,0.00,VWS V14.01,2013-11-20 16:41:00,
2013-11-20 11:42:00,54.5,54.5,30.24,NNW,338,4.0,9.0,100,0.00,,OVC010,0.00,VWS V14.01,2013-11-20 16:42:00,
2013-11-20 11:43:00,54.5,54.5,30.24,ENE,61,3.0,7.0,100,0.00,,OVC010,0.00,VWS V14.01,2013-11-20 16:43:00,
2013-11-20 11:44:00,54.5,54.5,30.24,NNW,339,9.0,9.0,100,0.00,,OVC010,0.00,VWS V14.01,2013-11-20 16:44:00,
2013-11-20 11:45:00,54.4,54.4,30.24,NNW,333,9.0,9.0,100,0.00,,BKN070,0.00,VWS V14.01,2013-11-20 16:45:00,
2013-11-20 11:46:00,54.4,54.4,30.24,NNW,333,9.0,9.0,100,0.00,,OVC010,0.00,VWS V14.01,2013-11-20 16:46:00,
2013-11-20 11:47:00,54.4,54.4,30.24,North,350,5.0,11.0,100,0.00,,OVC010,0.00,VWS V14.01,2013-11-20 16:47:00,
2013-11-20 11:48:00,54.4,54.4,30.24,NNW,335,6.0,7.0,100,0.00,,OVC010,0.00,VWS V14.01,2013-11-20 16:48:00,
2013-11-20 11:49:00,54.4,54.4,30.24,North,355,4.0,14.0,100,0.00,,OVC010,0.00,VWS V14.01,2013-11-20 16:49:00,
2013-11-20 11:50:00,54.4,54.4,30.24,NNE,19,10.0,12.0,100,0.00,,BKN070,0.00,VWS V14.01,2013-11-20 16:50:00,
2013-11-20 11:51:00,54.4,54.4,30.24,NNE,19,10.0,12.0,100,0.00,,OVC010,0.00,VWS V14.01,2013-11-20 16:51:00,
2013-11-20 11:52:00,54.2,54.2,30.24,NNW,333,6.0,12.0,100,0.00,,OVC010,0.00,VWS V14.01,2013-11-20 16:52:00,
2013-11-20 11:53:00,54.2,54.2,30.24,NE,54,9.0,11.0,100,0.00,,OVC010,0.00,VWS V14.01,2013-11-20 16:53:00,
2013-11-20 11:54:00,54.2,54.2,30.24,NNW,342,13.0,13.0,100,0.00,,OVC010,0.00,VWS V14.01,2013-11-20 16:54:00,
2013-11-20 11:55:00,54.2,54.2,30.24,NNE,24,9.0,9.0,100,0.00,,BKN070,0.00,VWS V14.01,2013-11-20 16:55:00,
2013-11-20 11:56:00,54.2,54.2,30.24,NNE,24,9.0,9.0,100,0.00,,OVC010,0.00,VWS V14.01,2013-11-20 16:56:00,
2013-11-20 11:57:00,54.2,54.2,30.24,NNW,342,7.0,11.0,100,0.00,,OVC010,0.00,VWS V14.01,2013-11-20 16:57:00,
2013-11-20 11:58:00,54.2,54.2,30.23,NNE,26,5.0,13.0,100,0.00,,OVC010,0.00,VWS V14.01,2013-11-20 16:58:00,
2013-11-20 11:59:00,54.2,54.2,30.23,NNW,346,5.0,7.0,100,0.00,,OVC010,0.00,VWS V14.01,2013-11-20 16:59:00,
2013-11-20 12:00:00,54.2,54.2,30.23,North,355,7.0,10.0,100,0.00,,BKN070,0.00,VWS V14.01,2013-11-20 17:00:00,
2013-11-20 12:01:00,54.2,54.2,30.23,North,355,7.0,10.0,100,0.00,,OVC010,0.00,VWS V14.01,2013-11-20 17:01:00,
2013-11-20 12:02:00,54.2,54.2,30.23,NE,44,6.0,12.0,100,0.00,,OVC010,0.00,VWS V14.01,2013-11-20 17:02:00,
2013-11-20 12:03:00,54.2,54.2,30.23,North,355,4.0,9.0,100,0.00,,OVC010,0.00,VWS V14.01,2013-11-20 17:03:00,
2013-11-20 12:04:00,54.2,54.2,30.23,NNE,13,10.0,12.0,100,0.00,,OVC010,0.00,VWS V14.01,2013-11-20 17:04:00,
2013-11-20 12:05:00,54.2,54.2,30.23,NNW,336,9.0,9.0,100,0.00,,BKN070,0.00,VWS V14.01,2013-11-20 17:05:00,
2013-11-20 12:06:00,54.2,54.2,30.23,NNW,336,9.0,9.0,100,0.00,,OVC010,0.00,VWS V14.01,2013-11-20 17:06:00,
2013-11-20 12:07:00,54.4,54.4,30.23,NNE,28,7.0,10.0,100,0.00,,OVC010,0.00,VWS V14.01,2013-11-20 17:07:00,
2013-11-20 12:08:00,54.2,54.2,30.23,NW,326,6.0,11.0,100,0.00,,OVC010,0.00,VWS V14.01,2013-11-20 17:08:00,
2013-11-20 12:09:00,54.2,54.2,30.23,NE,45,4.0,11.0,100,0.00,,OVC010,0.00,VWS V14.01,2013-11-20 17:09:00,
2013-11-20 12:10:00,54.2,54.2,30.23,NNE,24,9.0,9.0,100,0.00,,BKN070,0.00,VWS V14.01,2013-11-20 17:10:00,
2013-11-20 12:11:00,54.2,54.2,30.23,NNE,24,9.0,9.0,100,0.00,,OVC010,0.00,VWS V14.01,2013-11-20 17:11:00,
2013-11-20 12:12:00,54.2,54.2,30.23,NNE,13,11.0,11.0,100,0.00,,OVC010,0.00,VWS V14.01,2013-11-20 17:12:00,
2013-11-20 12:13:00,54.4,54.4,30.23,NE,53,5.0,11.0,100,0.00,,OVC010,0.00,VWS V14.01,2013-11-20 17:13:00,
2013-11-20 12:14:00,54.4,54.4,30.23,NNW,332,5.0,9.0,100,0.00,,OVC010,0.00,VWS V14.01,2013-11-20 17:14:00,
2013-11-20 12:15:00,54.4,54.4,30.23,NNW,327,12.0,12.0,100,0.00,,BKN070,0.00,VWS V14.01,2013-11-20 17:15:00,
2013-11-20 12:16:00,54.4,54.4,30.23,NNW,346,7.0,7.0,100,0.00,,OVC010,0.00,VWS V14.01,2013-11-20 17:16:00,
2013-11-20 12:17:00,54.4,54.4,30.23,NNW,330,14.0,14.0,100,0.00,,OVC010,0.00,VWS V14.01,2013-11-20 17:17:00,
2013-11-20 12:18:00,54.4,54.4,30.23,NE,44,7.0,14.0,100,0.00,,OVC010,0.00,VWS V14.01,2013-11-20 17:18:00,
2013-11-20 12:19:00,54.4,54.4,30.23,NE,49,5.0,7.0,100,0.00,,OVC010,0.00,VWS V14.01,2013-11-20 17:19:00,
2013-11-20 12:20:00,54.5,54.5,30.23,NE,39,10.0,12.0,100,0.00,,BKN070,0.00,VWS V14.01,2013-11-20 17:20:00,
2013-11-20 12:21:00,54.5,54.5,30.23,NE,39,10.0,12.0,100,0.00,,OVC010,0.00,VWS V14.01,2013-11-20 17:21:00,
2013-11-20 12:22:00,54.5,54.5,30.23,NNE,16,6.0,10.0,100,0.00,,OVC010,0.00,VWS V14.01,2013-11-20 17:22:00,
2013-11-20 12:23:00,54.5,54.5,30.22,NNW,328,5.0,10.0,100,0.00,,OVC010,0.00,VWS V14.01,2013-11-20 17:23:00,
2013-11-20 12:24:00,54.5,54.5,30.22,NNW,344,5.0,15.0,100,0.00,,OVC010,0.00,VWS V14.01,2013-11-20 17:24:00,
2013-11-20 12:25:00,54.7,54.7,30.22,NNE,18,5.0,12.0,100,0.00,,BKN070,0.00,VWS V14.01,2013-11-20 17:25:00,
2013-11-20 12:26:00,54.7,54.7,30.22,NNE,18,5.0,12.0,100,0.00,,OVC010,0.00,VWS V14.01,2013-11-20 17:26:00,
2013-11-20 12:27:00,54.8,54.8,30.22,ENE,75,6.0,7.0,100,0.00,,OVC010,0.00,VWS V14.01,2013-11-20 17:27:00,
2013-11-20 12:28:00,54.8,54.8,30.22,NNE,31,10.0,10.0,100,0.00,,OVC010,0.00,VWS V14.01,2013-11-20 17:28:00,
2013-11-20 12:29:00,54.8,54.8,30.22,NE,42,8.0,11.0,100,0.00,,OVC010,0.00,VWS V14.01,2013-11-20 17:29:00,
2013-11-20 12:30:00,55.0,55.0,30.22,NNE,24,3.0,13.0,100,0.00,,BKN070,0.00,VWS V14.01,2013-11-20 17:30:00,
2013-11-20 12:31:00,55.0,55.0,30.22,NNE,24,3.0,13.0,100,0.00,,OVC010,0.00,VWS V14.01,2013-11-20 17:31:00,
2013-11-20 12:32:00,55.0,55.0,30.22,NNW,339,12.0,12.0,100,0.00,,OVC010,0.00,VWS V14.01,2013-11-20 17:32:00,
2013-11-20 12:33:00,55.1,55.1,30.22,North,5,2.0,12.0,100,0.00,,OVC010,0.00,VWS V14.01,2013-11-20 17:33:00,
2013-11-20 12:34:00,55.1,55.1,30.22,North,5,10.0,10.0,100,0.00,,OVC010,0.00,VWS V14.01,2013-11-20 17:34:00,
2013-11-20 12:35:00,55.3,55.3,30.22,NE,45,6.0,13.0,100,0.00,,BKN070,0.00,VWS V14.01,2013-11-20 17:35:00,
2013-11-20 12:36:00,55.3,55.3,30.22,NE,45,6.0,13.0,100,0.00,,OVC010,0.00,VWS V14.01,2013-11-20 17:36:00,
2013-11-20 12:37:00,55.3,55.3,30.22,NNW,333,11.0,11.0,100,0.00,,OVC010,0.00,VWS V14.01,2013-11-20 17:37:00,
2013-11-20 12:38:00,55.3,55.3,30.22,North,11,4.0,11.0,100,0.00,,OVC010,0.00,VWS V14.01,2013-11-20 17:38:00,
2013-11-20 12:39:00,55.3,55.3,30.22,NNE,32,9.0,9.0,100,0.00,,OVC010,0.00,VWS V14.01,2013-11-20 17:39:00,
2013-11-20 12:40:00,55.4,55.4,30.22,North,5,4.0,4.0,100,0.00,,BKN070,0.00,VWS V14.01,2013-11-20 17:40:00,
2013-11-20 12:41:00,55.4,55.4,30.22,North,5,4.0,4.0,100,0.00,,OVC010,0.00,VWS V14.01,2013-11-20 17:41:00,
2013-11-20 12:42:00,55.4,55.4,30.22,NNW,340,10.0,10.0,100,0.00,,OVC010,0.00,VWS V14.01,2013-11-20 17:42:00,
2013-11-20 12:43:00,55.4,55.4,30.22,NW,304,9.0,11.0,100,0.00,,OVC010,0.00,VWS V14.01,2013-11-20 17:43:00,
2013-11-20 12:44:00,55.4,55.4,30.22,NNE,30,4.0,9.0,100,0.00,,OVC010,0.00,VWS V14.01,2013-11-20 17:44:00,
2013-11-20 12:45:00,55.4,55.4,30.22,North,355,2.0,6.0,100,0.00,,BKN070,0.00,VWS V14.01,2013-11-20 17:45:00,
2013-11-20 12:46:00,55.4,55.4,30.22,NE,38,5.0,6.0,100,0.00,,OVC010,0.00,VWS V14.01,2013-11-20 17:46:00,
2013-11-20 12:47:00,55.4,55.4,30.22,NE,34,4.0,7.0,100,0.00,,OVC010,0.00,VWS V14.01,2013-11-20 17:47:00,
2013-11-20 12:48:00,55.4,55.4,30.22,NE,53,6.0,7.0,100,0.00,,OVC010,0.00,VWS V14.01,2013-11-20 17:48:00,
2013-11-20 12:49:00,55.4,55.4,30.22,NNE,24,11.0,11.0,100,0.00,,OVC010,0.00,VWS V14.01,2013-11-20 17:49:00,
2013-11-20 12:50:00,55.6,55.6,30.22,NE,49,9.0,9.0,100,0.00,,BKN070,0.00,VWS V14.01,2013-11-20 17:50:00,
2013-11-20 12:51:00,55.6,55.6,30.22,NE,49,9.0,9.0,100,0.00,,OVC010,0.00,VWS V14.01,2013-11-20 17:51:00,
2013-11-20 12:52:00,55.6,55.6,30.22,NNE,15,2.0,9.0,100,0.00,,OVC010,0.00,VWS V14.01,2013-11-20 17:52:00,
2013-11-20 12:53:00,55.6,55.6,30.21,NE,36,7.0,11.0,100,0.00,,OVC010,0.00,VWS V14.01,2013-11-20 17:53:00,
2013-11-20 12:54:00,55.7,55.7,30.22,NNE,16,6.0,16.0,100,0.00,,OVC010,0.00,VWS V14.01,2013-11-20 17:54:00,
2013-11-20 12:55:00,55.9,55.9,30.21,ENE,59,5.0,7.0,100,0.00,,BKN070,0.00,VWS V14.01,2013-11-20 17:55:00,
2013-11-20 12:56:00,55.9,55.9,30.21,ENE,59,5.0,7.0,100,0.00,,OVC010,0.00,VWS V14.01,2013-11-20 17:56:00,
2013-11-20 12:57:00,55.9,55.9,30.21,NE,37,4.0,5.0,100,0.00,,OVC010,0.00,VWS V14.01,2013-11-20 17:57:00,
2013-11-20 12:58:00,56.0,56.0,30.21,ENE,59,6.0,14.0,100,0.00,,OVC010,0.00,VWS V14.01,2013-11-20 17:58:00,
2013-11-20 12:59:00,56.2,56.2,30.21,NE,51,3.0,9.0,100,0.00,,OVC010,0.00,VWS V14.01,2013-11-20 17:59:00,
2013-11-20 13:00:00,56.2,56.2,30.21,NNW,345,11.0,11.0,100,0.00,,BKN070,0.00,VWS V14.01,2013-11-20 18:00:00,
2013-11-20 13:01:00,56.2,56.2,30.21,NNW,345,11.0,11.0,100,0.00,,OVC010,0.00,VWS V14.01,2013-11-20 18:01:00,
2013-11-20 13:02:00,56.2,56.2,30.21,NNE,15,10.0,11.0,100,0.00,,OVC010,0.00,VWS V14.01,2013-11-20 18:02:00,
2013-11-20 13:03:00,56.2,56.2,30.21,NE,40,3.0,11.0,100,0.00,,OVC010,0.00,VWS V14.01,2013-11-20 18:03:00,
2013-11-20 13:04:00,56.0,56.0,30.21,North,355,2.0,10.0,100,0.00,,OVC010,0.00,VWS V14.01,2013-11-20 18:04:00,
2013-11-20 13:05:00,56.0,56.0,30.21,NNE,19,6.0,13.0,100,0.00,,BKN070,0.00,VWS V14.01,2013-11-20 18:05:00,
2013-11-20 13:06:00,56.0,56.0,30.21,NNE,19,6.0,13.0,100,0.00,,OVC010,0.00,VWS V14.01,2013-11-20 18:06:00,
2013-11-20 13:07:00,56.0,56.0,30.21,North,5,6.0,10.0,100,0.00,,OVC010,0.00,VWS V14.01,2013-11-20 18:07:00,
2013-11-20 13:08:00,56.0,56.0,30.21,NNE,30,10.0,11.0,100,0.00,,OVC010,0.00,VWS V14.01,2013-11-20 18:08:00,
2013-11-20 13:09:00,56.0,56.0,30.21,NE,40,5.0,11.0,100,0.00,,OVC010,0.00,VWS V14.01,2013-11-20 18:09:00,
2013-11-20 13:10:00,56.0,56.0,30.22,NE,54,6.0,10.0,100,0.00,,BKN070,0.00,VWS V14.01,2013-11-20 18:10:00,
2013-11-20 13:11:00,56.0,56.0,30.22,NNE,24,5.0,10.0,100,0.00,,OVC010,0.00,VWS V14.01,2013-11-20 18:11:00,
2013-11-20 13:12:00,56.0,56.0,30.21,North,9,6.0,11.0,100,0.00,,OVC010,0.00,VWS V14.01,2013-11-20 18:12:00,
2013-11-20 13:13:00,56.0,56.0,30.21,NNW,347,6.0,7.0,100,0.00,,OVC010,0.00,VWS V14.01,2013-11-20 18:13:00,
2013-11-20 13:14:00,56.2,56.2,30.21,NNE,30,7.0,7.0,100,0.00,,OVC010,0.00,VWS V14.01,2013-11-20 18:14:00,
2013-11-20 13:15:00,56.2,56.2,30.21,NE,40,4.0,13.0,100,0.00,,BKN070,0.00,VWS V14.01,2013-11-20 18:15:00,
2013-11-20 13:16:00,56.2,56.2,30.21,NNW,336,7.0,13.0,100,0.00,,OVC010,0.00,VWS V14.01,2013-11-20 18:16:00,
2013-11-20 13:17:00,56.3,56.3,30.21,NE,36,11.0,11.0,100,0.00,,OVC010,0.00,VWS V14.01,2013-11-20 18:17:00,
2013-11-20 13:18:00,56.3,56.3,30.21,NE,53,9.0,11.0,100,0.00,,OVC010,0.00,VWS V14.01,2013-11-20 18:18:00,
2013-11-20 13:19:00,56.3,56.3,30.21,NE,55,9.0,9.0,100,0.00,,OVC010,0.00,VWS V14.01,2013-11-20 18:19:00,
2013-11-20 13:20:00,56.5,56.5,30.21,NE,38,5.0,11.0,100,0.00,,BKN070,0.00,VWS V14.01,2013-11-20 18:20:00,
2013-11-20 13:21:00,56.5,56.5,30.21,NE,47,9.0,11.0,100,0.00,,OVC010,0.00,VWS V14.01,2013-11-20 18:21:00,
2013-11-20 13:22:00,56.5,56.5,30.21,North,5,4.0,9.0,100,0.00,,OVC010,0.00,VWS V14.01,2013-11-20 18:22:00,
2013-11-20 13:23:00,56.5,56.5,30.21,North,5,10.0,13.0,100,0.00,,OVC010,0.00,VWS V14.01,2013-11-20 18:23:00,
2013-11-20 13:24:00,56.6,56.6,30.21,North,350,5.0,10.0,100,0.00,,OVC010,0.00,VWS V14.01,2013-11-20 18:24:00,
2013-11-20 13:25:00,56.7,56.7,30.20,NE,44,4.0,7.0,100,0.00,,BKN070,0.00,VWS V14.01,2013-11-20 18:25:00,
2013-11-20 13:26:00,56.7,56.7,30.20,NE,44,4.0,7.0,100,0.00,,OVC010,0.00,VWS V14.01,2013-11-20 18:26:00,
2013-11-20 13:27:00,56.7,56.7,30.20,NNE,27,3.0,6.0,100,0.00,,OVC010,0.00,VWS V14.01,2013-11-20 18:27:00,
2013-11-20 13:28:00,56.7,56.7,30.21,NNW,348,7.0,10.0,100,0.00,,OVC010,0.00,VWS V14.01,2013-11-20 18:28:00,
2013-11-20 13:29:00,56.7,56.7,30.20,NE,54,6.0,7.0,100,0.00,,OVC010,0.00,VWS V14.01,2013-11-20 18:29:00,
2013-11-20 13:30:00,56.7,56.7,30.20,NNW,327,10.0,15.0,100,0.00,,BKN070,0.00,VWS V14.01,2013-11-20 18:30:00,
2013-11-20 13:31:00,56.7,56.7,30.20,NNW,327,10.0,15.0,100,0.00,,OVC010,0.00,VWS V14.01,2013-11-20 18:31:00,
2013-11-20 13:32:00,56.9,56.9,30.20,NNW,346,3.0,10.0,100,0.00,,OVC010,0.00,VWS V14.01,2013-11-20 18:32:00,
2013-11-20 13:33:00,56.9,56.9,30.20,ENE,58,3.0,6.0,100,0.00,,OVC010,0.00,VWS V14.01,2013-11-20 18:33:00,
2013-11-20 13:34:00,56.9,56.9,30.20,NNE,12,4.0,9.0,100,0.00,,OVC010,0.00,VWS V14.01,2013-11-20 18:34:00,
2013-11-20 13:35:00,56.9,56.9,30.20,NE,49,9.0,10.0,100,0.00,,BKN065,0.00,VWS V14.01,2013-11-20 18:35:00,
2013-11-20 13:36:00,56.9,56.9,30.20,NE,49,9.0,10.0,100,0.00,,OVC010,0.00,VWS V14.01,2013-11-20 18:36:00,
2013-11-20 13:37:00,56.9,56.9,30.20,NNE,24,3.0,9.0,100,0.00,,OVC010,0.00,VWS V14.01,2013-11-20 18:37:00,
2013-11-20 13:38:00,56.9,56.9,30.20,ENE,64,6.0,9.0,100,0.00,,OVC010,0.00,VWS V14.01,2013-11-20 18:38:00,
2013-11-20 13:39:00,56.9,56.9,30.20,NE,56,7.0,9.0,100,0.00,,OVC010,0.00,VWS V14.01,2013-11-20 18:39:00,
2013-11-20 13:40:00,56.9,56.9,30.20,North,5,3.0,10.0,100,0.00,,BKN065,0.00,VWS V14.01,2013-11-20 18:40:00,
2013-11-20 13:41:00,56.9,56.9,30.20,NE,44,5.0,10.0,100,0.00,,OVC010,0.00,VWS V14.01,2013-11-20 18:41:00,
2013-11-20 13:42:00,56.9,56.9,30.20,ENE,57,3.0,11.0,100,0.00,,OVC010,0.00,VWS V14.01,2013-11-20 18:42:00,
2013-11-20 13:43:00,57.0,57.0,30.20,NE,38,5.0,5.0,100,0.00,,OVC010,0.00,VWS V14.01,2013-11-20 18:43:00,
2013-11-20 13:44:00,57.0,57.0,30.20,NNW,334,10.0,10.0,100,0.00,,OVC010,0.00,VWS V14.01,2013-11-20 18:44:00,
2013-11-20 13:45:00,57.0,57.0,30.20,NE,45,9.0,10.0,100,0.00,,BKN065,0.00,VWS V14.01,2013-11-20 18:45:00,
2013-11-20 13:46:00,57.0,57.0,30.20,NNW,345,7.0,10.0,100,0.00,,OVC010,0.00,VWS V14.01,2013-11-20 18:46:00,
2013-11-20 13:47:00,56.9,56.9,30.20,NNW,346,5.0,9.0,100,0.00,,OVC010,0.00,VWS V14.01,2013-11-20 18:47:00,
2013-11-20 13:48:00,56.9,56.9,30.20,NNW,342,7.0,14.0,100,0.00,,OVC010,0.00,VWS V14.01,2013-11-20 18:48:00,
2013-11-20 13:49:00,56.9,56.9,30.20,NNW,336,9.0,9.0,100,0.00,,OVC010,0.00,VWS V14.01,2013-11-20 18:49:00,
2013-11-20 13:50:00,56.7,56.7,30.20,NE,38,7.0,11.0,100,0.00,,BKN065,0.00,VWS V14.01,2013-11-20 18:50:00,
2013-11-20 13:51:00,56.7,56.7,30.20,NE,38,7.0,11.0,100,0.00,,OVC010,0.00,VWS V14.01,2013-11-20 18:51:00,
2013-11-20 13:52:00,56.7,56.7,30.20,NNE,14,3.0,7.0,100,0.00,,OVC010,0.00,VWS V14.01,2013-11-20 18:52:00,
2013-11-20 13:53:00,56.7,56.7,30.20,NE,47,2.0,5.0,100,0.00,,OVC010,0.00,VWS V14.01,2013-11-20 18:53:00,
2013-11-20 13:54:00,56.7,56.7,30.20,North,351,2.0,7.0,100,0.00,,OVC010,0.00,VWS V14.01,2013-11-20 18:54:00,
2013-11-20 13:55:00,56.7,56.7,30.21,East,92,4.0,11.0,100,0.00,,BKN065,0.00,VWS V14.01,2013-11-20 18:55:00,
2013-11-20 13:56:00,56.7,56.7,30.21,East,92,4.0,11.0,100,0.00,,OVC010,0.00,VWS V14.01,2013-11-20 18:56:00,
2013-11-20 13:57:00,56.7,56.7,30.21,NNE,22,4.0,7.0,100,0.00,,OVC010,0.00,VWS V14.01,2013-11-20 18:57:00,
2013-11-20 13:58:00,56.7,56.7,30.21,North,355,6.0,8.0,100,0.00,,OVC010,0.00,VWS V14.01,2013-11-20 18:58:00,
2013-11-20 13:59:00,56.7,56.7,30.21,NNW,331,10.0,10.0,100,0.00,,OVC010,0.00,VWS V14.01,2013-11-20 18:59:00,
2013-11-20 14:00:00,56.7,56.7,30.21,North,355,5.0,11.0,100,0.00,,BKN065,0.00,VWS V14.01,2013-11-20 19:00:00,
2013-11-20 14:01:00,56.7,56.7,30.21,North,355,5.0,11.0,100,0.00,,OVC010,0.00,VWS V14.01,2013-11-20 19:01:00,
2013-11-20 14:02:00,56.7,56.7,30.21,NE,56,9.0,9.0,100,0.00,,OVC010,0.00,VWS V14.01,2013-11-20 19:02:00,
2013-11-20 14:03:00,56.7,56.7,30.21,North,360,6.0,9.0,100,0.00,,OVC010,0.00,VWS V14.01,2013-11-20 19:03:00,
2013-11-20 14:04:00,56.7,56.7,30.21,NNE,15,3.0,9.0,100,0.00,,OVC010,0.00,VWS V14.01,2013-11-20 19:04:00,
2013-11-20 14:05:00,56.7,56.7,30.21,NW,313,6.0,12.0,100,0.00,,BKN065,0.00,VWS V14.01,2013-11-20 19:05:00,
2013-11-20 14:06:00,56.7,56.7,30.21,NNW,344,5.0,12.0,100,0.00,,OVC010,0.00,VWS V14.01,2013-11-20 19:06:00,
2013-11-20 14:07:00,56.7,56.7,30.20,ENE,57,4.0,7.0,100,0.00,,OVC010,0.00,VWS V14.01,2013-11-20 19:07:00,
2013-11-20 14:08:00,56.7,56.7,30.20,NNW,348,6.0,10.0,100,0.00,,OVC010,0.00,VWS V14.01,2013-11-20 19:08:00,
2013-11-20 14:09:00,56.9,56.9,30.20,NNW,335,5.0,8.0,100,0.00,,OVC010,0.00,VWS V14.01,2013-11-20 19:09:00,
2013-11-20 14:10:00,56.9,56.9,30.20,NNW,338,13.0,13.0,100,0.00,,BKN065,0.00,VWS V14.01,2013-11-20 19:10:00,
2013-11-20 14:11:00,56.9,56.9,30.20,NNE,32,4.0,13.0,100,0.00,,OVC010,0.00,VWS V14.01,2013-11-20 19:11:00,
2013-11-20 14:12:00,56.9,56.9,30.20,NE,49,5.0,10.0,100,0.00,,OVC010,0.00,VWS V14.01,2013-11-20 19:12:00,
2013-11-20 14:13:00,56.9,56.9,30.20,NE,50,3.0,10.0,100,0.00,,OVC010,0.00,VWS V14.01,2013-11-20 19:13:00,
2013-11-20 14:14:00,57.0,57.0,30.20,NNW,338,7.0,8.0,100,0.00,,OVC010,0.00,VWS V14.01,2013-11-20 19:14:00,
2013-11-20 14:15:00,57.2,57.2,30.20,NNW,346,9.0,11.0,100,0.00,,BKN065,0.00,VWS V14.01,2013-11-20 19:15:00,
2013-11-20 14:16:00,57.2,57.2,30.20,ENE,59,6.0,11.0,100,0.00,,OVC010,0.00,VWS V14.01,2013-11-20 19:16:00,
2013-11-20 14:17:00,57.3,57.3,30.19,NNW,340,5.0,11.0,100,0.00,,OVC010,0.00,VWS V14.01,2013-11-20 19:17:00,
2013-11-20 14:18:00,57.5,57.5,30.19,NE,36,13.0,13.0,100,0.00,,OVC010,0.00,VWS V14.01,2013-11-20 19:18:00,
2013-11-20 14:19:00,57.6,57.6,30.19,NE,38,4.0,13.0,100,0.00,,OVC010,0.00,VWS V14.01,2013-11-20 19:19:00,
2013-11-20 14:20:00,57.8,57.8,30.19,NE,41,6.0,6.0,100,0.00,,BKN065,0.00,VWS V14.01,2013-11-20 19:20:00,
2013-11-20 14:21:00,58.0,58.0,30.19,NE,55,9.0,9.0,100,0.00,,OVC010,0.00,VWS V14.01,2013-11-20 19:21:00,
2013-11-20 14:22:00,58.0,58.0,30.19,East,84,6.0,9.0,100,0.00,,OVC010,0.00,VWS V14.01,2013-11-20 19:22:00,
2013-11-20 14:23:00,58.1,58.1,30.19,ENE,63,12.0,12.0,100,0.00,,OVC010,0.00,VWS V14.01,2013-11-20 19:23:00,
2013-11-20 14:24:00,58.1,58.1,30.19,NE,44,6.0,12.0,100,0.00,,OVC010,0.00,VWS V14.01,2013-11-20 19:24:00,
2013-11-20 14:25:00,58.1,58.1,30.19,NW,313,6.0,6.0,100,0.00,,BKN065,0.00,VWS V14.01,2013-11-20 19:25:00,
2013-11-20 14:26:00,58.1,58.1,30.19,North,360,6.0,6.0,100,0.00,,OVC010,0.00,VWS V14.01,2013-11-20 19:26:00,
2013-11-20 14:27:00,58.1,58.1,30.19,NNE,25,3.0,10.0,100,0.00,,OVC010,0.00,VWS V14.01,2013-11-20 19:27:00,
2013-11-20 14:28:00,58.1,58.1,30.19,NNE,17,3.0,6.0,100,0.00,,OVC010,0.00,VWS V14.01,2013-11-20 19:28:00,
2013-11-20 14:29:00,58.1,58.1,30.19,NW,315,6.0,10.0,100,0.00,,OVC010,0.00,VWS V14.01,2013-11-20 19:29:00,
2013-11-20 14:30:00,58.1,58.1,30.19,North,360,8.0,13.0,100,0.00,,BKN065,0.00,VWS V14.01,2013-11-20 19:30:00,
2013-11-20 14:31:00,58.1,58.1,30.19,North,360,8.0,13.0,100,0.00,,OVC010,0.00,VWS V14.01,2013-11-20 19:31:00,
2013-11-20 14:32:00,58.1,58.1,30.19,NNE,13,6.0,8.0,100,0.00,,OVC010,0.00,VWS V14.01,2013-11-20 19:32:00,
2013-11-20 14:33:00,58.1,58.1,30.19,NE,37,3.0,7.0,100,0.00,,OVC010,0.00,VWS V14.01,2013-11-20 19:33:00,
2013-11-20 14:34:00,58.1,58.1,30.19,NNE,26,5.0,10.0,100,0.00,,OVC010,0.00,VWS V14.01,2013-11-20 19:34:00,
2013-11-20 14:35:00,58.1,58.1,30.20,North,5,7.0,7.0,100,0.00,,BKN080,0.00,VWS V14.01,2013-11-20 19:35:00,
2013-11-20 14:36:00,58.1,58.1,30.20,North,5,7.0,7.0,100,0.00,,OVC010,0.00,VWS V14.01,2013-11-20 19:36:00,
2013-11-20 14:37:00,58.1,58.1,30.19,NE,34,8.0,8.0,100,0.00,,OVC010,0.00,VWS V14.01,2013-11-20 19:37:00,
2013-11-20 14:38:00,58.1,58.1,30.19,NE,47,6.0,8.0,100,0.00,,OVC010,0.00,VWS V14.01,2013-11-20 19:38:00,
2013-11-20 14:39:00,58.1,58.1,30.19,NE,36,2.0,7.0,100,0.00,,OVC010,0.00,VWS V14.01,2013-11-20 19:39:00,
2013-11-20 14:40:00,58.3,58.3,30.20,NE,49,9.0,11.0,100,0.00,,BKN080,0.00,VWS V14.01,2013-11-20 19:40:00,
2013-11-20 14:41:00,58.3,58.3,30.20,NE,49,9.0,11.0,100,0.00,,OVC010,0.00,VWS V14.01,2013-11-20 19:41:00,
2013-11-20 14:42:00,58.3,58.3,30.20,North,5,6.0,9.0,100,0.00,,OVC010,0.00,VWS V14.01,2013-11-20 19:42:00,
2013-11-20 14:43:00,58.3,58.3,30.20,NE,53,9.0,11.0,100,0.00,,OVC010,0.00,VWS V14.01,2013-11-20 19:43:00,
2013-11-20 14:44:00,58.3,58.3,30.20,NE,34,3.0,10.0,100,0.00,,OVC010,0.00,VWS V14.01,2013-11-20 19:44:00,
2013-11-20 14:45:00,58.3,58.3,30.20,NE,42,2.0,10.0,100,0.00,,BKN080,0.00,VWS V14.01,2013-11-20 19:45:00,
2013-11-20 14:46:00,58.3,58.3,30.20,NE,42,2.0,10.0,100,0.00,,OVC010,0.00,VWS V14.01,2013-11-20 19:46:00,
2013-11-20 14:47:00,58.3,58.3,30.20,NE,48,6.0,10.0,100,0.00,,OVC010,0.00,VWS V14.01,2013-11-20 19:47:00,
2013-11-20 14:48:00,58.3,58.3,30.20,NE,38,6.0,9.0,100,0.00,,OVC010,0.00,VWS V14.01,2013-11-20 19:48:00,
2013-11-20 14:49:00,58.3,58.3,30.20,NNE,22,4.0,7.0,100,0.00,,OVC010,0.00,VWS V14.01,2013-11-20 19:49:00,
2013-11-20 14:50:00,58.3,58.3,30.20,NE,55,10.0,10.0,100,0.00,,BKN080,0.00,VWS V14.01,2013-11-20 19:50:00,
2013-11-20 14:51:00,58.3,58.3,30.20,NE,55,10.0,10.0,100,0.00,,OVC010,0.00,VWS V14.01,2013-11-20 19:51:00,
2013-11-20 14:52:00,58.3,58.3,30.19,NE,38,4.0,11.0,100,0.00,,OVC010,0.00,VWS V14.01,2013-11-20 19:52:00,
2013-11-20 14:53:00,58.3,58.3,30.19,NE,50,3.0,5.0,100,0.00,,OVC010,0.00,VWS V14.01,2013-11-20 19:53:00,
2013-11-20 14:54:00,58.3,58.3,30.19,NNW,342,6.0,6.0,100,0.00,,OVC010,0.00,VWS V14.01,2013-11-20 19:54:00,
2013-11-20 14:55:00,58.3,58.3,30.19,NE,46,5.0,7.0,100,0.00,,BKN080,0.00,VWS V14.01,2013-11-20 19:55:00,
2013-11-20 14:56:00,58.3,58.3,30.19,NE,46,5.0,7.0,100,0.00,,OVC010,0.00,VWS V14.01,2013-11-20 19:56:00,
2013-11-20 14:57:00,58.3,58.3,30.19,North,355,6.0,6.0,100,0.00,,OVC010,0.00,VWS V14.01,2013-11-20 19:57:00,
2013-11-20 14:58:00,58.3,58.3,30.19,NE,51,6.0,6.0,100,0.00,,OVC010,0.00,VWS V14.01,2013-11-20 19:58:00,
2013-11-20 14:59:00,58.3,58.3,30.19,ENE,60,7.0,10.0,100,0.00,,OVC010,0.00,VWS V14.01,2013-11-20 19:59:00,
2013-11-20 15:00:00,58.3,58.3,30.19,NNE,27,6.0,9.0,100,0.00,,BKN080,0.00,VWS V14.01,2013-11-20 20:00:00,
2013-11-20 15:01:00,58.3,58.3,30.19,NNE,27,6.0,9.0,100,0.00,,OVC010,0.00,VWS V14.01,2013-11-20 20:01:00,
2013-11-20 15:02:00,58.3,58.3,30.19,NNW,345,4.0,10.0,100,0.00,,OVC010,0.00,VWS V14.01,2013-11-20 20:02:00,
2013-11-20 15:03:00,58.3,58.3,30.19,ENE,76,3.0,6.0,100,0.00,,OVC010,0.00,VWS V14.01,2013-11-20 20:03:00,
2013-11-20 15:04:00,58.3,58.3,30.20,NE,54,4.0,6.0,100,0.00,,OVC010,0.00,VWS V14.01,2013-11-20 20:04:00,
2013-11-20 15:05:00,58.3,58.3,30.20,North,360,3.0,6.0,100,0.00,,BKN080,0.00,VWS V14.01,2013-11-20 20:05:00,
2013-11-20 15:06:00,58.3,58.3,30.20,NW,320,6.0,6.0,100,0.00,,OVC010,0.00,VWS V14.01,2013-11-20 20:06:00,
2013-11-20 15:07:00,58.3,58.3,30.20,North,355,6.0,6.0,100,0.00,,OVC010,0.00,VWS V14.01,2013-11-20 20:07:00,
2013-11-20 15:08:00,58.3,58.3,30.20,North,355,7.0,11.0,100,0.00,,OVC010,0.00,VWS V14.01,2013-11-20 20:08:00,
2013-11-20 15:09:00,58.3,58.3,30.20,NNW,333,10.0,10.0,100,0.00,,OVC010,0.00,VWS V14.01,2013-11-20 20:09:00,
2013-11-20 15:10:00,58.3,58.3,30.20,NE,53,4.0,10.0,100,0.00,,BKN080,0.00,VWS V14.01,2013-11-20 20:10:00,
2013-11-20 15:11:00,58.3,58.3,30.20,North,9,3.0,10.0,100,0.00,,OVC010,0.00,VWS V14.01,2013-11-20 20:11:00,
2013-11-20 15:12:00,58.3,58.3,30.20,NNE,21,5.0,8.0,100,0.00,,OVC010,0.00,VWS V14.01,2013-11-20 20:12:00,
2013-11-20 15:13:00,58.3,58.3,30.20,ENE,59,2.0,5.0,100,0.00,,OVC010,0.00,VWS V14.01,2013-11-20 20:13:00,
2013-11-20 15:14:00,58.3,58.3,30.20,North,9,5.0,5.0,100,0.00,,OVC010,0.00,VWS V14.01,2013-11-20 20:14:00,
2013-11-20 15:15:00,58.3,58.3,30.20,NE,50,4.0,11.0,100,0.00,,BKN080,0.00,VWS V14.01,2013-11-20 20:15:00,
2013-11-20 15:16:00,58.3,58.3,30.20,NE,50,4.0,11.0,100,0.00,,OVC010,0.00,VWS V14.01,2013-11-20 20:16:00,
2013-11-20 15:17:00,58.3,58.3,30.20,NE,55,7.0,7.0,100,0.00,,OVC010,0.00,VWS V14.01,2013-11-20 20:17:00,
2013-11-20 15:18:00,58.3,58.3,30.20,NE,39,4.0,8.0,100,0.00,,OVC010,0.00,VWS V14.01,2013-11-20 20:18:00,
2013-11-20 15:19:00,58.3,58.3,30.20,NE,53,2.0,4.0,100,0.00,,OVC010,0.00,VWS V14.01,2013-11-20 20:19:00,
2013-11-20 15:20:00,58.4,58.4,30.20,NNE,25,2.0,5.0,100,0.00,,BKN080,0.00,VWS V14.01,2013-11-20 20:20:00,
2013-11-20 15:21:00,58.4,58.4,30.20,NNW,346,3.0,5.0,100,0.00,,OVC010,0.00,VWS V14.01,2013-11-20 20:21:00,
2013-11-20 15:22:00,58.3,58.3,30.20,NE,48,4.0,10.0,100,0.00,,OVC010,0.00,VWS V14.01,2013-11-20 20:22:00,
2013-11-20 15:23:00,58.3,58.3,30.20,ENE,67,5.0,8.0,100,0.00,,OVC010,0.00,VWS V14.01,2013-11-20 20:23:00,
2013-11-20 15:24:00,58.3,58.3,30.20,NE,46,4.0,8.0,100,0.00,,OVC010,0.00,VWS V14.01,2013-11-20 20:24:00,
2013-11-20 15:25:00,58.3,58.3,30.20,NW,321,6.0,6.0,100,0.00,,BKN080,0.00,VWS V14.01,2013-11-20 20:25:00,
2013-11-20 15:26:00,58.3,58.3,30.20,North,355,2.0,6.0,100,0.00,,OVC010,0.00,VWS V14.01,2013-11-20 20:26:00,
2013-11-20 15:27:00,58.3,58.3,30.20,NNE,19,4.0,7.0,100,0.00,,OVC010,0.00,VWS V14.01,2013-11-20 20:27:00,
2013-11-20 15:28:00,58.3,58.3,30.20,NE,55,5.0,7.0,100,0.00,,OVC010,0.00,VWS V14.01,2013-11-20 20:28:00,
2013-11-20 15:29:00,58.1,58.1,30.20,NNE,25,9.0,9.0,100,0.00,,OVC010,0.00,VWS V14.01,2013-11-20 20:29:00,
2013-11-20 15:30:00,58.1,58.1,30.20,NNE,19,3.0,3.0,100,0.00,,BKN080,0.00,VWS V14.01,2013-11-20 20:30:00,
2013-11-20 15:31:00,58.1,58.1,30.20,NE,53,9.0,9.0,100,0.00,,OVC010,0.00,VWS V14.01,2013-11-20 20:31:00,
2013-11-20 15:32:00,58.1,58.1,30.20,NW,318,4.0,9.0,100,0.00,,OVC010,0.00,VWS V14.01,2013-11-20 20:32:00,
2013-11-20 15:33:00,58.1,58.1,30.20,NE,54,10.0,10.0,100,0.00,,OVC010,0.00,VWS V14.01,2013-11-20 20:33:00,
2013-11-20 15:34:00,58.1,58.1,30.20,NW,324,4.0,10.0,100,0.00,,OVC010,0.00,VWS V14.01,2013-11-20 20:34:00,
2013-11-20 15:35:00,58.1,58.1,30.20,NE,46,5.0,7.0,100,0.00,,OVC023,0.00,VWS V14.01,2013-11-20 20:35:00,
2013-11-20 15:36:00,58.3,58.3,30.20,ENE,62,6.0,7.0,100,0.00,,OVC010,0.00,VWS V14.01,2013-11-20 20:36:00,
2013-11-20 15:37:00,58.1,58.1,30.21,NE,46,3.0,13.0,100,0.00,,OVC010,0.00,VWS V14.01,2013-11-20 20:37:00,
2013-11-20 15:38:00,58.1,58.1,30.21,NE,35,5.0,5.0,100,0.00,,OVC010,0.00,VWS V14.01,2013-11-20 20:38:00,
2013-11-20 15:39:00,58.1,58.1,30.21,NE,46,12.0,12.0,100,0.00,,OVC010,0.00,VWS V14.01,2013-11-20 20:39:00,
2013-11-20 15:40:00,58.1,58.1,30.21,East,80,2.0,10.0,100,0.00,,OVC023,0.00,VWS V14.01,2013-11-20 20:40:00,
2013-11-20 15:41:00,58.1,58.1,30.21,NE,40,5.0,10.0,100,0.00,,OVC010,0.00,VWS V14.01,2013-11-20 20:41:00,
2013-11-20 15:42:00,58.1,58.1,30.21,NNE,32,3.0,5.0,100,0.00,,OVC010,0.00,VWS V14.01,2013-11-20 20:42:00,
2013-11-20 15:43:00,58.1,58.1,30.21,ENE,63,5.0,6.0,100,0.00,,OVC010,0.00,VWS V14.01,2013-11-20 20:43:00,
2013-11-20 15:44:00,58.1,58.1,30.21,NE,38,6.0,6.0,100,0.00,,OVC010,0.00,VWS V14.01,2013-11-20 20:44:00,
2013-11-20 15:45:00,58.1,58.1,30.21,NE,55,7.0,7.0,100,0.00,,OVC023,0.00,VWS V14.01,2013-11-20 20:45:00,
2013-11-20 15:46:00,58.1,58.1,30.21,ENE,59,7.0,7.0,100,0.00,,OVC010,0.00,VWS V14.01,2013-11-20 20:46:00,
2013-11-20 15:47:00,58.1,58.1,30.21,NNE,25,1.0,7.0,100,0.00,,OVC010,0.00,VWS V14.01,2013-11-20 20:47:00,
2013-11-20 15:48:00,58.1,58.1,30.21,NE,52,3.0,5.0,100,0.00,,OVC010,0.00,VWS V14.01,2013-11-20 20:48:00,
2013-11-20 15:49:00,58.1,58.1,30.21,ENE,57,5.0,7.0,100,0.00,,OVC010,0.00,VWS V14.01,2013-11-20 20:49:00,
2013-11-20 15:50:00,58.1,58.1,30.21,NNE,30,14.0,14.0,100,0.00,,OVC023,0.00,VWS V14.01,2013-11-20 20:50:00,
2013-11-20 15:51:00,58.1,58.1,30.21,NW,325,5.0,14.0,100,0.00,,OVC010,0.00,VWS V14.01,2013-11-20 20:51:00,
2013-11-20 15:52:00,58.1,58.1,30.21,ENE,57,4.0,5.0,100,0.00,,OVC010,0.00,VWS V14.01,2013-11-20 20:52:00,
2013-11-20 15:53:00,58.1,58.1,30.21,North,5,6.0,6.0,100,0.00,,OVC010,0.00,VWS V14.01,2013-11-20 20:53:00,
2013-11-20 15:54:00,58.1,58.1,30.21,NE,52,3.0,8.0,100,0.00,,OVC010,0.00,VWS V14.01,2013-11-20 20:54:00,
2013-11-20 15:55:00,58.1,58.1,30.21,NNW,336,7.0,15.0,100,0.00,,OVC023,0.00,VWS V14.01,2013-11-20 20:55:00,
2013-11-20 15:56:00,58.1,58.1,30.21,NNE,13,5.0,15.0,100,0.00,,OVC010,0.00,VWS V14.01,2013-11-20 20:56:00,
2013-11-20 15:57:00,58.1,58.1,30.21,NE,42,4.0,7.0,100,0.00,,OVC010,0.00,VWS V14.01,2013-11-20 20:57:00,
2013-11-20 15:58:00,58.3,58.3,30.21,ENE,59,2.0,10.0,100,0.00,,OVC010,0.00,VWS V14.01,2013-11-20 20:58:00,
2013-11-20 15:59:00,58.3,58.3,30.21,NW,318,6.0,6.0,100,0.00,,OVC010,0.00,VWS V14.01,2013-11-20 20:59:00,
2013-11-20 16:00:00,58.3,58.3,30.21,NNW,338,9.0,12.0,100,0.00,,OVC023,0.00,VWS V14.01,2013-11-20 21:00:00,
2013-11-20 16:01:00,58.3,58.3,30.21,NNW,338,9.0,12.0,100,0.00,,OVC010,0.00,VWS V14.01,2013-11-20 21:01:00,
2013-11-20 16:02:00,58.3,58.3,30.21,NE,49,5.0,13.0,100,0.00,,OVC010,0.00,VWS V14.01,2013-11-20 21:02:00,
2013-11-20 16:03:00,58.3,58.3,30.21,NE,56,4.0,11.0,100,0.00,,OVC010,0.00,VWS V14.01,2013-11-20 21:03:00,
2013-11-20 16:04:00,58.3,58.3,30.21,NE,49,9.0,12.0,100,0.00,,OVC010,0.00,VWS V14.01,2013-11-20 21:04:00,
2013-11-20 16:05:00,58.3,58.3,30.21,NE,35,9.0,11.0,100,0.00,,OVC023,0.00,VWS V14.01,2013-11-20 21:05:00,
2013-11-20 16:06:00,58.3,58.3,30.21,NE,49,11.0,11.0,100,0.00,,OVC010,0.00,VWS V14.01,2013-11-20 21:06:00,
2013-11-20 16:07:00,58.3,58.3,30.21,NNW,340,10.0,11.0,100,0.00,,OVC010,0.00,VWS V14.01,2013-11-20 21:07:00,
2013-11-20 16:08:00,58.3,58.3,30.21,NNE,24,7.0,10.0,100,0.00,,OVC010,0.00,VWS V14.01,2013-11-20 21:08:00,
2013-11-20 16:09:00,58.3,58.3,30.21,NE,42,5.0,7.0,100,0.00,,OVC010,0.00,VWS V14.01,2013-11-20 21:09:00,
2013-11-20 16:10:00,58.3,58.3,30.21,NE,41,2.0,6.0,100,0.00,,OVC023,0.00,VWS V14.01,2013-11-20 21:10:00,
2013-11-20 16:11:00,58.3,58.3,30.21,West,279,3.0,6.0,100,0.00,,OVC010,0.00,VWS V14.01,2013-11-20 21:11:00,
2013-11-20 16:12:00,58.3,58.3,30.21,ENE,58,5.0,7.0,100,0.00,,OVC010,0.00,VWS V14.01,2013-11-20 21:12:00,
2013-11-20 16:13:00,58.3,58.3,30.21,North,355,9.0,10.0,100,0.00,,OVC010,0.00,VWS V14.01,2013-11-20 21:13:00,
2013-11-20 16:14:00,58.3,58.3,30.21,NE,41,5.0,10.0,100,0.00,,OVC010,0.00,VWS V14.01,2013-11-20 21:14:00,
2013-11-20 16:15:00,58.3,58.3,30.21,NE,56,4.0,4.0,100,0.00,,OVC023,0.00,VWS V14.01,2013-11-20 21:15:00,
2013-11-20 16:16:00,58.3,58.3,30.21,NE,46,7.0,7.0,100,0.00,,OVC010,0.00,VWS V14.01,2013-11-20 21:16:00,
2013-11-20 16:17:00,58.3,58.3,30.21,ENE,67,5.0,7.0,100,0.00,,OVC010,0.00,VWS V14.01,2013-11-20 21:17:00,
2013-11-20 16:18:00,58.3,58.3,30.21,ENE,61,3.0,7.0,100,0.00,,OVC010,0.00,VWS V14.01,2013-11-20 21:18:00,
2013-11-20 16:19:00,58.3,58.3,30.21,NNW,339,4.0,7.0,100,0.00,,OVC010,0.00,VWS V14.01,2013-11-20 21:19:00,
2013-11-20 16:20:00,58.3,58.3,30.21,NNE,19,3.0,5.0,100,0.00,,OVC023,0.00,VWS V14.01,2013-11-20 21:20:00,
2013-11-20 16:21:00,58.3,58.3,30.21,NE,51,9.0,9.0,100,0.00,,OVC010,0.00,VWS V14.01,2013-11-20 21:21:00,
2013-11-20 16:22:00,58.3,58.3,30.21,North,360,7.0,9.0,100,0.00,,OVC010,0.00,VWS V14.01,2013-11-20 21:22:00,
2013-11-20 16:23:00,58.3,58.3,30.21,NW,313,5.0,7.0,100,0.00,,OVC010,0.00,VWS V14.01,2013-11-20 21:23:00,
2013-11-20 16:24:00,58.3,58.3,30.22,NE,39,5.0,5.0,100,0.00,,OVC010,0.00,VWS V14.01,2013-11-20 21:24:00,
2013-11-20 16:25:00,58.3,58.3,30.22,NE,56,6.0,10.0,100,0.00,,OVC023,0.00,VWS V14.01,2013-11-20 21:25:00,
2013-11-20 16:26:00,58.3,58.3,30.22,NE,56,6.0,10.0,100,0.00,,OVC010,0.00,VWS V14.01,2013-11-20 21:26:00,
2013-11-20 16:27:00,58.3,58.3,30.22,NE,34,5.0,10.0,100,0.00,,OVC010,0.00,VWS V14.01,2013-11-20 21:27:00,
2013-11-20 16:28:00,58.3,58.3,30.22,NNE,26,17.0,17.0,100,0.00,,OVC010,0.00,VWS V14.01,2013-11-20 21:28:00,
2013-11-20 16:29:00,58.3,58.3,30.22,ENE,59,4.0,17.0,100,0.00,,OVC010,0.00,VWS V14.01,2013-11-20 21:29:00,
2013-11-20 16:30:00,58.3,58.3,30.22,NE,46,9.0,9.0,100,0.00,,OVC023,0.00,VWS V14.01,2013-11-20 21:30:00,
2013-11-20 16:31:00,58.3,58.3,30.22,NE,46,9.0,9.0,100,0.00,,OVC010,0.00,VWS V14.01,2013-11-20 21:31:00,
2013-11-20 16:32:00,58.3,58.3,30.22,North,355,6.0,10.0,100,0.00,,OVC010,0.00,VWS V14.01,2013-11-20 21:32:00,
2013-11-20 16:33:00,58.3,58.3,30.22,ENE,69,2.0,6.0,100,0.00,,OVC010,0.00,VWS V14.01,2013-11-20 21:33:00,
2013-11-20 16:34:00,58.3,58.3,30.22,NE,46,10.0,10.0,100,0.00,,OVC010,0.00,VWS V14.01,2013-11-20 21:34:00,
2013-11-20 16:35:00,58.3,58.3,30.22,NNW,338,4.0,6.0,100,0.00,,OVC022,0.00,VWS V14.01,2013-11-20 21:35:00,
2013-11-20 16:36:00,58.3,58.3,30.22,North,5,4.0,6.0,100,0.00,,OVC010,0.00,VWS V14.01,2013-11-20 21:36:00,
2013-11-20 16:37:00,58.3,58.3,30.22,NNE,32,7.0,12.0,100,0.00,,OVC010,0.00,VWS V14.01,2013-11-20 21:37:00,
2013-11-20 16:38:00,58.1,58.1,30.22,NE,51,6.0,7.0,100,0.00,,OVC010,0.00,VWS V14.01,2013-11-20 21:38:00,
2013-11-20 16:39:00,58.1,58.1,30.22,NE,34,6.0,7.0,100,0.00,,OVC010,0.00,VWS V14.01,2013-11-20 21:39:00,
2013-11-20 16:40:00,58.1,58.1,30.22,NNE,17,4.0,9.0,100,0.00,,OVC022,0.00,VWS V14.01,2013-11-20 21:40:00,
2013-11-20 16:41:00,58.1,58.1,30.22,ENE,58,7.0,9.0,100,0.00,,OVC010,0.00,VWS V14.01,2013-11-20 21:41:00,
2013-11-20 16:42:00,58.1,58.1,30.22,NE,52,3.0,11.0,100,0.00,,OVC010,0.00,VWS V14.01,2013-11-20 21:42:00,
2013-11-20 16:43:00,58.1,58.1,30.22,NE,38,6.0,6.0,100,0.00,,OVC010,0.00,VWS V14.01,2013-11-20 21:43:00,
2013-11-20 16:44:00,58.1,58.1,30.22,NNE,33,6.0,14.0,100,0.00,,OVC010,0.00,VWS V14.01,2013-11-20 21:44:00,
2013-11-20 16:45:00,58.1,58.1,30.22,NNE,30,4.0,12.0,100,0.00,,OVC022,0.00,VWS V14.01,2013-11-20 21:45:00,
2013-11-20 16:46:00,58.1,58.1,30.22,NNE,13,6.0,12.0,100,0.00,,OVC010,0.00,VWS V14.01,2013-11-20 21:46:00,
2013-11-20 16:47:00,58.1,58.1,30.22,NE,49,10.0,10.0,100,0.00,,OVC010,0.00,VWS V14.01,2013-11-20 21:47:00,
2013-11-20 16:48:00,58.1,58.1,30.22,NE,45,4.0,10.0,100,0.00,,OVC010,0.00,VWS V14.01,2013-11-20 21:48:00,
2013-11-20 16:49:00,58.1,58.1,30.22,NE,35,2.0,4.0,100,0.00,,OVC010,0.00,VWS V14.01,2013-11-20 21:49:00,
2013-11-20 16:50:00,58.1,58.1,30.22,NE,38,3.0,5.0,100,0.00,,OVC022,0.00,VWS V14.01,2013-11-20 21:50:00,
2013-11-20 16:51:00,58.1,58.1,30.22,North,349,3.0,5.0,100,0.00,,OVC010,0.00,VWS V14.01,2013-11-20 21:51:00,
2013-11-20 16:52:00,58.1,58.1,30.22,NE,49,5.0,13.0,100,0.00,,OVC010,0.00,VWS V14.01,2013-11-20 21:52:00,
2013-11-20 16:53:00,58.1,58.1,30.22,NE,49,2.0,5.0,100,0.00,,OVC010,0.00,VWS V14.01,2013-11-20 21:53:00,
2013-11-20 16:54:00,58.1,58.1,30.22,NE,34,3.0,7.0,100,0.00,,OVC010,0.00,VWS V14.01,2013-11-20 21:54:00,
2013-11-20 16:55:00,58.1,58.1,30.22,NE,53,11.0,11.0,100,0.00,,OVC022,0.00,VWS V14.01,2013-11-20 21:55:00,
2013-11-20 16:56:00,58.1,58.1,30.22,ENE,58,4.0,11.0,100,0.00,,OVC010,0.00,VWS V14.01,2013-11-20 21:56:00,
2013-11-20 16:57:00,58.1,58.1,30.23,NNE,30,3.0,4.0,100,0.00,,OVC010,0.00,VWS V14.01,2013-11-20 21:57:00,
2013-11-20 16:58:00,58.1,58.1,30.23,NNE,17,5.0,6.0,100,0.00,,OVC010,0.00,VWS V14.01,2013-11-20 21:58:00,
2013-11-20 16:59:00,58.1,58.1,30.23,NNE,32,2.0,5.0,100,0.00,,OVC010,0.00,VWS V14.01,2013-11-20 21:59:00,
2013-11-20 17:00:00,58.1,58.1,30.23,North,5,4.0,5.0,100,0.00,,OVC022,0.00,VWS V14.01,2013-11-20 22:00:00,
2013-11-20 17:01:00,58.1,58.1,30.23,North,5,4.0,5.0,100,0.00,,OVC010,0.00,VWS V14.01,2013-11-20 22:01:00,
2013-11-20 17:02:00,58.1,58.1,30.22,NNW,329,5.0,11.0,100,0.00,,OVC010,0.00,VWS V14.01,2013-11-20 22:02:00,
2013-11-20 17:03:00,58.0,58.0,30.22,ENE,64,4.0,5.0,100,0.00,,OVC010,0.00,VWS V14.01,2013-11-20 22:03:00,
2013-11-20 17:04:00,58.0,58.0,30.23,NE,51,6.0,10.0,100,0.00,,OVC010,0.00,VWS V14.01,2013-11-20 22:04:00,
2013-11-20 17:05:00,58.0,58.0,30.23,North,5,3.0,4.0,100,0.00,,OVC022,0.00,VWS V14.01,2013-11-20 22:05:00,
2013-11-20 17:06:00,58.0,58.0,30.23,North,5,3.0,4.0,100,0.00,,OVC010,0.00,VWS V14.01,2013-11-20 22:06:00,
2013-11-20 17:07:00,58.0,58.0,30.23,NE,37,5.0,9.0,100,0.00,,OVC010,0.00,VWS V14.01,2013-11-20 22:07:00,
2013-11-20 17:08:00,58.0,58.0,30.23,NE,40,3.0,5.0,100,0.00,,OVC010,0.00,VWS V14.01,2013-11-20 22:08:00,
2013-11-20 17:09:00,58.0,58.0,30.23,NE,43,2.0,5.0,100,0.00,,OVC010,0.00,VWS V14.01,2013-11-20 22:09:00,
2013-11-20 17:10:00,57.8,57.8,30.23,NE,34,3.0,5.0,100,0.00,,OVC022,0.00,VWS V14.01,2013-11-20 22:10:00,
2013-11-20 17:11:00,57.8,57.8,30.23,NE,34,3.0,5.0,100,0.00,,OVC010,0.00,VWS V14.01,2013-11-20 22:11:00,
2013-11-20 17:12:00,57.8,57.8,30.23,NE,43,9.0,9.0,100,0.00,,OVC010,0.00,VWS V14.01,2013-11-20 22:12:00,
2013-11-20 17:13:00,57.8,57.8,30.23,NE,39,1.0,10.0,100,0.00,,OVC010,0.00,VWS V14.01,2013-11-20 22:13:00,
2013-11-20 17:14:00,57.8,57.8,30.23,NW,321,4.0,7.0,100,0.00,,OVC010,0.00,VWS V14.01,2013-11-20 22:14:00,
2013-11-20 17:15:00,57.8,57.8,30.23,ENE,57,3.0,6.0,100,0.00,,OVC022,0.00,VWS V14.01,2013-11-20 22:15:00,
2013-11-20 17:16:00,57.8,57.8,30.23,ENE,57,3.0,6.0,100,0.00,,OVC010,0.00,VWS V14.01,2013-11-20 22:16:00,
2013-11-20 17:17:00,57.8,57.8,30.23,NE,38,2.0,7.0,100,0.00,,OVC010,0.00,VWS V14.01,2013-11-20 22:17:00,
2013-11-20 17:18:00,57.6,57.6,30.23,NE,56,6.0,6.0,100,0.00,,OVC010,0.00,VWS V14.01,2013-11-20 22:18:00,
2013-11-20 17:19:00,57.6,57.6,30.23,NE,43,2.0,6.0,100,0.00,,OVC010,0.00,VWS V14.01,2013-11-20 22:19:00,
2013-11-20 17:20:00,57.6,57.6,30.23,NE,38,10.0,10.0,100,0.00,,OVC022,0.00,VWS V14.01,2013-11-20 22:20:00,
2013-11-20 17:21:00,57.6,57.6,30.23,NE,55,5.0,10.0,100,0.00,,OVC010,0.00,VWS V14.01,2013-11-20 22:21:00,
2013-11-20 17:22:00,57.6,57.6,30.23,NNE,22,5.0,7.0,100,0.00,,OVC010,0.00,VWS V14.01,2013-11-20 22:22:00,
2013-11-20 17:23:00,57.6,57.6,30.23,ESE,109,3.0,7.0,100,0.00,,OVC010,0.00,VWS V14.01,2013-11-20 22:23:00,
2013-11-20 17:24:00,57.6,57.6,30.23,NE,40,4.0,6.0,100,0.00,,OVC010,0.00,VWS V14.01,2013-11-20 22:24:00,
2013-11-20 17:25:00,57.6,57.6,30.23,North,5,3.0,6.0,100,0.00,,OVC022,0.00,VWS V14.01,2013-11-20 22:25:00,
2013-11-20 17:26:00,57.6,57.6,30.23,North,9,2.0,6.0,100,0.00,,OVC010,0.00,VWS V14.01,2013-11-20 22:26:00,
2013-11-20 17:27:00,57.6,57.6,30.23,North,9,2.0,10.0,100,0.00,,OVC010,0.00,VWS V14.01,2013-11-20 22:27:00,
2013-11-20 17:28:00,57.6,57.6,30.23,NNW,346,7.0,11.0,100,0.00,,OVC010,0.00,VWS V14.01,2013-11-20 22:28:00,
2013-11-20 17:29:00,57.6,57.6,30.23,NE,41,6.0,7.0,100,0.00,,OVC010,0.00,VWS V14.01,2013-11-20 22:29:00,
2013-11-20 17:30:00,57.6,57.6,30.23,North,5,5.0,11.0,100,0.00,,OVC022,0.00,VWS V14.01,2013-11-20 22:30:00,
2013-11-20 17:31:00,57.6,57.6,30.23,NNE,32,4.0,11.0,100,0.00,,OVC010,0.00,VWS V14.01,2013-11-20 22:31:00,
2013-11-20 17:32:00,57.6,57.6,30.23,NNW,340,7.0,7.0,100,0.00,,OVC010,0.00,VWS V14.01,2013-11-20 22:32:00,
2013-11-20 17:33:00,57.6,57.6,30.23,WNW,291,6.0,9.0,100,0.00,,OVC010,0.00,VWS V14.01,2013-11-20 22:33:00,
2013-11-20 17:34:00,57.6,57.6,30.23,ENE,59,3.0,7.0,100,0.00,,OVC010,0.00,VWS V14.01,2013-11-20 22:34:00,
2013-11-20 17:35:00,57.6,57.6,30.24,NE,42,3.0,8.0,100,0.00,,OVC022,0.00,VWS V14.01,2013-11-20 22:35:00,
2013-11-20 17:36:00,57.6,57.6,30.24,NNW,348,5.0,8.0,100,0.00,,OVC010,0.00,VWS V14.01,2013-11-20 22:36:00,
2013-11-20 17:37:00,57.6,57.6,30.23,NE,46,4.0,5.0,100,0.00,,OVC010,0.00,VWS V14.01,2013-11-20 22:37:00,
2013-11-20 17:38:00,57.5,57.5,30.23,NE,49,5.0,7.0,100,0.00,,OVC010,0.00,VWS V14.01,2013-11-20 22:38:00,
2013-11-20 17:39:00,57.5,57.5,30.24,North,11,3.0,6.0,100,0.00,,OVC010,0.00,VWS V14.01,2013-11-20 22:39:00,
2013-11-20 17:40:00,57.5,57.5,30.24,NE,50,2.0,6.0,100,0.00,,OVC022,0.00,VWS V14.01,2013-11-20 22:40:00,
2013-11-20 17:41:00,57.5,57.5,30.24,NE,50,4.0,6.0,100,0.00,,OVC010,0.00,VWS V14.01,2013-11-20 22:41:00,
2013-11-20 17:42:00,57.5,57.5,30.24,North,355,2.0,5.0,100,0.00,,OVC010,0.00,VWS V14.01,2013-11-20 22:42:00,
2013-11-20 17:43:00,57.5,57.5,30.24,NE,37,4.0,5.0,100,0.00,,OVC010,0.00,VWS V14.01,2013-11-20 22:43:00,
2013-11-20 17:44:00,57.5,57.5,30.24,NE,50,3.0,5.0,100,0.00,,OVC010,0.00,VWS V14.01,2013-11-20 22:44:00,
2013-11-20 17:45:00,57.5,57.5,30.24,NE,41,3.0,6.0,100,0.00,,OVC022,0.00,VWS V14.01,2013-11-20 22:45:00,
2013-11-20 17:46:00,57.5,57.5,30.24,NE,41,3.0,6.0,100,0.00,,OVC010,0.00,VWS V14.01,2013-11-20 22:46:00,
2013-11-20 17:47:00,57.5,57.5,30.24,North,10,5.0,6.0,100,0.00,,OVC010,0.00,VWS V14.01,2013-11-20 22:47:00,
2013-11-20 17:48:00,57.5,57.5,30.24,NNE,14,10.0,10.0,100,0.00,,OVC010,0.00,VWS V14.01,2013-11-20 22:48:00,
2013-11-20 17:49:00,57.5,57.5,30.24,NNE,27,4.0,10.0,100,0.00,,OVC010,0.00,VWS V14.01,2013-11-20 22:49:00,
2013-11-20 17:50:00,57.5,57.5,30.24,North,360,3.0,7.0,100,0.00,,OVC022,0.00,VWS V14.01,2013-11-20 22:50:00,
2013-11-20 17:51:00,57.5,57.5,30.24,NE,44,7.0,7.0,100,0.00,,OVC010,0.00,VWS V14.01,2013-11-20 22:51:00,
2013-11-20 17:52:00,57.5,57.5,30.24,North,350,5.0,7.0,100,0.00,,OVC010,0.00,VWS V14.01,2013-11-20 22:52:00,
2013-11-20 17:53:00,57.5,57.5,30.24,NNE,28,4.0,5.0,100,0.00,,OVC010,0.00,VWS V14.01,2013-11-20 22:53:00,
2013-11-20 17:54:00,57.5,57.5,30.24,NNE,13,3.0,6.0,100,0.00,,OVC010,0.00,VWS V14.01,2013-11-20 22:54:00,
2013-11-20 17:55:00,57.5,57.5,30.24,ENE,63,4.0,9.0,100,0.00,,OVC022,0.00,VWS V14.01,2013-11-20 22:55:00,
2013-11-20 17:56:00,57.5,57.5,30.24,NE,39,3.0,9.0,100,0.00,,OVC010,0.00,VWS V14.01,2013-11-20 22:56:00,
2013-11-20 17:57:00,57.5,57.5,30.24,NE,47,7.0,7.0,100,0.00,,OVC010,0.00,VWS V14.01,2013-11-20 22:57:00,
2013-11-20 17:58:00,57.5,57.5,30.24,NE,51,6.0,7.0,100,0.00,,OVC010,0.00,VWS V14.01,2013-11-20 22:58:00,
2013-11-20 17:59:00,57.5,57.5,30.24,NNE,28,3.0,6.0,100,0.00,,OVC010,0.00,VWS V14.01,2013-11-20 22:59:00,
2013-11-20 18:00:00,57.5,57.5,30.24,NNE,22,2.0,7.0,100,0.00,,OVC022,0.00,VWS V14.01,2013-11-20 23:00:00,
2013-11-20 18:01:00,57.5,57.5,30.24,East,86,3.0,7.0,100,0.00,,OVC010,0.00,VWS V14.01,2013-11-20 23:01:00,
2013-11-20 18:02:00,57.5,57.5,30.24,ENE,61,1.0,3.0,100,0.00,,OVC010,0.00,VWS V14.01,2013-11-20 23:02:00,
2013-11-20 18:03:00,57.5,57.5,30.24,NE,35,3.0,11.0,100,0.00,,OVC010,0.00,VWS V14.01,2013-11-20 23:03:00,
2013-11-20 18:04:00,57.5,57.5,30.24,North,349,4.0,6.0,100,0.00,,OVC010,0.00,VWS V14.01,2013-11-20 23:04:00,
2013-11-20 18:05:00,57.5,57.5,30.24,NE,38,4.0,11.0,100,0.00,,OVC022,0.00,VWS V14.01,2013-11-20 23:05:00,
2013-11-20 18:06:00,57.5,57.5,30.24,NE,40,5.0,11.0,100,0.00,,OVC010,0.00,VWS V14.01,2013-11-20 23:06:00,
2013-11-20 18:07:00,57.5,57.5,30.25,NE,51,12.0,12.0,100,0.00,,OVC010,0.00,VWS V14.01,2013-11-20 23:07:00,
2013-11-20 18:08:00,57.5,57.5,30.25,NE,40,4.0,12.0,100,0.00,,OVC010,0.00,VWS V14.01,2013-11-20 23:08:00,
2013-11-20 18:09:00,57.5,57.5,30.24,ENE,62,4.0,9.0,100,0.00,,OVC010,0.00,VWS V14.01,2013-11-20 23:09:00,
2013-11-20 18:10:00,57.5,57.5,30.25,NNE,19,11.0,14.0,100,0.00,,OVC022,0.00,VWS V14.01,2013-11-20 23:10:00,
2013-11-20 18:11:00,57.5,57.5,30.24,NE,56,10.0,14.0,100,0.00,,OVC010,0.00,VWS V14.01,2013-11-20 23:11:00,
2013-11-20 18:12:00,57.5,57.5,30.24,NE,44,7.0,13.0,100,0.00,,OVC010,0.00,VWS V14.01,2013-11-20 23:12:00,
2013-11-20 18:13:00,57.5,57.5,30.24,North,360,3.0,7.0,100,0.00,,OVC010,0.00,VWS V14.01,2013-11-20 23:13:00,
2013-11-20 18:14:00,57.5,57.5,30.24,NNW,328,10.0,10.0,100,0.00,,OVC010,0.00,VWS V14.01,2013-11-20 23:14:00,
2013-11-20 18:15:00,57.5,57.5,30.24,NNW,347,4.0,7.0,100,0.00,,OVC022,0.00,VWS V14.01,2013-11-20 23:15:00,
2013-11-20 18:16:00,57.5,57.5,30.24,North,5,2.0,7.0,100,0.00,,OVC010,0.00,VWS V14.01,2013-11-20 23:16:00,
2013-11-20 18:17:00,57.5,57.5,30.24,NNE,18,3.0,7.0,100,0.00,,OVC010,0.00,VWS V14.01,2013-11-20 23:17:00,
2013-11-20 18:18:00,57.5,57.5,30.24,NE,52,3.0,5.0,100,0.00,,OVC010,0.00,VWS V14.01,2013-11-20 23:18:00,
2013-11-20 18:19:00,57.5,57.5,30.24,NE,52,3.0,8.0,100,0.00,,OVC010,0.00,VWS V14.01,2013-11-20 23:19:00,
2013-11-20 18:20:00,57.5,57.5,30.24,NNW,348,14.0,14.0,100,0.00,,OVC022,0.00,VWS V14.01,2013-11-20 23:20:00,
2013-11-20 18:21:00,57.5,57.5,30.24,NNW,348,14.0,14.0,100,0.00,,OVC010,0.00,VWS V14.01,2013-11-20 23:21:00,
2013-11-20 18:22:00,57.5,57.5,30.24,North,355,8.0,17.0,100,0.00,,OVC010,0.00,VWS V14.01,2013-11-20 23:22:00,
2013-11-20 18:23:00,57.5,57.5,30.24,ENE,59,10.0,11.0,100,0.00,,OVC010,0.00,VWS V14.01,2013-11-20 23:23:00,
2013-11-20 18:24:00,57.5,57.5,30.24,NE,47,16.0,16.0,100,0.00,,OVC010,0.00,VWS V14.01,2013-11-20 23:24:00,
2013-11-20 18:25:00,57.5,57.5,30.24,ENE,59,9.0,10.0,100,0.00,,OVC022,0.00,VWS V14.01,2013-11-20 23:25:00,
2013-11-20 18:26:00,57.5,57.5,30.24,ENE,59,9.0,10.0,100,0.00,,OVC010,0.00,VWS V14.01,2013-11-20 23:26:00,
2013-11-20 18:27:00,57.5,57.5,30.24,NE,38,12.0,17.0,100,0.00,,OVC010,0.00,VWS V14.01,2013-11-20 23:27:00,
2013-11-20 18:28:00,57.6,57.6,30.24,NE,47,9.0,16.0,100,0.00,,OVC010,0.00,VWS V14.01,2013-11-20 23:28:00,
2013-11-20 18:29:00,57.6,57.6,30.24,NE,50,5.0,9.0,100,0.00,,OVC010,0.00,VWS V14.01,2013-11-20 23:29:00,
2013-11-20 18:30:00,57.6,57.6,30.24,NNW,337,6.0,11.0,100,0.00,,OVC022,0.00,VWS V14.01,2013-11-20 23:30:00,
2013-11-20 18:31:00,57.5,57.5,30.24,NNE,32,5.0,11.0,100,0.00,,OVC010,0.00,VWS V14.01,2013-11-20 23:31:00,
2013-11-20 18:32:00,57.5,57.5,30.24,NE,49,11.0,11.0,100,0.00,,OVC010,0.00,VWS V14.01,2013-11-20 23:32:00,
2013-11-20 18:33:00,57.5,57.5,30.24,NE,54,7.0,11.0,100,0.00,,OVC010,0.00,VWS V14.01,2013-11-20 23:33:00,
2013-11-20 18:34:00,57.5,57.5,30.24,NE,34,6.0,7.0,100,0.00,,OVC010,0.00,VWS V14.01,2013-11-20 23:34:00,
2013-11-20 18:35:00,57.5,57.5,30.24,NE,49,9.0,10.0,100,0.00,,OVC022,0.00,VWS V14.01,2013-11-20 23:35:00,
2013-11-20 18:36:00,57.5,57.5,30.24,NE,51,4.0,10.0,100,0.00,,OVC010,0.00,VWS V14.01,2013-11-20 23:36:00,
2013-11-20 18:37:00,57.5,57.5,30.25,North,360,7.0,7.0,100,0.00,,OVC010,0.00,VWS V14.01,2013-11-20 23:37:00,
2013-11-20 18:38:00,57.5,57.5,30.24,ENE,62,12.0,12.0,100,0.00,,OVC010,0.00,VWS V14.01,2013-11-20 23:38:00,
2013-11-20 18:39:00,57.5,57.5,30.25,NE,40,7.0,12.0,100,0.00,,OVC010,0.00,VWS V14.01,2013-11-20 23:39:00,
2013-11-20 18:40:00,57.5,57.5,30.24,NNW,342,5.0,11.0,100,0.00,,OVC022,0.00,VWS V14.01,2013-11-20 23:40:00,
2013-11-20 18:41:00,57.5,57.5,30.24,NE,34,7.0,11.0,100,0.00,,OVC010,0.00,VWS V14.01,2013-11-20 23:41:00,
2013-11-20 18:42:00,57.5,57.5,30.24,NE,49,11.0,11.0,100,0.00,,OVC010,0.00,VWS V14.01,2013-11-20 23:42:00,
2013-11-20 18:43:00,57.5,57.5,30.24,NNE,32,15.0,15.0,100,0.00,,OVC010,0.00,VWS V14.01,2013-11-20 23:43:00,
2013-11-20 18:44:00,57.5,57.5,30.24,NE,35,13.0,15.0,100,0.00,,OVC010,0.00,VWS V14.01,2013-11-20 23:44:00,
2013-11-20 18:45:00,57.5,57.5,30.24,NNE,22,10.0,10.0,100,0.00,,OVC022,0.00,VWS V14.01,2013-11-20 23:45:00,
2013-11-20 18:46:00,57.5,57.5,30.24,NE,37,5.0,10.0,100,0.00,,OVC010,0.00,VWS V14.01,2013-11-20 23:46:00,
2013-11-20 18:47:00,57.5,57.5,30.24,ENE,62,7.0,10.0,100,0.00,,OVC010,0.00,VWS V14.01,2013-11-20 23:47:00,
2013-11-20 18:48:00,57.5,57.5,30.24,NW,317,3.0,11.0,100,0.00,,OVC010,0.00,VWS V14.01,2013-11-20 23:48:00,
2013-11-20 18:49:00,57.5,57.5,30.24,ENE,57,4.0,13.0,100,0.00,,OVC010,0.00,VWS V14.01,2013-11-20 23:49:00,
2013-11-20 18:50:00,57.5,57.5,30.25,NNE,32,5.0,15.0,100,0.00,,SCT100,0.00,VWS V14.01,2013-11-20 23:50:00,
2013-11-20 18:51:00,57.5,57.5,30.25,NE,40,4.0,15.0,100,0.00,,OVC010,0.00,VWS V14.01,2013-11-20 23:51:00,
2013-11-20 18:52:00,57.5,57.5,30.25,ENE,58,15.0,15.0,100,0.00,,OVC010,0.00,VWS V14.01,2013-11-20 23:52:00,
2013-11-20 18:53:00,57.3,57.3,30.25,NNE,12,2.0,15.0,100,0.00,,OVC010,0.00,VWS V14.01,2013-11-20 23:53:00,
2013-11-20 18:54:00,57.3,57.3,30.25,NNE,32,5.0,12.0,100,0.00,,OVC010,0.00,VWS V14.01,2013-11-20 23:54:00,
2013-11-20 18:55:00,57.3,57.3,30.25,North,351,3.0,13.0,100,0.00,,SCT100,0.00,VWS V14.01,2013-11-20 23:55:00,
2013-11-20 18:56:00,57.3,57.3,30.25,North,351,3.0,13.0,100,0.00,,OVC010,0.00,VWS V14.01,2013-11-20 23:56:00,
2013-11-20 18:57:00,57.3,57.3,30.25,North,11,11.0,13.0,100,0.00,,OVC010,0.00,VWS V14.01,2013-11-20 23:57:00,
2013-11-20 18:58:00,57.3,57.3,30.25,ENE,61,7.0,13.0,100,0.00,,OVC010,0.00,VWS V14.01,2013-11-20 23:58:00,
2013-11-20 18:59:00,57.3,57.3,30.25,ENE,66,7.0,13.0,100,0.00,,OVC010,0.00,VWS V14.01,2013-11-20 23:59:00,
2013-11-20 19:00:00,57.3,57.3,30.25,NE,51,14.0,14.0,100,0.00,,SCT100,0.00,VWS V14.01,2013-11-21 00:00:00,
2013-11-20 19:01:00,57.3,57.3,30.25,ENE,60,8.0,14.0,100,0.00,,OVC010,0.00,VWS V14.01,2013-11-21 00:01:00,
2013-11-20 19:02:00,57.3,57.3,30.25,ENE,61,9.0,9.0,100,0.00,,OVC010,0.00,VWS V14.01,2013-11-21 00:02:00,
2013-11-20 19:03:00,57.3,57.3,30.25,NNE,28,4.0,9.0,100,0.00,,OVC010,0.00,VWS V14.01,2013-11-21 00:03:00,
2013-11-20 19:04:00,57.3,57.3,30.25,NE,54,4.0,7.0,100,0.00,,OVC010,0.00,VWS V14.01,2013-11-21 00:04:00,
2013-11-20 19:05:00,57.3,57.3,30.25,NE,49,3.0,9.0,100,0.00,,BKN100,0.00,VWS V14.01,2013-11-21 00:05:00,
2013-11-20 19:06:00,57.3,57.3,30.25,NE,39,7.0,9.0,100,0.00,,OVC010,0.00,VWS V14.01,2013-11-21 00:06:00,
2013-11-20 19:07:00,57.3,57.3,30.25,NE,51,9.0,10.0,100,0.00,,OVC010,0.00,VWS V14.01,2013-11-21 00:07:00,
2013-11-20 19:08:00,57.3,57.3,30.25,ENE,61,3.0,9.0,100,0.00,,OVC010,0.00,VWS V14.01,2013-11-21 00:08:00,
2013-11-20 19:09:00,57.3,57.3,30.25,ENE,65,11.0,11.0,100,0.00,,OVC010,0.00,VWS V14.01,2013-11-21 00:09:00,
2013-11-20 19:10:00,57.3,57.3,30.25,ENE,60,7.0,12.0,100,0.00,,BKN100,0.00,VWS V14.01,2013-11-21 00:10:00,
2013-11-20 19:11:00,57.3,57.3,30.25,NE,47,3.0,12.0,100,0.00,,OVC010,0.00,VWS V14.01,2013-11-21 00:11:00,
2013-11-20 19:12:00,57.3,57.3,30.25,North,5,12.0,15.0,100,0.00,,OVC010,0.00,VWS V14.01,2013-11-21 00:12:00,
2013-11-20 19:13:00,57.3,57.3,30.25,ENE,59,5.0,12.0,100,0.00,,OVC010,0.00,VWS V14.01,2013-11-21 00:13:00,
2013-11-20 19:14:00,57.3,57.3,30.25,NE,51,2.0,5.0,100,0.00,,OVC010,0.00,VWS V14.01,2013-11-21 00:14:00,
2013-11-20 19:15:00,57.3,57.3,30.25,North,11,11.0,13.0,100,0.00,,BKN100,0.00,VWS V14.01,2013-11-21 00:15:00,
2013-11-20 19:16:00,57.3,57.3,30.25,NNE,28,7.0,13.0,100,0.00,,OVC010,0.00,VWS V14.01,2013-11-21 00:16:00,
2013-11-20 19:17:00,57.3,57.3,30.26,NNE,14,3.0,7.0,100,0.00,,OVC010,0.00,VWS V14.01,2013-11-21 00:17:00,
2013-11-20 19:18:00,57.3,57.3,30.26,NE,44,5.0,13.0,100,0.00,,OVC010,0.00,VWS V14.01,2013-11-21 00:18:00,
2013-11-20 19:19:00,57.2,57.2,30.26,NNW,342,7.0,8.0,100,0.00,,OVC010,0.00,VWS V14.01,2013-11-21 00:19:00,
2013-11-20 19:20:00,57.2,57.2,30.26,ENE,63,4.0,9.0,100,0.00,,BKN100,0.00,VWS V14.01,2013-11-21 00:20:00,
2013-11-20 19:21:00,57.2,57.2,30.26,NE,51,4.0,9.0,100,0.00,,OVC010,0.00,VWS V14.01,2013-11-21 00:21:00,
2013-11-20 19:22:00,57.2,57.2,30.26,ENE,65,4.0,16.0,100,0.00,,OVC010,0.00,VWS V14.01,2013-11-21 00:22:00,
2013-11-20 19:23:00,57.2,57.2,30.26,North,355,4.0,10.0,100,0.00,,OVC010,0.00,VWS V14.01,2013-11-21 00:23:00,
2013-11-20 19:24:00,57.2,57.2,30.26,NNE,16,5.0,5.0,100,0.00,,OVC010,0.00,VWS V14.01,2013-11-21 00:24:00,
2013-11-20 19:25:00,57.2,57.2,30.26,NE,51,12.0,12.0,100,0.00,,BKN100,0.00,VWS V14.01,2013-11-21 00:25:00,
2013-11-20 19:26:00,57.2,57.2,30.26,ENE,69,11.0,12.0,100,0.00,,OVC010,0.00,VWS V14.01,2013-11-21 00:26:00,
2013-11-20 19:27:00,57.2,57.2,30.26,NNE,13,7.0,12.0,100,0.00,,OVC010,0.00,VWS V14.01,2013-11-21 00:27:00,
2013-11-20 19:28:00,57.2,57.2,30.26,NE,35,6.0,17.0,100,0.00,,OVC010,0.00,VWS V14.01,2013-11-21 00:28:00,
2013-11-20 19:29:00,57.2,57.2,30.26,NE,54,4.0,9.0,100,0.00,,OVC010,0.00,VWS V14.01,2013-11-21 00:29:00,
2013-11-20 19:30:00,57.2,57.2,30.26,ENE,69,1.0,5.0,100,0.00,,BKN100,0.00,VWS V14.01,2013-11-21 00:30:00,
2013-11-20 19:31:00,57.2,57.2,30.26,NNW,334,8.0,8.0,100,0.00,,OVC010,0.00,VWS V14.01,2013-11-21 00:31:00,
2013-11-20 19:32:00,57.2,57.2,30.26,NE,36,4.0,8.0,100,0.00,,OVC010,0.00,VWS V14.01,2013-11-21 00:32:00,
2013-11-20 19:33:00,57.2,57.2,30.26,ENE,65,4.0,12.0,100,0.00,,OVC010,0.00,VWS V14.01,2013-11-21 00:33:00,
2013-11-20 19:34:00,57.2,57.2,30.26,North,355,4.0,13.0,100,0.00,,OVC010,0.00,VWS V14.01,2013-11-21 00:34:00,
2013-11-20 19:35:00,57.2,57.2,30.26,NNE,19,3.0,7.0,100,0.00,,OVC100,0.00,VWS V14.01,2013-11-21 00:35:00,
2013-11-20 19:36:00,57.2,57.2,30.26,NNE,15,3.0,7.0,100,0.00,,OVC010,0.00,VWS V14.01,2013-11-21 00:36:00,
2013-11-20 19:37:00,57.2,57.2,30.26,NE,55,5.0,9.0,100,0.00,,OVC010,0.00,VWS V14.01,2013-11-21 00:37:00,
2013-11-20 19:38:00,57.2,57.2,30.26,NE,47,4.0,13.0,100,0.00,,OVC010,0.00,VWS V14.01,2013-11-21 00:38:00,
2013-11-20 19:39:00,57.2,57.2,30.26,NNE,24,7.0,7.0,100,0.00,,OVC010,0.00,VWS V14.01,2013-11-21 00:39:00,
2013-11-20 19:40:00,57.3,57.3,30.26,NNE,32,8.0,8.0,100,0.00,,OVC100,0.00,VWS V14.01,2013-11-21 00:40:00,
2013-11-20 19:41:00,57.3,57.3,30.26,ENE,72,4.0,8.0,100,0.00,,OVC010,0.00,VWS V14.01,2013-11-21 00:41:00,
2013-11-20 19:42:00,57.3,57.3,30.27,NE,38,3.0,7.0,100,0.00,,OVC010,0.00,VWS V14.01,2013-11-21 00:42:00,
2013-11-20 19:43:00,57.3,57.3,30.26,ENE,75,4.0,10.0,100,0.00,,OVC010,0.00,VWS V14.01,2013-11-21 00:43:00,
2013-11-20 19:44:00,57.3,57.3,30.26,North,355,13.0,13.0,100,0.00,,OVC010,0.00,VWS V14.01,2013-11-21 00:44:00,
2013-11-20 19:45:00,57.3,57.3,30.26,NNE,22,5.0,17.0,100,0.00,,OVC100,0.00,VWS V14.01,2013-11-21 00:45:00,
2013-11-20 19:46:00,57.3,57.3,30.26,NE,40,4.0,17.0,100,0.00,,OVC010,0.00,VWS V14.01,2013-11-21 00:46:00,
2013-11-20 19:47:00,57.3,57.3,30.26,NE,40,5.0,5.0,100,0.00,,OVC010,0.00,VWS V14.01,2013-11-21 00:47:00,
2013-11-20 19:48:00,57.3,57.3,30.26,NE,36,2.0,10.0,100,0.00,,OVC010,0.00,VWS V14.01,2013-11-21 00:48:00,
2013-11-20 19:49:00,57.3,57.3,30.26,North,5,2.0,9.0,100,0.00,,OVC010,0.00,VWS V14.01,2013-11-21 00:49:00,
2013-11-20 19:50:00,57.3,57.3,30.26,ENE,61,9.0,14.0,100,0.00,,OVC100,0.00,VWS V14.01,2013-11-21 00:50:00,
2013-11-20 19:51:00,57.3,57.3,30.26,ENE,76,5.0,14.0,100,0.00,,OVC010,0.00,VWS V14.01,2013-11-21 00:51:00,
2013-11-20 19:52:00,57.3,57.3,30.26,NE,51,6.0,6.0,100,0.00,,OVC010,0.00,VWS V14.01,2013-11-21 00:52:00,
2013-11-20 19:53:00,57.3,57.3,30.26,NE,51,3.0,8.0,100,0.00,,OVC010,0.00,VWS V14.01,2013-11-21 00:53:00,
2013-11-20 19:54:00,57.3,57.3,30.26,NNE,20,2.0,14.0,100,0.00,,OVC010,0.00,VWS V14.01,2013-11-21 00:54:00,
2013-11-20 19:55:00,57.3,57.3,30.27,NNE,26,5.0,6.0,100,0.00,,OVC100,0.00,VWS V14.01,2013-11-21 00:55:00,
2013-11-20 19:56:00,57.3,57.3,30.27,NE,52,14.0,14.0,100,0.00,,OVC010,0.00,VWS V14.01,2013-11-21 00:56:00,
2013-11-20 19:57:00,57.3,57.3,30.26,ENE,67,3.0,14.0,100,0.00,,OVC010,0.00,VWS V14.01,2013-11-21 00:57:00,
2013-11-20 19:58:00,57.3,57.3,30.27,NNE,30,6.0,6.0,100,0.00,,OVC010,0.00,VWS V14.01,2013-11-21 00:58:00,
2013-11-20 19:59:00,57.3,57.3,30.27,NE,34,4.0,6.0,100,0.00,,OVC010,0.00,VWS V14.01,2013-11-21 00:59:00,
2013-11-20 20:00:00,57.3,57.3,30.27,NW,323,5.0,5.0,100,0.00,,OVC100,0.00,VWS V14.01,2013-11-21 01:00:00,
2013-11-20 20:01:00,57.3,57.3,30.27,NE,48,9.0,9.0,100,0.00,,OVC010,0.00,VWS V14.01,2013-11-21 01:01:00,
2013-11-20 20:02:00,57.3,57.3,30.27,NE,45,6.0,12.0,100,0.00,,OVC010,0.00,VWS V14.01,2013-11-21 01:02:00,
2013-11-20 20:03:00,57.3,57.3,30.27,NE,37,2.0,9.0,100,0.00,,OVC010,0.00,VWS V14.01,2013-11-21 01:03:00,
2013-11-20 20:04:00,57.3,57.3,30.27,NE,53,6.0,7.0,100,0.00,,OVC010,0.00,VWS V14.01,2013-11-21 01:04:00,
2013-11-20 20:05:00,57.3,57.3,30.27,NE,38,3.0,7.0,100,0.00,,OVC100,0.00,VWS V14.01,2013-11-21 01:05:00,
2013-11-20 20:06:00,57.3,57.3,30.27,North,5,3.0,7.0,100,0.00,,OVC010,0.00,VWS V14.01,2013-11-21 01:06:00,
2013-11-20 20:07:00,57.3,57.3,30.27,ENE,69,11.0,11.0,100,0.00,,OVC010,0.00,VWS V14.01,2013-11-21 01:07:00,
2013-11-20 20:08:00,57.3,57.3,30.27,NE,52,5.0,11.0,100,0.00,,OVC010,0.00,VWS V14.01,2013-11-21 01:08:00,
2013-11-20 20:09:00,57.3,57.3,30.27,NE,54,3.0,10.0,100,0.00,,OVC010,0.00,VWS V14.01,2013-11-21 01:09:00,
2013-11-20 20:10:00,57.3,57.3,30.27,ENE,65,2.0,5.0,100,0.00,,OVC100,0.00,VWS V14.01,2013-11-21 01:10:00,
2013-11-20 20:11:00,57.3,57.3,30.27,NE,54,5.0,5.0,100,0.00,,OVC010,0.00,VWS V14.01,2013-11-21 01:11:00,
2013-11-20 20:12:00,57.3,57.3,30.27,NE,54,6.0,6.0,100,0.00,,OVC010,0.00,VWS V14.01,2013-11-21 01:12:00,
2013-11-20 20:13:00,57.3,57.3,30.27,NE,44,6.0,6.0,100,0.00,,OVC010,0.00,VWS V14.01,2013-11-21 01:13:00,
2013-11-20 20:14:00,57.3,57.3,30.27,NNE,30,4.0,7.0,100,0.00,,OVC010,0.00,VWS V14.01,2013-11-21 01:14:00,
2013-11-20 20:15:00,57.3,57.3,30.27,NE,54,3.0,10.0,100,0.00,,OVC100,0.00,VWS V14.01,2013-11-21 01:15:00,
2013-11-20 20:16:00,57.3,57.3,30.27,NE,55,4.0,10.0,100,0.00,,OVC010,0.00,VWS V14.01,2013-11-21 01:16:00,
2013-11-20 20:17:00,57.3,57.3,30.27,NNW,344,5.0,10.0,100,0.00,,OVC010,0.00,VWS V14.01,2013-11-21 01:17:00,
2013-11-20 20:18:00,57.3,57.3,30.28,NNE,12,9.0,9.0,100,0.00,,OVC010,0.00,VWS V14.01,2013-11-21 01:18:00,
2013-11-20 20:19:00,57.3,57.3,30.27,NE,36,6.0,9.0,100,0.00,,OVC010,0.00,VWS V14.01,2013-11-21 01:19:00,
2013-11-20 20:20:00,57.3,57.3,30.27,NNE,33,2.0,2.0,100,0.00,,OVC100,0.00,VWS V14.01,2013-11-21 01:20:00,
2013-11-20 20:21:00,57.3,57.3,30.27,NNE,33,2.0,2.0,100,0.00,,OVC010,0.00,VWS V14.01,2013-11-21 01:21:00,
2013-11-20 20:22:00,57.3,57.3,30.28,NNE,32,3.0,7.0,100,0.00,,OVC010,0.00,VWS V14.01,2013-11-21 01:22:00,
2013-11-20 20:23:00,57.3,57.3,30.27,East,82,11.0,11.0,100,0.00,,OVC010,0.00,VWS V14.01,2013-11-21 01:23:00,
2013-11-20 20:24:00,57.3,57.3,30.28,North,5,7.0,11.0,100,0.00,,OVC010,0.00,VWS V14.01,2013-11-21 01:24:00,
2013-11-20 20:25:00,57.3,57.3,30.27,NE,50,4.0,7.0,100,0.00,,OVC100,0.00,VWS V14.01,2013-11-21 01:25:00,
2013-11-20 20:26:00,57.3,57.3,30.27,NNW,338,3.0,7.0,100,0.00,,OVC010,0.00,VWS V14.01,2013-11-21 01:26:00,
2013-11-20 20:27:00,57.3,57.3,30.28,NNE,28,9.0,11.0,100,0.00,,OVC010,0.00,VWS V14.01,2013-11-21 01:27:00,
2013-11-20 20:28:00,57.3,57.3,30.28,ENE,61,2.0,9.0,100,0.00,,OVC010,0.00,VWS V14.01,2013-11-21 01:28:00,
2013-11-20 20:29:00,57.3,57.3,30.27,ENE,63,6.0,9.0,100,0.00,,OVC010,0.00,VWS V14.01,2013-11-21 01:29:00,
2013-11-20 20:30:00,57.3,57.3,30.27,ENE,74,4.0,6.0,100,0.00,,OVC100,0.00,VWS V14.01,2013-11-21 01:30:00,
2013-11-20 20:31:00,57.3,57.3,30.27,NE,53,5.0,6.0,100,0.00,,OVC010,0.00,VWS V14.01,2013-11-21 01:31:00,
2013-11-20 20:32:00,57.3,57.3,30.27,NE,45,2.0,7.0,100,0.00,,OVC010,0.00,VWS V14.01,2013-11-21 01:32:00,
2013-11-20 20:33:00,57.2,57.2,30.27,ENE,61,3.0,7.0,100,0.00,,OVC010,0.00,VWS V14.01,2013-11-21 01:33:00,
2013-11-20 20:34:00,57.2,57.2,30.27,North,360,10.0,12.0,100,0.00,,OVC010,0.00,VWS V14.01,2013-11-21 01:34:00,
2013-11-20 20:35:00,57.3,57.3,30.27,North,10,5.0,12.0,100,0.00,,OVC060,0.00,VWS V14.01,2013-11-21 01:35:00,
2013-11-20 20:36:00,57.2,57.2,30.27,North,355,6.0,12.0,100,0.00,,OVC010,0.00,VWS V14.01,2013-11-21 01:36:00,
2013-11-20 20:37:00,57.2,57.2,30.27,NE,40,11.0,11.0,100,0.00,,OVC010,0.00,VWS V14.01,2013-11-21 01:37:00,
2013-11-20 20:38:00,57.2,57.2,30.27,NE,51,4.0,11.0,100,0.00,,OVC010,0.00,VWS V14.01,2013-11-21 01:38:00,
2013-11-20 20:39:00,57.2,57.2,30.28,NNE,33,6.0,6.0,100,0.00,,OVC010,0.00,VWS V14.01,2013-11-21 01:39:00,
2013-11-20 20:40:00,57.2,57.2,30.28,NE,53,3.0,9.0,100,0.00,,OVC060,0.00,VWS V14.01,2013-11-21 01:40:00,
2013-11-20 20:41:00,57.2,57.2,30.28,NNE,15,2.0,9.0,100,0.00,,OVC010,0.00,VWS V14.01,2013-11-21 01:41:00,
2013-11-20 20:42:00,57.2,57.2,30.28,NE,56,5.0,6.0,100,0.00,,OVC010,0.00,VWS V14.01,2013-11-21 01:42:00,
2013-11-20 20:43:00,57.2,57.2,30.28,NE,55,7.0,9.0,100,0.00,,OVC010,0.00,VWS V14.01,2013-11-21 01:43:00,
2013-11-20 20:44:00,57.2,57.2,30.28,NE,46,5.0,12.0,100,0.00,,OVC010,0.00,VWS V14.01,2013-11-21 01:44:00,
2013-11-20 20:45:00,57.2,57.2,30.28,NE,42,11.0,11.0,100,0.00,,OVC060,0.00,VWS V14.01,2013-11-21 01:45:00,
2013-11-20 20:46:00,57.2,57.2,30.28,WNW,302,6.0,11.0,100,0.00,,OVC010,0.00,VWS V14.01,2013-11-21 01:46:00,
2013-11-20 20:47:00,57.2,57.2,30.28,ENE,57,4.0,10.0,100,0.00,,OVC010,0.00,VWS V14.01,2013-11-21 01:47:00,
2013-11-20 20:48:00,57.2,57.2,30.28,NE,55,9.0,9.0,100,0.00,,OVC010,0.00,VWS V14.01,2013-11-21 01:48:00,
2013-11-20 20:49:00,57.2,57.2,30.28,NE,53,6.0,9.0,100,0.00,,OVC010,0.00,VWS V14.01,2013-11-21 01:49:00,
2013-11-20 20:50:00,57.2,57.2,30.28,NNE,31,4.0,11.0,100,0.00,,OVC060,0.00,VWS V14.01,2013-11-21 01:50:00,
2013-11-20 20:51:00,57.2,57.2,30.28,NE,35,7.0,11.0,100,0.00,,OVC010,0.00,VWS V14.01,2013-11-21 01:51:00,
2013-11-20 20:52:00,57.2,57.2,30.28,ENE,57,9.0,9.0,100,0.00,,OVC010,0.00,VWS V14.01,2013-11-21 01:52:00,
2013-11-20 20:53:00,57.2,57.2,30.28,NE,43,5.0,11.0,100,0.00,,OVC010,0.00,VWS V14.01,2013-11-21 01:53:00,
2013-11-20 20:54:00,57.2,57.2,30.28,NE,38,10.0,11.0,100,0.00,,OVC010,0.00,VWS V14.01,2013-11-21 01:54:00,
2013-11-20 20:55:00,57.3,57.3,30.28,NNE,12,6.0,9.0,100,0.00,,OVC060,0.00,VWS V14.01,2013-11-21 01:55:00,
2013-11-20 20:56:00,57.2,57.2,30.28,NNE,24,9.0,9.0,100,0.00,,OVC010,0.00,VWS V14.01,2013-11-21 01:56:00,
2013-11-20 20:57:00,57.2,57.2,30.28,ENE,78,9.0,9.0,100,0.00,,OVC010,0.00,VWS V14.01,2013-11-21 01:57:00,
2013-11-20 20:58:00,57.2,57.2,30.28,NE,42,5.0,9.0,100,0.00,,OVC010,0.00,VWS V14.01,2013-11-21 01:58:00,
2013-11-20 20:59:00,57.2,57.2,30.28,North,5,9.0,9.0,100,0.00,,OVC010,0.00,VWS V14.01,2013-11-21 01:59:00,
2013-11-20 21:00:00,57.2,57.2,30.28,NE,36,7.0,7.0,100,0.00,,OVC060,0.00,VWS V14.01,2013-11-21 02:00:00,
2013-11-20 21:01:00,57.2,57.2,30.28,NE,53,7.0,7.0,100,0.00,,OVC010,0.00,VWS V14.01,2013-11-21 02:01:00,
2013-11-20 21:02:00,57.2,57.2,30.28,ENE,61,5.0,13.0,100,0.00,,OVC010,0.00,VWS V14.01,2013-11-21 02:02:00,
2013-11-20 21:03:00,57.3,57.3,30.27,NE,51,11.0,12.0,100,0.00,,OVC010,0.00,VWS V14.01,2013-11-21 02:03:00,
2013-11-20 21:04:00,57.3,57.3,30.27,ENE,69,4.0,12.0,100,0.00,,OVC010,0.00,VWS V14.01,2013-11-21 02:04:00,
2013-11-20 21:05:00,57.3,57.3,30.27,NE,53,6.0,10.0,100,0.00,,OVC060,0.00,VWS V14.01,2013-11-21 02:05:00,
2013-11-20 21:06:00,57.3,57.3,30.27,ENE,62,9.0,10.0,100,0.00,,OVC010,0.00,VWS V14.01,2013-11-21 02:06:00,
2013-11-20 21:07:00,57.3,57.3,30.27,ENE,57,5.0,9.0,100,0.00,,OVC010,0.00,VWS V14.01,2013-11-21 02:07:00,
2013-11-20 21:08:00,57.3,57.3,30.27,NNE,17,10.0,14.0,100,0.00,,OVC010,0.00,VWS V14.01,2013-11-21 02:08:00,
2013-11-20 21:09:00,57.3,57.3,30.27,North,11,16.0,16.0,100,0.00,,OVC010,0.00,VWS V14.01,2013-11-21 02:09:00,
2013-11-20 21:10:00,57.3,57.3,30.27,ENE,63,7.0,9.0,100,0.00,,OVC060,0.00,VWS V14.01,2013-11-21 02:10:00,
2013-11-20 21:11:00,57.3,57.3,30.27,NE,44,11.0,11.0,100,0.00,,OVC010,0.00,VWS V14.01,2013-11-21 02:11:00,
2013-11-20 21:12:00,57.3,57.3,30.27,NNW,329,5.0,11.0,100,0.00,,OVC010,0.00,VWS V14.01,2013-11-21 02:12:00,
2013-11-20 21:13:00,57.3,57.3,30.27,NW,317,4.0,7.0,100,0.00,,OVC010,0.00,VWS V14.01,2013-11-21 02:13:00,
2013-11-20 21:14:00,57.2,57.2,30.27,NE,50,9.0,10.0,100,0.00,,OVC010,0.00,VWS V14.01,2013-11-21 02:14:00,
2013-11-20 21:15:00,57.2,57.2,30.27,NE,40,5.0,15.0,100,0.00,,OVC060,0.00,VWS V14.01,2013-11-21 02:15:00,
2013-11-20 21:16:00,57.2,57.2,30.27,NNE,30,3.0,15.0,100,0.00,,OVC010,0.00,VWS V14.01,2013-11-21 02:16:00,
2013-11-20 21:17:00,57.2,57.2,30.27,ENE,63,5.0,8.0,100,0.00,,OVC010,0.00,VWS V14.01,2013-11-21 02:17:00,
2013-11-20 21:18:00,57.2,57.2,30.27,NE,41,8.0,14.0,100,0.00,,OVC010,0.00,VWS V14.01,2013-11-21 02:18:00,
2013-11-20 21:19:00,57.2,57.2,30.27,NW,314,9.0,13.0,100,0.00,,OVC010,0.00,VWS V14.01,2013-11-21 02:19:00,
2013-11-20 21:20:00,57.2,57.2,30.27,NW,319,9.0,14.0,100,0.00,,OVC060,0.00,VWS V14.01,2013-11-21 02:20:00,
2013-11-20 21:21:00,57.2,57.2,30.27,NE,46,2.0,14.0,100,0.00,,OVC010,0.00,VWS V14.01,2013-11-21 02:21:00,
2013-11-20 21:22:00,57.2,57.2,30.27,NE,50,4.0,8.0,100,0.00,,OVC010,0.00,VWS V14.01,2013-11-21 02:22:00,
2013-11-20 21:23:00,57.2,57.2,30.27,NE,52,4.0,5.0,100,0.00,,OVC010,0.00,VWS V14.01,2013-11-21 02:23:00,
2013-11-20 21:24:00,57.2,57.2,30.27,NE,39,5.0,5.0,100,0.00,,OVC010,0.00,VWS V14.01,2013-11-21 02:24:00,
2013-11-20 21:25:00,57.0,57.0,30.27,NNE,20,5.0,5.0,100,0.00,,OVC060,0.00,VWS V14.01,2013-11-21 02:25:00,
2013-11-20 21:26:00,57.0,57.0,30.27,NE,52,3.0,5.0,100,0.00,,OVC010,0.00,VWS V14.01,2013-11-21 02:26:00,
2013-11-20 21:27:00,57.0,57.0,30.27,ENE,76,6.0,6.0,100,0.00,,OVC010,0.00,VWS V14.01,2013-11-21 02:27:00,
2013-11-20 21:28:00,57.0,57.0,30.27,NE,51,6.0,10.0,100,0.00,,OVC010,0.00,VWS V14.01,2013-11-21 02:28:00,
2013-11-20 21:29:00,57.0,57.0,30.27,NE,47,2.0,9.0,100,0.00,,OVC010,0.00,VWS V14.01,2013-11-21 02:29:00,
2013-11-20 21:30:00,57.0,57.0,30.27,NE,54,7.0,9.0,100,0.00,,OVC060,0.00,VWS V14.01,2013-11-21 02:30:00,
2013-11-20 21:31:00,57.0,57.0,30.27,NNE,24,6.0,9.0,100,0.00,,OVC010,0.00,VWS V14.01,2013-11-21 02:31:00,
2013-11-20 21:32:00,57.0,57.0,30.27,NE,40,5.0,12.0,100,0.00,,OVC010,0.00,VWS V14.01,2013-11-21 02:32:00,
2013-11-20 21:33:00,57.0,57.0,30.27,NNE,28,3.0,13.0,100,0.00,,OVC010,0.00,VWS V14.01,2013-11-21 02:33:00,
2013-11-20 21:34:00,57.0,57.0,30.27,NE,36,9.0,9.0,100,0.00,,OVC010,0.00,VWS V14.01,2013-11-21 02:34:00,
2013-11-20 21:35:00,57.0,57.0,30.27,East,85,3.0,3.0,100,0.00,,OVC060,0.00,VWS V14.01,2013-11-21 02:35:00,
2013-11-20 21:36:00,57.0,57.0,30.27,NE,47,9.0,9.0,100,0.00,,OVC010,0.00,VWS V14.01,2013-11-21 02:36:00,
2013-11-20 21:37:00,57.0,57.0,30.27,NE,41,6.0,9.0,100,0.00,,OVC010,0.00,VWS V14.01,2013-11-21 02:37:00,
2013-11-20 21:38:00,57.0,57.0,30.27,ENE,61,6.0,9.0,100,0.00,,OVC010,0.00,VWS V14.01,2013-11-21 02:38:00,
2013-11-20 21:39:00,57.0,57.0,30.27,North,5,6.0,6.0,100,0.00,,OVC010,0.00,VWS V14.01,2013-11-21 02:39:00,
2013-11-20 21:40:00,57.0,57.0,30.27,NNE,27,7.0,7.0,100,0.00,,OVC060,0.00,VWS V14.01,2013-11-21 02:40:00,
2013-11-20 21:41:00,57.0,57.0,30.27,NNE,24,5.0,9.0,100,0.00,,OVC010,0.00,VWS V14.01,2013-11-21 02:41:00,
2013-11-20 21:42:00,57.0,57.0,30.27,North,360,2.0,9.0,100,0.00,,OVC010,0.00,VWS V14.01,2013-11-21 02:42:00,
2013-11-20 21:43:00,56.9,56.9,30.27,NE,51,10.0,10.0,100,0.00,,OVC010,0.00,VWS V14.01,2013-11-21 02:43:00,
2013-11-20 21:44:00,56.9,56.9,30.27,NNW,340,6.0,10.0,100,0.00,,OVC010,0.00,VWS V14.01,2013-11-21 02:44:00,
2013-11-20 21:45:00,56.9,56.9,30.27,ENE,67,4.0,11.0,100,0.00,,OVC060,0.00,VWS V14.01,2013-11-21 02:45:00,
2013-11-20 21:46:00,56.9,56.9,30.27,ENE,65,3.0,11.0,100,0.00,,OVC010,0.00,VWS V14.01,2013-11-21 02:46:00,
2013-11-20 21:47:00,56.9,56.9,30.27,ENE,65,4.0,4.0,100,0.00,,OVC010,0.00,VWS V14.01,2013-11-21 02:47:00,
2013-11-20 21:48:00,56.9,56.9,30.27,NE,55,3.0,10.0,100,0.00,,OVC010,0.00,VWS V14.01,2013-11-21 02:48:00,
2013-11-20 21:49:00,56.9,56.9,30.27,ENE,58,3.0,10.0,100,0.00,,OVC010,0.00,VWS V14.01,2013-11-21 02:49:00,
2013-11-20 21:50:00,56.9,56.9,30.27,ENE,61,5.0,11.0,100,0.00,,BKN065,0.00,VWS V14.01,2013-11-21 02:50:00,
2013-11-20 21:51:00,56.7,56.7,30.27,ENE,63,4.0,11.0,100,0.00,,OVC010,0.00,VWS V14.01,2013-11-21 02:51:00,
2013-11-20 21:52:00,56.7,56.7,30.27,ENE,59,6.0,13.0,100,0.00,,OVC010,0.00,VWS V14.01,2013-11-21 02:52:00,
2013-11-20 21:53:00,56.7,56.7,30.27,ENE,65,6.0,10.0,100,0.00,,OVC010,0.00,VWS V14.01,2013-11-21 02:53:00,
2013-11-20 21:54:00,56.7,56.7,30.27,NE,38,6.0,7.0,100,0.00,,OVC010,0.00,VWS V14.01,2013-11-21 02:54:00,
2013-11-20 21:55:00,56.7,56.7,30.27,North,5,4.0,7.0,100,0.00,,BKN065,0.00,VWS V14.01,2013-11-21 02:55:00,
2013-11-20 21:56:00,56.7,56.7,30.27,NNE,12,7.0,7.0,100,0.00,,OVC010,0.00,VWS V14.01,2013-11-21 02:56:00,
2013-11-20 21:57:00,56.7,56.7,30.27,NE,55,5.0,7.0,100,0.00,,OVC010,0.00,VWS V14.01,2013-11-21 02:57:00,
2013-11-20 21:58:00,56.7,56.7,30.27,NNE,24,15.0,15.0,100,0.00,,OVC010,0.00,VWS V14.01,2013-11-21 02:58:00,
2013-11-20 21:59:00,56.7,56.7,30.27,ENE,58,6.0,15.0,100,0.00,,OVC010,0.00,VWS V14.01,2013-11-21 02:59:00,
2013-11-20 22:00:00,56.7,56.7,30.27,NE,53,6.0,15.0,100,0.00,,BKN065,0.00,VWS V14.01,2013-11-21 03:00:00,
2013-11-20 22:01:00,56.7,56.7,30.27,ESE,110,3.0,15.0,100,0.00,,OVC010,0.00,VWS V14.01,2013-11-21 03:01:00,
2013-11-20 22:02:00,56.7,56.7,30.27,ENE,62,3.0,7.0,100,0.00,,OVC010,0.00,VWS V14.01,2013-11-21 03:02:00,
2013-11-20 22:03:00,56.7,56.7,30.27,NNE,22,5.0,12.0,100,0.00,,OVC010,0.00,VWS V14.01,2013-11-21 03:03:00,
2013-11-20 22:04:00,56.7,56.7,30.27,NE,46,4.0,7.0,100,0.00,,OVC010,0.00,VWS V14.01,2013-11-21 03:04:00,
2013-11-20 22:05:00,56.7,56.7,30.27,ENE,57,10.0,10.0,100,0.00,,BKN065,0.00,VWS V14.01,2013-11-21 03:05:00,
2013-11-20 22:06:00,56.7,56.7,30.27,NE,50,4.0,10.0,100,0.00,,OVC010,0.00,VWS V14.01,2013-11-21 03:06:00,
2013-11-20 22:07:00,56.7,56.7,30.27,NE,55,12.0,12.0,100,0.00,,OVC010,0.00,VWS V14.01,2013-11-21 03:07:00,
2013-11-20 22:08:00,56.7,56.7,30.27,ENE,61,7.0,12.0,100,0.00,,OVC010,0.00,VWS V14.01,2013-11-21 03:08:00,
2013-11-20 22:09:00,56.7,56.7,30.27,NE,54,13.0,14.0,100,0.00,,OVC010,0.00,VWS V14.01,2013-11-21 03:09:00,
2013-11-20 22:10:00,56.7,56.7,30.27,ENE,70,12.0,12.0,100,0.00,,BKN065,0.00,VWS V14.01,2013-11-21 03:10:00,
2013-11-20 22:11:00,56.7,56.7,30.27,NNE,15,11.0,12.0,100,0.00,,OVC010,0.00,VWS V14.01,2013-11-21 03:11:00,
2013-11-20 22:12:00,56.7,56.7,30.27,North,5,7.0,11.0,100,0.00,,OVC010,0.00,VWS V14.01,2013-11-21 03:12:00,
2013-11-20 22:13:00,56.7,56.7,30.28,NNE,22,3.0,7.0,100,0.00,,OVC010,0.00,VWS V14.01,2013-11-21 03:13:00,
2013-11-20 22:14:00,56.7,56.7,30.28,North,5,8.0,8.0,100,0.00,,OVC010,0.00,VWS V14.01,2013-11-21 03:14:00,
2013-11-20 22:15:00,56.7,56.7,30.28,NNE,29,5.0,5.0,100,0.00,,BKN065,0.00,VWS V14.01,2013-11-21 03:15:00,
2013-11-20 22:16:00,56.7,56.7,30.28,NE,45,6.0,6.0,100,0.00,,OVC010,0.00,VWS V14.01,2013-11-21 03:16:00,
2013-11-20 22:17:00,56.7,56.7,30.28,ENE,59,7.0,9.0,100,0.00,,OVC010,0.00,VWS V14.01,2013-11-21 03:17:00,
2013-11-20 22:18:00,56.7,56.7,30.28,ENE,59,3.0,13.0,100,0.00,,OVC010,0.00,VWS V14.01,2013-11-21 03:18:00,
2013-11-20 22:19:00,56.9,56.9,30.28,NNE,25,9.0,9.0,100,0.00,,OVC010,0.00,VWS V14.01,2013-11-21 03:19:00,
2013-11-20 22:20:00,56.9,56.9,30.28,NE,55,4.0,7.0,100,0.00,,BKN065,0.00,VWS V14.01,2013-11-21 03:20:00,
2013-11-20 22:21:00,56.9,56.9,30.28,NE,53,4.0,7.0,100,0.00,,OVC010,0.00,VWS V14.01,2013-11-21 03:21:00,
2013-11-20 22:22:00,56.9,56.9,30.28,NE,51,4.0,8.0,100,0.00,,OVC010,0.00,VWS V14.01,2013-11-21 03:22:00,
2013-11-20 22:23:00,56.9,56.9,30.28,NNW,348,2.0,9.0,100,0.00,,OVC010,0.00,VWS V14.01,2013-11-21 03:23:00,
2013-11-20 22:24:00,56.9,56.9,30.28,NE,42,7.0,7.0,100,0.00,,OVC010,0.00,VWS V14.01,2013-11-21 03:24:00,
2013-11-20 22:25:00,56.9,56.9,30.28,North,10,7.0,7.0,100,0.00,,BKN065,0.00,VWS V14.01,2013-11-21 03:25:00,
2013-11-20 22:26:00,56.9,56.9,30.28,NW,323,7.0,8.0,100,0.00,,OVC010,0.00,VWS V14.01,2013-11-21 03:26:00,
2013-11-20 22:27:00,56.9,56.9,30.28,NNE,15,6.0,13.0,100,0.00,,OVC010,0.00,VWS V14.01,2013-11-21 03:27:00,
2013-11-20 22:28:00,56.9,56.9,30.28,East,82,7.0,11.0,100,0.00,,OVC010,0.00,VWS V14.01,2013-11-21 03:28:00,
2013-11-20 22:29:00,56.9,56.9,30.28,NE,53,3.0,9.0,100,0.00,,OVC010,0.00,VWS V14.01,2013-11-21 03:29:00,
2013-11-20 22:30:00,56.9,56.9,30.28,North,9,3.0,4.0,100,0.00,,BKN065,0.00,VWS V14.01,2013-11-21 03:30:00,
2013-11-20 22:31:00,56.9,56.9,30.28,ENE,59,10.0,10.0,100,0.00,,OVC010,0.00,VWS V14.01,2013-11-21 03:31:00,
2013-11-20 22:32:00,56.9,56.9,30.28,NE,42,12.0,12.0,100,0.00,,OVC010,0.00,VWS V14.01,2013-11-21 03:32:00,
2013-11-20 22:33:00,56.9,56.9,30.28,NE,42,6.0,12.0,100,0.00,,OVC010,0.00,VWS V14.01,2013-11-21 03:33:00,
2013-11-20 22:34:00,56.9,56.9,30.28,ENE,65,4.0,11.0,100,0.00,,OVC010,0.00,VWS V14.01,2013-11-21 03:34:00,
2013-11-20 22:35:00,56.9,56.9,30.28,ENE,65,6.0,11.0,100,0.00,,BKN065,0.00,VWS V14.01,2013-11-21 03:35:00,
2013-11-20 22:36:00,56.9,56.9,30.28,North,9,4.0,11.0,100,0.00,,OVC010,0.00,VWS V14.01,2013-11-21 03:36:00,
2013-11-20 22:37:00,56.9,56.9,30.28,NE,41,5.0,9.0,100,0.00,,OVC010,0.00,VWS V14.01,2013-11-21 03:37:00,
2013-11-20 22:38:00,56.9,56.9,30.28,NNE,32,4.0,10.0,100,0.00,,OVC010,0.00,VWS V14.01,2013-11-21 03:38:00,
2013-11-20 22:39:00,56.9,56.9,30.28,NNE,13,9.0,9.0,100,0.00,,OVC010,0.00,VWS V14.01,2013-11-21 03:39:00,
2013-11-20 22:40:00,56.9,56.9,30.28,NNE,24,5.0,6.0,100,0.00,,BKN065,0.00,VWS V14.01,2013-11-21 03:40:00,
2013-11-20 22:41:00,56.9,56.9,30.28,NE,54,14.0,14.0,100,0.00,,OVC010,0.00,VWS V14.01,2013-11-21 03:41:00,
2013-11-20 22:42:00,56.9,56.9,30.28,NNE,18,5.0,14.0,100,0.00,,OVC010,0.00,VWS V14.01,2013-11-21 03:42:00,
2013-11-20 22:43:00,56.9,56.9,30.28,ENE,60,5.0,6.0,100,0.00,,OVC010,0.00,VWS V14.01,2013-11-21 03:43:00,
2013-11-20 22:44:00,56.9,56.9,30.28,North,355,4.0,8.0,100,0.00,,OVC010,0.00,VWS V14.01,2013-11-21 03:44:00,
2013-11-20 22:45:00,56.7,56.7,30.28,NE,45,11.0,11.0,100,0.00,,BKN065,0.00,VWS V14.01,2013-11-21 03:45:00,
2013-11-20 22:46:00,56.7,56.7,30.28,North,355,10.0,11.0,100,0.00,,OVC010,0.00,VWS V14.01,2013-11-21 03:46:00,
2013-11-20 22:47:00,56.7,56.7,30.28,NE,49,4.0,10.0,100,0.00,,OVC010,0.00,VWS V14.01,2013-11-21 03:47:00,
2013-11-20 22:48:00,56.7,56.7,30.28,NE,50,6.0,13.0,100,0.00,,OVC010,0.00,VWS V14.01,2013-11-21 03:48:00,
2013-11-20 22:49:00,56.7,56.7,30.28,NNE,19,11.0,11.0,100,0.00,,OVC010,0.00,VWS V14.01,2013-11-21 03:49:00,
2013-11-20 22:50:00,56.7,56.7,30.28,NE,36,7.0,11.0,100,0.00,,BKN065,0.00,VWS V14.01,2013-11-21 03:50:00,
2013-11-20 22:51:00,56.7,56.7,30.28,NNE,16,4.0,11.0,100,0.00,,OVC010,0.00,VWS V14.01,2013-11-21 03:51:00,
2013-11-20 22:52:00,56.7,56.7,30.28,NE,40,9.0,11.0,100,0.00,,OVC010,0.00,VWS V14.01,2013-11-21 03:52:00,
2013-11-20 22:53:00,56.7,56.7,30.28,NNE,20,4.0,9.0,100,0.00,,OVC010,0.00,VWS V14.01,2013-11-21 03:53:00,
2013-11-20 22:54:00,56.7,56.7,30.28,NE,38,3.0,10.0,100,0.00,,OVC010,0.00,VWS V14.01,2013-11-21 03:54:00,
2013-11-20 22:55:00,56.7,56.7,30.27,NE,42,10.0,10.0,100,0.00,,BKN065,0.00,VWS V14.01,2013-11-21 03:55:00,
2013-11-20 22:56:00,56.7,56.7,30.27,NE,47,3.0,10.0,100,0.00,,OVC010,0.00,VWS V14.01,2013-11-21 03:56:00,
2013-11-20 22:57:00,56.6,56.6,30.27,ENE,73,2.0,10.0,100,0.00,,OVC010,0.00,VWS V14.01,2013-11-21 03:57:00,
2013-11-20 22:58:00,56.6,56.6,30.27,North,360,6.0,6.0,100,0.00,,OVC010,0.00,VWS V14.01,2013-11-21 03:58:00,
2013-11-20 22:59:00,56.6,56.6,30.27,NE,38,8.0,8.0,100,0.00,,OVC010,0.00,VWS V14.01,2013-11-21 03:59:00,
2013-11-20 23:00:00,56.6,56.6,30.27,NE,50,6.0,11.0,100,0.00,,BKN065,0.00,VWS V14.01,2013-11-21 04:00:00,
2013-11-20 23:01:00,56.6,56.6,30.27,NE,34,7.0,11.0,100,0.00,,OVC010,0.00,VWS V14.01,2013-11-21 04:01:00,
2013-11-20 23:02:00,56.6,56.6,30.27,NE,44,7.0,7.0,100,0.00,,OVC010,0.00,VWS V14.01,2013-11-21 04:02:00,
2013-11-20 23:03:00,56.6,56.6,30.27,NE,40,6.0,10.0,100,0.00,,OVC010,0.00,VWS V14.01,2013-11-21 04:03:00,
2013-11-20 23:04:00,56.6,56.6,30.27,NNE,29,6.0,6.0,100,0.00,,OVC010,0.00,VWS V14.01,2013-11-21 04:04:00,
2013-11-20 23:05:00,56.6,56.6,30.27,NNE,33,11.0,12.0,100,0.00,,BKN065,0.00,VWS V14.01,2013-11-21 04:05:00,
2013-11-20 23:06:00,56.6,56.6,30.27,North,5,7.0,12.0,100,0.00,,OVC010,0.00,VWS V14.01,2013-11-21 04:06:00,
2013-11-20 23:07:00,56.6,56.6,30.27,NNE,15,11.0,11.0,100,0.00,,OVC010,0.00,VWS V14.01,2013-11-21 04:07:00,
2013-11-20 23:08:00,56.5,56.5,30.27,NNE,17,3.0,11.0,100,0.00,,OVC010,0.00,VWS V14.01,2013-11-21 04:08:00,
2013-11-20 23:09:00,56.5,56.5,30.27,NE,52,4.0,6.0,100,0.00,,OVC010,0.00,VWS V14.01,2013-11-21 04:09:00,
2013-11-20 23:10:00,56.5,56.5,30.27,NNE,13,6.0,6.0,100,0.00,,BKN065,0.00,VWS V14.01,2013-11-21 04:10:00,
2013-11-20 23:11:00,56.5,56.5,30.27,North,360,4.0,7.0,100,0.00,,OVC010,0.00,VWS V14.01,2013-11-21 04:11:00,
2013-11-20 23:12:00,56.5,56.5,30.27,NE,46,11.0,11.0,100,0.00,,OVC010,0.00,VWS V14.01,2013-11-21 04:12:00,
2013-11-20 23:13:00,56.5,56.5,30.27,NE,41,4.0,11.0,100,0.00,,OVC010,0.00,VWS V14.01,2013-11-21 04:13:00,
2013-11-20 23:14:00,56.5,56.5,30.27,NE,53,8.0,8.0,100,0.00,,OVC010,0.00,VWS V14.01,2013-11-21 04:14:00,
2013-11-20 23:15:00,56.5,56.5,30.27,NE,38,5.0,10.0,100,0.00,,BKN065,0.00,VWS V14.01,2013-11-21 04:15:00,
2013-11-20 23:16:00,56.5,56.5,30.27,NE,42,3.0,10.0,100,0.00,,OVC010,0.00,VWS V14.01,2013-11-21 04:16:00,
2013-11-20 23:17:00,56.5,56.5,30.27,NE,44,4.0,4.0,100,0.00,,OVC010,0.00,VWS V14.01,2013-11-21 04:17:00,
2013-11-20 23:18:00,56.5,56.5,30.27,NW,323,4.0,11.0,100,0.00,,OVC010,0.00,VWS V14.01,2013-11-21 04:18:00,
2013-11-20 23:19:00,56.5,56.5,30.27,NE,49,7.0,10.0,100,0.00,,OVC010,0.00,VWS V14.01,2013-11-21 04:19:00,
2013-11-20 23:20:00,56.5,56.5,30.27,North,360,3.0,7.0,100,0.00,,BKN065,0.00,VWS V14.01,2013-11-21 04:20:00,
2013-11-20 23:21:00,56.5,56.5,30.27,NE,53,5.0,7.0,100,0.00,,OVC010,0.00,VWS V14.01,2013-11-21 04:21:00,
2013-11-20 23:22:00,56.5,56.5,30.27,NE,46,4.0,10.0,100,0.00,,OVC010,0.00,VWS V14.01,2013-11-21 04:22:00,
2013-11-20 23:23:00,56.5,56.5,30.27,NE,55,11.0,12.0,100,0.00,,OVC010,0.00,VWS V14.01,2013-11-21 04:23:00,
2013-11-20 23:24:00,56.5,56.5,30.27,East,80,11.0,11.0,100,0.00,,OVC010,0.00,VWS V14.01,2013-11-21 04:24:00,
2013-11-20 23:25:00,56.5,56.5,30.27,NNE,17,4.0,7.0,100,0.00,,BKN065,0.00,VWS V14.01,2013-11-21 04:25:00,
2013-11-20 23:26:00,56.5,56.5,30.27,NNE,17,5.0,9.0,100,0.00,,OVC010,0.00,VWS V14.01,2013-11-21 04:26:00,
2013-11-20 23:27:00,56.5,56.5,30.27,NE,45,7.0,7.0,100,0.00,,OVC010,0.00,VWS V14.01,2013-11-21 04:27:00,
2013-11-20 23:28:00,56.5,56.5,30.27,NNE,21,2.0,7.0,100,0.00,,OVC010,0.00,VWS V14.01,2013-11-21 04:28:00,
2013-11-20 23:29:00,56.5,56.5,30.27,NNE,22,6.0,6.0,100,0.00,,OVC010,0.00,VWS V14.01,2013-11-21 04:29:00,
2013-11-20 23:30:00,56.5,56.5,30.27,NNE,24,11.0,11.0,100,0.00,,BKN065,0.00,VWS V14.01,2013-11-21 04:30:00,
2013-11-20 23:31:00,56.5,56.5,30.27,NE,52,9.0,11.0,100,0.00,,OVC010,0.00,VWS V14.01,2013-11-21 04:31:00,
2013-11-20 23:32:00,56.5,56.5,30.27,NE,49,6.0,9.0,100,0.00,,OVC010,0.00,VWS V14.01,2013-11-21 04:32:00,
2013-11-20 23:33:00,56.5,56.5,30.27,NE,45,4.0,6.0,100,0.00,,OVC010,0.00,VWS V14.01,2013-11-21 04:33:00,
2013-11-20 23:34:00,56.5,56.5,30.26,ENE,66,3.0,6.0,100,0.00,,OVC010,0.00,VWS V14.01,2013-11-21 04:34:00,
2013-11-20 23:35:00,56.5,56.5,30.26,NE,39,7.0,9.0,100,0.00,,OVC065,0.00,VWS V14.01,2013-11-21 04:35:00,
2013-11-20 23:36:00,56.5,56.5,30.26,NE,46,13.0,13.0,100,0.00,,OVC010,0.00,VWS V14.01,2013-11-21 04:36:00,
2013-11-20 23:37:00,56.3,56.3,30.26,NE,45,6.0,13.0,100,0.00,,OVC010,0.00,VWS V14.01,2013-11-21 04:37:00,
2013-11-20 23:38:00,56.3,56.3,30.26,NNE,23,4.0,9.0,100,0.00,,OVC010,0.00,VWS V14.01,2013-11-21 04:38:00,
2013-11-20 23:39:00,56.3,56.3,30.26,NE,53,9.0,9.0,100,0.00,,OVC010,0.00,VWS V14.01,2013-11-21 04:39:00,
2013-11-20 23:40:00,56.3,56.3,30.26,NNE,30,4.0,9.0,100,0.00,,OVC065,0.00,VWS V14.01,2013-11-21 04:40:00,
2013-11-20 23:41:00,56.3,56.3,30.26,NNE,28,7.0,9.0,100,0.00,,OVC010,0.00,VWS V14.01,2013-11-21 04:41:00,
2013-11-20 23:42:00,56.3,56.3,30.26,ENE,60,12.0,12.0,100,0.00,,OVC010,0.00,VWS V14.01,2013-11-21 04:42:00,
2013-11-20 23:43:00,56.3,56.3,30.26,NNE,19,4.0,12.0,100,0.00,,OVC010,0.00,VWS V14.01,2013-11-21 04:43:00,
2013-11-20 23:44:00,56.3,56.3,30.26,NE,49,5.0,6.0,100,0.00,,OVC010,0.00,VWS V14.01,2013-11-21 04:44:00,
2013-11-20 23:45:00,56.3,56.3,30.26,NE,39,6.0,6.0,100,0.00,,OVC065,0.00,VWS V14.01,2013-11-21 04:45:00,
2013-11-20 23:46:00,56.3,56.3,30.26,NNE,28,4.0,9.0,100,0.00,,OVC010,0.00,VWS V14.01,2013-11-21 04:46:00,
2013-11-20 23:47:00,56.3,56.3,30.26,East,83,6.0,6.0,100,0.00,,OVC010,0.00,VWS V14.01,2013-11-21 04:47:00,
2013-11-20 23:48:00,56.3,56.3,30.26,NE,55,3.0,6.0,100,0.00,,OVC010,0.00,VWS V14.01,2013-11-21 04:48:00,
2013-11-20 23:49:00,56.3,56.3,30.26,NW,315,6.0,15.0,100,0.00,,OVC010,0.00,VWS V14.01,2013-11-21 04:49:00,
2013-11-20 23:50:00,56.3,56.3,30.26,NE,40,9.0,9.0,100,0.00,,OVC065,0.00,VWS V14.01,2013-11-21 04:50:00,
2013-11-20 23:51:00,56.3,56.3,30.26,NW,322,6.0,9.0,100,0.00,,OVC010,0.00,VWS V14.01,2013-11-21 04:51:00,
2013-11-20 23:52:00,56.3,56.3,30.26,NE,41,5.0,7.0,100,0.00,,OVC010,0.00,VWS V14.01,2013-11-21 04:52:00,
2013-11-20 23:53:00,56.2,56.2,30.26,ENE,62,7.0,7.0,100,0.00,,OVC010,0.00,VWS V14.01,2013-11-21 04:53:00,
2013-11-20 23:54:00,56.2,56.2,30.26,ENE,58,3.0,7.0,100,0.00,,OVC010,0.00,VWS V14.01,2013-11-21 04:54:00,
2013-11-20 23:55:00,56.2,56.2,30.26,NNE,16,6.0,7.0,100,0.00,,OVC065,0.00,VWS V14.01,2013-11-21 04:55:00,
2013-11-20 23:56:00,56.2,56.2,30.26,NE,46,8.0,8.0,100,0.00,,OVC010,0.00,VWS V14.01,2013-11-21 04:56:00,
2013-11-20 23:57:00,56.2,56.2,30.26,NNE,33,4.0,8.0,100,0.00,,OVC010,0.00,VWS V14.01,2013-11-21 04:57:00,
2013-11-20 23:58:00,56.2,56.2,30.26,North,355,6.0,6.0,100,0.00,,OVC010,0.00,VWS V14.01,2013-11-21 04:58:00,
2013-11-20 23:59:00,56.2,56.2,30.26,NNW,346,9.0,9.0,100,0.00,,OVC010,0.00,VWS V14.01,2013-11-21 04:59:00,